<?xml version='1.0' encoding='UTF-8'?><gpx version="1.1" creator="JPX - https://github.com/jenetics/jpx" xmlns="http://www.topografix.com/GPX/1/1"><trk><trkseg><trkpt lat="43.5052116" lon="10.5860897"><ele>320.0</ele><time>2026-04-04T10:19:34.736Z</time></trkpt><trkpt lat="43.5051768" lon="10.5860079"><ele>320.0</ele><time>2026-04-04T10:19:41.74Z</time></trkpt><trkpt lat="43.5051125" lon="10.5860175"><ele>320.0</ele><time>2026-04-04T10:19:45.731Z</time></trkpt><trkpt lat="43.5050494" lon="10.5860694"><ele>320.0</ele><time>2026-04-04T10:19:47.738Z</time></trkpt><trkpt lat="43.5049957" lon="10.5861296"><ele>320.0</ele><time>2026-04-04T10:19:49.72Z</time></trkpt><trkpt lat="43.5049531" lon="10.5864771"><ele>322.5</ele><time>2026-04-04T10:19:52.733Z</time></trkpt><trkpt lat="43.5049576" lon="10.586581"><ele>325.0</ele><time>2026-04-04T10:19:54.725Z</time></trkpt><trkpt lat="43.5049526" lon="10.5866911"><ele>327.5</ele><time>2026-04-04T10:19:56.734Z</time></trkpt><trkpt lat="43.5049619" lon="10.586804"><ele>330.0</ele><time>2026-04-04T10:20:02.736Z</time></trkpt><trkpt lat="43.5049534" lon="10.586937"><ele>332.5</ele><time>2026-04-04T10:20:43.731Z</time></trkpt><trkpt lat="43.5048855" lon="10.5870092"><ele>335.0</ele><time>2026-04-04T10:21:11.734Z</time></trkpt><trkpt lat="43.5048198" lon="10.5870403"><ele>335.0</ele><time>2026-04-04T10:21:13.728Z</time></trkpt><trkpt lat="43.5047595" lon="10.5870077"><ele>335.0</ele><time>2026-04-04T10:21:15.726Z</time></trkpt><trkpt lat="43.5047119" lon="10.58691"><ele>335.0</ele><time>2026-04-04T10:21:17.74Z</time></trkpt><trkpt lat="43.5046469" lon="10.586785"><ele>335.0</ele><time>2026-04-04T10:21:19.733Z</time></trkpt><trkpt lat="43.504596" lon="10.586726"><ele>335.0</ele><time>2026-04-04T10:21:20.736Z</time></trkpt><trkpt lat="43.5045417" lon="10.5866588"><ele>335.0</ele><time>2026-04-04T10:21:21.748Z</time></trkpt><trkpt lat="43.5044948" lon="10.5865758"><ele>337.1666666666667</ele><time>2026-04-04T10:21:22.735Z</time></trkpt><trkpt lat="43.5044224" lon="10.5864796"><ele>339.33333333333337</ele><time>2026-04-04T10:21:24.736Z</time></trkpt><trkpt lat="43.5043407" lon="10.5864447"><ele>341.5</ele><time>2026-04-04T10:21:26.728Z</time></trkpt><trkpt lat="43.5042835" lon="10.5865039"><ele>343.6666666666667</ele><time>2026-04-04T10:21:31.732Z</time></trkpt><trkpt lat="43.5043076" lon="10.5865935"><ele>345.8333333333333</ele><time>2026-04-04T10:21:33.73Z</time></trkpt><trkpt lat="43.50431" lon="10.5867488"><ele>348.0</ele><time>2026-04-04T10:21:35.736Z</time></trkpt><trkpt lat="43.5042996" lon="10.5868498"><ele>350.75</ele><time>2026-04-04T10:21:36.721Z</time></trkpt><trkpt lat="43.5042943" lon="10.5870282"><ele>353.5</ele><time>2026-04-04T10:21:38.729Z</time></trkpt><trkpt lat="43.5042777" lon="10.5871823"><ele>356.25</ele><time>2026-04-04T10:21:40.718Z</time></trkpt><trkpt lat="43.5042439" lon="10.5873066"><ele>359.0</ele><time>2026-04-04T10:21:42.74Z</time></trkpt><trkpt lat="43.5041975" lon="10.5874646"><ele>359.0</ele><time>2026-04-04T10:21:44.721Z</time></trkpt><trkpt lat="43.5041963" lon="10.5875575"><ele>359.0</ele><time>2026-04-04T10:21:45.737Z</time></trkpt><trkpt lat="43.5041727" lon="10.5877133"><ele>359.0</ele><time>2026-04-04T10:21:47.735Z</time></trkpt><trkpt lat="43.5041512" lon="10.587855"><ele>359.0</ele><time>2026-04-04T10:21:49.721Z</time></trkpt><trkpt lat="43.5041355" lon="10.5880027"><ele>359.0</ele><time>2026-04-04T10:21:51.731Z</time></trkpt><trkpt lat="43.504138" lon="10.5881887"><ele>360.2857142857143</ele><time>2026-04-04T10:21:53.73Z</time></trkpt><trkpt lat="43.504143" lon="10.5882764"><ele>361.57142857142856</ele><time>2026-04-04T10:21:54.735Z</time></trkpt><trkpt lat="43.5041458" lon="10.5883732"><ele>362.8571428571429</ele><time>2026-04-04T10:21:55.735Z</time></trkpt><trkpt lat="43.5041514" lon="10.5884649"><ele>364.1428571428571</ele><time>2026-04-04T10:21:56.725Z</time></trkpt><trkpt lat="43.5041724" lon="10.588601"><ele>365.4285714285714</ele><time>2026-04-04T10:21:58.724Z</time></trkpt><trkpt lat="43.504179" lon="10.5886882"><ele>366.7142857142857</ele><time>2026-04-04T10:22:00.739Z</time></trkpt><trkpt lat="43.5041827" lon="10.5887885"><ele>368.0</ele><time>2026-04-04T10:22:02.749Z</time></trkpt><trkpt lat="43.5041335" lon="10.5888729"><ele>370.0</ele><time>2026-04-04T10:22:05.734Z</time></trkpt><trkpt lat="43.5040723" lon="10.5889811"><ele>372.0</ele><time>2026-04-04T10:22:07.725Z</time></trkpt><trkpt lat="43.5040145" lon="10.5891027"><ele>374.0</ele><time>2026-04-04T10:22:09.729Z</time></trkpt><trkpt lat="43.5039681" lon="10.589197"><ele>376.0</ele><time>2026-04-04T10:22:11.734Z</time></trkpt><trkpt lat="43.5039274" lon="10.5893112"><ele>378.0</ele><time>2026-04-04T10:22:56.733Z</time></trkpt><trkpt lat="43.503891" lon="10.5894375"><ele>378.0</ele><time>2026-04-04T10:24:19.737Z</time></trkpt><trkpt lat="43.503957" lon="10.5892881"><ele>378.0</ele><time>2026-04-04T10:24:37.733Z</time></trkpt><trkpt lat="43.5040119" lon="10.5891977"><ele>378.0</ele><time>2026-04-04T10:24:38.739Z</time></trkpt><trkpt lat="43.5040666" lon="10.5891326"><ele>378.0</ele><time>2026-04-04T10:24:39.736Z</time></trkpt><trkpt lat="43.5041358" lon="10.5890805"><ele>378.0</ele><time>2026-04-04T10:24:41.736Z</time></trkpt><trkpt lat="43.5041766" lon="10.5889503"><ele>378.0</ele><time>2026-04-04T10:24:43.732Z</time></trkpt><trkpt lat="43.5041767" lon="10.5888092"><ele>378.0</ele><time>2026-04-04T10:24:45.735Z</time></trkpt><trkpt lat="43.5041751" lon="10.5886925"><ele>378.0</ele><time>2026-04-04T10:24:47.735Z</time></trkpt><trkpt lat="43.5041772" lon="10.5885754"><ele>378.0</ele><time>2026-04-04T10:24:49.732Z</time></trkpt><trkpt lat="43.5041734" lon="10.5884198"><ele>378.0</ele><time>2026-04-04T10:24:51.737Z</time></trkpt><trkpt lat="43.5041805" lon="10.5882676"><ele>376.0</ele><time>2026-04-04T10:24:53.728Z</time></trkpt><trkpt lat="43.5041913" lon="10.588119"><ele>374.0</ele><time>2026-04-04T10:24:55.725Z</time></trkpt><trkpt lat="43.5042052" lon="10.5879587"><ele>372.0</ele><time>2026-04-04T10:24:57.736Z</time></trkpt><trkpt lat="43.5042155" lon="10.5878155"><ele>370.0</ele><time>2026-04-04T10:24:59.73Z</time></trkpt><trkpt lat="43.5042378" lon="10.5876782"><ele>368.0</ele><time>2026-04-04T10:25:01.736Z</time></trkpt><trkpt lat="43.5042482" lon="10.5875756"><ele>366.7142857142857</ele><time>2026-04-04T10:25:03.736Z</time></trkpt><trkpt lat="43.5042847" lon="10.5874591"><ele>365.4285714285714</ele><time>2026-04-04T10:25:06.748Z</time></trkpt><trkpt lat="43.5043094" lon="10.5873762"><ele>364.1428571428571</ele><time>2026-04-04T10:25:08.734Z</time></trkpt><trkpt lat="43.5043136" lon="10.5872648"><ele>362.8571428571429</ele><time>2026-04-04T10:25:10.732Z</time></trkpt><trkpt lat="43.5043083" lon="10.5871749"><ele>361.57142857142856</ele><time>2026-04-04T10:25:11.734Z</time></trkpt><trkpt lat="43.5043047" lon="10.5870716"><ele>360.2857142857143</ele><time>2026-04-04T10:25:12.726Z</time></trkpt><trkpt lat="43.5043028" lon="10.5869835"><ele>359.0</ele><time>2026-04-04T10:25:13.728Z</time></trkpt><trkpt lat="43.5043024" lon="10.5868543"><ele>359.0</ele><time>2026-04-04T10:25:15.742Z</time></trkpt><trkpt lat="43.5042936" lon="10.5867659"><ele>359.0</ele><time>2026-04-04T10:25:18.732Z</time></trkpt><trkpt lat="43.5043047" lon="10.5866611"><ele>359.0</ele><time>2026-04-04T10:25:21.736Z</time></trkpt><trkpt lat="43.5042939" lon="10.5867541"><ele>359.0</ele><time>2026-04-04T10:25:33.733Z</time></trkpt><trkpt lat="43.5042892" lon="10.586873"><ele>359.0</ele><time>2026-04-04T10:25:35.734Z</time></trkpt><trkpt lat="43.5043167" lon="10.5869786"><ele>359.0</ele><time>2026-04-04T10:25:37.722Z</time></trkpt><trkpt lat="43.5043763" lon="10.5870234"><ele>359.0</ele><time>2026-04-04T10:25:48.722Z</time></trkpt><trkpt lat="43.5044392" lon="10.5869537"><ele>355.33333333333337</ele><time>2026-04-04T10:25:51.714Z</time></trkpt><trkpt lat="43.5045244" lon="10.5869159"><ele>351.6666666666667</ele><time>2026-04-04T10:25:54.727Z</time></trkpt><trkpt lat="43.5046396" lon="10.587022"><ele>348.0</ele><time>2026-04-04T10:26:42.725Z</time></trkpt><trkpt lat="43.5047035" lon="10.5874051"><ele>347.59999999999997</ele><time>2026-04-04T10:26:50.728Z</time></trkpt><trkpt lat="43.504712" lon="10.5875276"><ele>347.2</ele><time>2026-04-04T10:26:52.73Z</time></trkpt><trkpt lat="43.504698" lon="10.5876513"><ele>346.8</ele><time>2026-04-04T10:26:54.729Z</time></trkpt><trkpt lat="43.5047272" lon="10.5877664"><ele>346.4</ele><time>2026-04-04T10:26:57.726Z</time></trkpt><trkpt lat="43.5047522" lon="10.5879352"><ele>346.0</ele><time>2026-04-04T10:26:58.723Z</time></trkpt><trkpt lat="43.5048415" lon="10.5880118"><ele>348.20000000000005</ele><time>2026-04-04T10:27:00.714Z</time></trkpt><trkpt lat="43.5049053" lon="10.5880663"><ele>350.40000000000003</ele><time>2026-04-04T10:27:03.764Z</time></trkpt><trkpt lat="43.5050303" lon="10.588136"><ele>352.6</ele><time>2026-04-04T10:27:17.71Z</time></trkpt><trkpt lat="43.5051087" lon="10.5881883"><ele>354.8</ele><time>2026-04-04T10:27:46.714Z</time></trkpt><trkpt lat="43.5051183" lon="10.5883073"><ele>357.0</ele><time>2026-04-04T10:27:48.724Z</time></trkpt><trkpt lat="43.5051515" lon="10.5884676"><ele>357.0</ele><time>2026-04-04T10:27:50.717Z</time></trkpt><trkpt lat="43.5052209" lon="10.5885923"><ele>357.0</ele><time>2026-04-04T10:27:52.729Z</time></trkpt><trkpt lat="43.5052573" lon="10.5886724"><ele>357.0</ele><time>2026-04-04T10:27:54.727Z</time></trkpt><trkpt lat="43.5053048" lon="10.5887711"><ele>357.0</ele><time>2026-04-04T10:27:56.717Z</time></trkpt><trkpt lat="43.5053565" lon="10.5888732"><ele>357.0</ele><time>2026-04-04T10:27:58.725Z</time></trkpt><trkpt lat="43.5053894" lon="10.5889671"><ele>357.0</ele><time>2026-04-04T10:28:00.729Z</time></trkpt><trkpt lat="43.505422" lon="10.5890813"><ele>359.6</ele><time>2026-04-04T10:28:02.729Z</time></trkpt><trkpt lat="43.5054577" lon="10.5892089"><ele>362.20000000000005</ele><time>2026-04-04T10:28:04.726Z</time></trkpt><trkpt lat="43.5054877" lon="10.5893351"><ele>364.8</ele><time>2026-04-04T10:28:06.737Z</time></trkpt><trkpt lat="43.5055315" lon="10.589496"><ele>367.4</ele><time>2026-04-04T10:28:08.73Z</time></trkpt><trkpt lat="43.5055745" lon="10.589639"><ele>370.0</ele><time>2026-04-04T10:28:10.714Z</time></trkpt><trkpt lat="43.5055861" lon="10.5897339"><ele>371.16666666666663</ele><time>2026-04-04T10:28:11.723Z</time></trkpt><trkpt lat="43.5055933" lon="10.589838"><ele>372.3333333333333</ele><time>2026-04-04T10:28:12.716Z</time></trkpt><trkpt lat="43.5056049" lon="10.589928"><ele>373.5</ele><time>2026-04-04T10:28:13.723Z</time></trkpt><trkpt lat="43.5056222" lon="10.5900273"><ele>374.6666666666667</ele><time>2026-04-04T10:28:14.722Z</time></trkpt><trkpt lat="43.5056486" lon="10.5901317"><ele>375.83333333333337</ele><time>2026-04-04T10:28:15.726Z</time></trkpt><trkpt lat="43.5056858" lon="10.590253"><ele>377.0</ele><time>2026-04-04T10:28:16.719Z</time></trkpt><trkpt lat="43.5056968" lon="10.590358"><ele>377.83333333333337</ele><time>2026-04-04T10:28:17.728Z</time></trkpt><trkpt lat="43.5057005" lon="10.5904617"><ele>378.6666666666667</ele><time>2026-04-04T10:28:18.735Z</time></trkpt><trkpt lat="43.5057026" lon="10.5905614"><ele>379.5</ele><time>2026-04-04T10:28:19.729Z</time></trkpt><trkpt lat="43.5057093" lon="10.590661"><ele>380.3333333333333</ele><time>2026-04-04T10:28:20.723Z</time></trkpt><trkpt lat="43.5057147" lon="10.5907528"><ele>381.16666666666663</ele><time>2026-04-04T10:28:21.738Z</time></trkpt><trkpt lat="43.5057244" lon="10.5908523"><ele>382.0</ele><time>2026-04-04T10:28:22.731Z</time></trkpt><trkpt lat="43.5057481" lon="10.5910157"><ele>382.0</ele><time>2026-04-04T10:28:24.731Z</time></trkpt><trkpt lat="43.5058165" lon="10.5911687"><ele>382.0</ele><time>2026-04-04T10:28:26.721Z</time></trkpt><trkpt lat="43.5058627" lon="10.5912662"><ele>382.0</ele><time>2026-04-04T10:28:28.731Z</time></trkpt><trkpt lat="43.5059558" lon="10.5913529"><ele>382.0</ele><time>2026-04-04T10:32:37.729Z</time></trkpt><trkpt lat="43.5060467" lon="10.5914581"><ele>382.0</ele><time>2026-04-04T10:32:39.739Z</time></trkpt><trkpt lat="43.5061024" lon="10.591525"><ele>382.16666666666663</ele><time>2026-04-04T10:32:40.728Z</time></trkpt><trkpt lat="43.5061501" lon="10.5915866"><ele>382.3333333333333</ele><time>2026-04-04T10:32:41.722Z</time></trkpt><trkpt lat="43.5061144" lon="10.5916769"><ele>382.5</ele><time>2026-04-04T10:32:45.734Z</time></trkpt><trkpt lat="43.506025" lon="10.5916778"><ele>382.6666666666667</ele><time>2026-04-04T10:32:46.73Z</time></trkpt><trkpt lat="43.505925" lon="10.5916771"><ele>382.83333333333337</ele><time>2026-04-04T10:32:47.731Z</time></trkpt><trkpt lat="43.5058092" lon="10.5916843"><ele>383.0</ele><time>2026-04-04T10:32:48.742Z</time></trkpt><trkpt lat="43.5057077" lon="10.5916951"><ele>383.0</ele><time>2026-04-04T10:32:49.732Z</time></trkpt><trkpt lat="43.5056103" lon="10.5917012"><ele>383.0</ele><time>2026-04-04T10:32:50.733Z</time></trkpt><trkpt lat="43.5055292" lon="10.5916704"><ele>383.0</ele><time>2026-04-04T10:32:51.729Z</time></trkpt><trkpt lat="43.5054521" lon="10.5916261"><ele>383.0</ele><time>2026-04-04T10:32:52.733Z</time></trkpt><trkpt lat="43.505386" lon="10.591563"><ele>383.0</ele><time>2026-04-04T10:32:53.724Z</time></trkpt><trkpt lat="43.505319" lon="10.5915103"><ele>383.0</ele><time>2026-04-04T10:32:54.729Z</time></trkpt><trkpt lat="43.5052534" lon="10.5915134"><ele>385.1666666666667</ele><time>2026-04-04T10:32:55.736Z</time></trkpt><trkpt lat="43.5051788" lon="10.5915252"><ele>387.33333333333337</ele><time>2026-04-04T10:32:56.738Z</time></trkpt><trkpt lat="43.5051126" lon="10.5915707"><ele>389.5</ele><time>2026-04-04T10:32:57.73Z</time></trkpt><trkpt lat="43.5050433" lon="10.5916387"><ele>391.6666666666667</ele><time>2026-04-04T10:32:58.729Z</time></trkpt><trkpt lat="43.5049615" lon="10.5917118"><ele>393.8333333333333</ele><time>2026-04-04T10:32:59.719Z</time></trkpt><trkpt lat="43.5048798" lon="10.5917638"><ele>396.0</ele><time>2026-04-04T10:33:00.734Z</time></trkpt><trkpt lat="43.5048003" lon="10.5918248"><ele>396.0</ele><time>2026-04-04T10:33:01.728Z</time></trkpt><trkpt lat="43.5047496" lon="10.5918841"><ele>396.0</ele><time>2026-04-04T10:33:02.719Z</time></trkpt><trkpt lat="43.5046852" lon="10.5919611"><ele>396.0</ele><time>2026-04-04T10:33:03.729Z</time></trkpt><trkpt lat="43.5045996" lon="10.5920749"><ele>396.0</ele><time>2026-04-04T10:33:04.725Z</time></trkpt><trkpt lat="43.5045452" lon="10.5921521"><ele>396.0</ele><time>2026-04-04T10:33:05.724Z</time></trkpt><trkpt lat="43.5044844" lon="10.592233"><ele>396.0</ele><time>2026-04-04T10:33:07.722Z</time></trkpt><trkpt lat="43.5044243" lon="10.5923248"><ele>397.3333333333333</ele><time>2026-04-04T10:34:06.735Z</time></trkpt><trkpt lat="43.5043655" lon="10.5923611"><ele>398.66666666666663</ele><time>2026-04-04T10:34:08.738Z</time></trkpt><trkpt lat="43.5042655" lon="10.5924117"><ele>400.0</ele><time>2026-04-04T10:34:10.734Z</time></trkpt><trkpt lat="43.5042005" lon="10.5924414"><ele>401.3333333333333</ele><time>2026-04-04T10:34:11.732Z</time></trkpt><trkpt lat="43.5041318" lon="10.5924404"><ele>402.66666666666663</ele><time>2026-04-04T10:34:12.725Z</time></trkpt><trkpt lat="43.5040653" lon="10.5924158"><ele>404.0</ele><time>2026-04-04T10:34:13.733Z</time></trkpt><trkpt lat="43.5039935" lon="10.5923818"><ele>404.0</ele><time>2026-04-04T10:34:14.72Z</time></trkpt><trkpt lat="43.5039317" lon="10.5923259"><ele>404.0</ele><time>2026-04-04T10:34:15.725Z</time></trkpt><trkpt lat="43.5038383" lon="10.5922814"><ele>404.0</ele><time>2026-04-04T10:34:17.722Z</time></trkpt><trkpt lat="43.5037247" lon="10.592302"><ele>404.0</ele><time>2026-04-04T10:34:19.726Z</time></trkpt><trkpt lat="43.5035986" lon="10.5923556"><ele>404.0</ele><time>2026-04-04T10:34:21.729Z</time></trkpt><trkpt lat="43.5034649" lon="10.5923838"><ele>405.8333333333333</ele><time>2026-04-04T10:34:23.728Z</time></trkpt><trkpt lat="43.5033844" lon="10.5923649"><ele>407.66666666666663</ele><time>2026-04-04T10:34:24.717Z</time></trkpt><trkpt lat="43.5033014" lon="10.5923479"><ele>409.5</ele><time>2026-04-04T10:34:25.736Z</time></trkpt><trkpt lat="43.5032299" lon="10.5923138"><ele>411.33333333333337</ele><time>2026-04-04T10:34:26.734Z</time></trkpt><trkpt lat="43.5031415" lon="10.5922632"><ele>413.1666666666667</ele><time>2026-04-04T10:34:28.728Z</time></trkpt><trkpt lat="43.5030621" lon="10.5922681"><ele>415.0</ele><time>2026-04-04T10:34:30.746Z</time></trkpt><trkpt lat="43.5029933" lon="10.5923527"><ele>414.6</ele><time>2026-04-04T10:34:32.723Z</time></trkpt><trkpt lat="43.5028962" lon="10.5924206"><ele>414.2</ele><time>2026-04-04T10:34:34.74Z</time></trkpt><trkpt lat="43.5028262" lon="10.5924393"><ele>413.79999999999995</ele><time>2026-04-04T10:34:35.728Z</time></trkpt><trkpt lat="43.5027443" lon="10.5924856"><ele>413.4</ele><time>2026-04-04T10:34:36.725Z</time></trkpt><trkpt lat="43.5026555" lon="10.5925502"><ele>413.0</ele><time>2026-04-04T10:34:37.737Z</time></trkpt><trkpt lat="43.5025819" lon="10.5926286"><ele>412.99999999999994</ele><time>2026-04-04T10:34:38.734Z</time></trkpt><trkpt lat="43.5025293" lon="10.5926918"><ele>413.0</ele><time>2026-04-04T10:34:39.732Z</time></trkpt><trkpt lat="43.5024963" lon="10.5927697"><ele>413.0</ele><time>2026-04-04T10:34:40.739Z</time></trkpt><trkpt lat="43.5024555" lon="10.5928693"><ele>413.0</ele><time>2026-04-04T10:34:41.72Z</time></trkpt><trkpt lat="43.5024075" lon="10.592958"><ele>412.99999999999994</ele><time>2026-04-04T10:34:42.716Z</time></trkpt><trkpt lat="43.5023465" lon="10.5930625"><ele>413.0</ele><time>2026-04-04T10:34:43.718Z</time></trkpt><trkpt lat="43.5022909" lon="10.5931742"><ele>412.59999999999997</ele><time>2026-04-04T10:34:44.713Z</time></trkpt><trkpt lat="43.5022483" lon="10.5932645"><ele>412.2</ele><time>2026-04-04T10:34:45.718Z</time></trkpt><trkpt lat="43.5022113" lon="10.5933588"><ele>411.8</ele><time>2026-04-04T10:34:46.719Z</time></trkpt><trkpt lat="43.5021384" lon="10.5935051"><ele>411.4</ele><time>2026-04-04T10:34:48.725Z</time></trkpt><trkpt lat="43.5020844" lon="10.5935758"><ele>411.0</ele><time>2026-04-04T10:34:49.732Z</time></trkpt><trkpt lat="43.5019926" lon="10.5936819"><ele>410.1666666666667</ele><time>2026-04-04T10:34:51.733Z</time></trkpt><trkpt lat="43.5019074" lon="10.593783"><ele>409.33333333333337</ele><time>2026-04-04T10:34:53.731Z</time></trkpt><trkpt lat="43.5018631" lon="10.593887"><ele>408.5</ele><time>2026-04-04T10:34:54.74Z</time></trkpt><trkpt lat="43.5018257" lon="10.5939845"><ele>407.6666666666667</ele><time>2026-04-04T10:34:55.739Z</time></trkpt><trkpt lat="43.5017996" lon="10.5940761"><ele>406.83333333333337</ele><time>2026-04-04T10:34:56.737Z</time></trkpt><trkpt lat="43.5017748" lon="10.594164"><ele>406.0</ele><time>2026-04-04T10:34:57.733Z</time></trkpt><trkpt lat="43.5017353" lon="10.5942901"><ele>406.0</ele><time>2026-04-04T10:34:59.737Z</time></trkpt><trkpt lat="43.5016703" lon="10.5944138"><ele>406.0</ele><time>2026-04-04T10:35:34.745Z</time></trkpt><trkpt lat="43.5017456" lon="10.5943244"><ele>406.0</ele><time>2026-04-04T10:35:38.724Z</time></trkpt><trkpt lat="43.501801" lon="10.594163"><ele>406.0</ele><time>2026-04-04T10:35:39.736Z</time></trkpt><trkpt lat="43.5018657" lon="10.594033"><ele>406.0</ele><time>2026-04-04T10:35:40.717Z</time></trkpt><trkpt lat="43.5019367" lon="10.5939483"><ele>406.0</ele><time>2026-04-04T10:35:41.728Z</time></trkpt><trkpt lat="43.5020161" lon="10.5938625"><ele>406.0</ele><time>2026-04-04T10:35:42.73Z</time></trkpt><trkpt lat="43.5020844" lon="10.5937797"><ele>406.0</ele><time>2026-04-04T10:35:43.728Z</time></trkpt><trkpt lat="43.5021425" lon="10.5936842"><ele>406.0</ele><time>2026-04-04T10:35:44.72Z</time></trkpt><trkpt lat="43.5021967" lon="10.5935776"><ele>407.25</ele><time>2026-04-04T10:35:45.735Z</time></trkpt><trkpt lat="43.5022472" lon="10.5934471"><ele>408.5</ele><time>2026-04-04T10:35:46.725Z</time></trkpt><trkpt lat="43.5023243" lon="10.5933143"><ele>409.75</ele><time>2026-04-04T10:35:47.73Z</time></trkpt><trkpt lat="43.5024177" lon="10.5931679"><ele>411.0</ele><time>2026-04-04T10:35:48.723Z</time></trkpt><trkpt lat="43.5024821" lon="10.5930041"><ele>411.0</ele><time>2026-04-04T10:35:49.736Z</time></trkpt><trkpt lat="43.5025288" lon="10.5928678"><ele>411.0</ele><time>2026-04-04T10:35:50.732Z</time></trkpt><trkpt lat="43.5025746" lon="10.5927576"><ele>411.0</ele><time>2026-04-04T10:35:51.725Z</time></trkpt><trkpt lat="43.5026473" lon="10.5926857"><ele>411.0</ele><time>2026-04-04T10:35:52.732Z</time></trkpt><trkpt lat="43.5027286" lon="10.5926214"><ele>411.0</ele><time>2026-04-04T10:35:53.727Z</time></trkpt><trkpt lat="43.5028093" lon="10.592557"><ele>411.3333333333333</ele><time>2026-04-04T10:35:54.736Z</time></trkpt><trkpt lat="43.5028914" lon="10.592513"><ele>411.66666666666663</ele><time>2026-04-04T10:35:55.742Z</time></trkpt><trkpt lat="43.5029786" lon="10.5924945"><ele>412.0</ele><time>2026-04-04T10:35:56.731Z</time></trkpt><trkpt lat="43.5030636" lon="10.5924663"><ele>412.3333333333333</ele><time>2026-04-04T10:35:57.726Z</time></trkpt><trkpt lat="43.5031575" lon="10.5924598"><ele>412.66666666666663</ele><time>2026-04-04T10:35:58.735Z</time></trkpt><trkpt lat="43.5032391" lon="10.5924483"><ele>413.0</ele><time>2026-04-04T10:35:59.734Z</time></trkpt><trkpt lat="43.5033072" lon="10.5924435"><ele>413.4</ele><time>2026-04-04T10:36:00.735Z</time></trkpt><trkpt lat="43.5034309" lon="10.592432"><ele>413.79999999999995</ele><time>2026-04-04T10:36:02.734Z</time></trkpt><trkpt lat="43.5034922" lon="10.5924097"><ele>414.2</ele><time>2026-04-04T10:36:03.719Z</time></trkpt><trkpt lat="43.5036105" lon="10.592352"><ele>414.6</ele><time>2026-04-04T10:36:05.741Z</time></trkpt><trkpt lat="43.5037232" lon="10.5923294"><ele>415.0</ele><time>2026-04-04T10:36:07.723Z</time></trkpt><trkpt lat="43.5037937" lon="10.5923546"><ele>412.8</ele><time>2026-04-04T10:36:08.713Z</time></trkpt><trkpt lat="43.5038788" lon="10.5924081"><ele>410.6</ele><time>2026-04-04T10:36:09.72Z</time></trkpt><trkpt lat="43.5039696" lon="10.5924386"><ele>408.4</ele><time>2026-04-04T10:36:10.715Z</time></trkpt><trkpt lat="43.5040887" lon="10.5924525"><ele>406.2</ele><time>2026-04-04T10:36:11.727Z</time></trkpt><trkpt lat="43.5041776" lon="10.5924459"><ele>404.0</ele><time>2026-04-04T10:36:12.723Z</time></trkpt><trkpt lat="43.504265" lon="10.5924006"><ele>404.0</ele><time>2026-04-04T10:36:13.705Z</time></trkpt><trkpt lat="43.5043557" lon="10.5923451"><ele>404.0</ele><time>2026-04-04T10:36:14.726Z</time></trkpt><trkpt lat="43.5044305" lon="10.5922739"><ele>404.0</ele><time>2026-04-04T10:36:16.721Z</time></trkpt><trkpt lat="43.5043652" lon="10.5920069"><ele>404.0</ele><time>2026-04-04T10:36:38.722Z</time></trkpt><trkpt lat="43.5042662" lon="10.5919048"><ele>403.75</ele><time>2026-04-04T10:36:39.72Z</time></trkpt><trkpt lat="43.504155" lon="10.591817"><ele>403.5</ele><time>2026-04-04T10:36:40.712Z</time></trkpt><trkpt lat="43.5040586" lon="10.5917524"><ele>403.25</ele><time>2026-04-04T10:36:41.719Z</time></trkpt><trkpt lat="43.5039433" lon="10.5916703"><ele>403.0</ele><time>2026-04-04T10:36:42.724Z</time></trkpt><trkpt lat="43.503858" lon="10.591577"><ele>403.0</ele><time>2026-04-04T10:36:43.714Z</time></trkpt><trkpt lat="43.5037942" lon="10.5914644"><ele>403.0</ele><time>2026-04-04T10:36:44.726Z</time></trkpt><trkpt lat="43.5037267" lon="10.5913666"><ele>403.0</ele><time>2026-04-04T10:36:45.724Z</time></trkpt><trkpt lat="43.503654" lon="10.5912549"><ele>403.0</ele><time>2026-04-04T10:36:46.706Z</time></trkpt><trkpt lat="43.5035884" lon="10.5911311"><ele>403.0</ele><time>2026-04-04T10:36:47.725Z</time></trkpt><trkpt lat="43.503528" lon="10.5910019"><ele>403.2</ele><time>2026-04-04T10:36:48.741Z</time></trkpt><trkpt lat="43.5034622" lon="10.5908865"><ele>403.4</ele><time>2026-04-04T10:36:49.733Z</time></trkpt><trkpt lat="43.5033914" lon="10.5907714"><ele>403.59999999999997</ele><time>2026-04-04T10:36:50.717Z</time></trkpt><trkpt lat="43.5033311" lon="10.5906842"><ele>403.79999999999995</ele><time>2026-04-04T10:36:51.729Z</time></trkpt><trkpt lat="43.50326" lon="10.5906195"><ele>404.0</ele><time>2026-04-04T10:36:53.718Z</time></trkpt><trkpt lat="43.5032111" lon="10.5905289"><ele>404.0</ele><time>2026-04-04T10:36:55.733Z</time></trkpt><trkpt lat="43.5030905" lon="10.5904151"><ele>404.0</ele><time>2026-04-04T10:37:01.734Z</time></trkpt><trkpt lat="43.5030246" lon="10.5904205"><ele>404.0</ele><time>2026-04-04T10:37:02.721Z</time></trkpt><trkpt lat="43.5029241" lon="10.5904365"><ele>404.0</ele><time>2026-04-04T10:37:04.73Z</time></trkpt><trkpt lat="43.5028415" lon="10.5905467"><ele>404.0</ele><time>2026-04-04T10:37:06.729Z</time></trkpt><trkpt lat="43.5027888" lon="10.5906219"><ele>403.2857142857143</ele><time>2026-04-04T10:37:07.729Z</time></trkpt><trkpt lat="43.502742" lon="10.5906942"><ele>402.57142857142856</ele><time>2026-04-04T10:37:08.726Z</time></trkpt><trkpt lat="43.5026879" lon="10.590756"><ele>401.8571428571429</ele><time>2026-04-04T10:37:09.716Z</time></trkpt><trkpt lat="43.5026402" lon="10.5908358"><ele>401.1428571428571</ele><time>2026-04-04T10:37:10.731Z</time></trkpt><trkpt lat="43.502595" lon="10.5909055"><ele>400.42857142857144</ele><time>2026-04-04T10:37:11.743Z</time></trkpt><trkpt lat="43.5025427" lon="10.5909817"><ele>399.7142857142857</ele><time>2026-04-04T10:37:12.723Z</time></trkpt><trkpt lat="43.5024899" lon="10.5910666"><ele>399.0</ele><time>2026-04-04T10:37:13.713Z</time></trkpt><trkpt lat="43.5024278" lon="10.5911523"><ele>398.8333333333333</ele><time>2026-04-04T10:37:14.724Z</time></trkpt><trkpt lat="43.5023762" lon="10.5912296"><ele>398.66666666666663</ele><time>2026-04-04T10:37:15.73Z</time></trkpt><trkpt lat="43.5023059" lon="10.5913202"><ele>398.5</ele><time>2026-04-04T10:37:17.736Z</time></trkpt><trkpt lat="43.5022232" lon="10.591358"><ele>398.3333333333333</ele><time>2026-04-04T10:37:19.728Z</time></trkpt><trkpt lat="43.5021592" lon="10.5913144"><ele>398.16666666666663</ele><time>2026-04-04T10:37:20.732Z</time></trkpt><trkpt lat="43.5020955" lon="10.5911804"><ele>398.0</ele><time>2026-04-04T10:37:21.731Z</time></trkpt><trkpt lat="43.5020193" lon="10.5910546"><ele>397.99999999999994</ele><time>2026-04-04T10:37:22.733Z</time></trkpt><trkpt lat="43.5019663" lon="10.5909333"><ele>398.0</ele><time>2026-04-04T10:37:23.739Z</time></trkpt><trkpt lat="43.5019261" lon="10.5908383"><ele>398.0</ele><time>2026-04-04T10:37:24.733Z</time></trkpt><trkpt lat="43.501886" lon="10.5907498"><ele>398.0</ele><time>2026-04-04T10:37:25.724Z</time></trkpt><trkpt lat="43.5018542" lon="10.59066"><ele>397.99999999999994</ele><time>2026-04-04T10:37:26.72Z</time></trkpt><trkpt lat="43.501837" lon="10.5905437"><ele>398.0</ele><time>2026-04-04T10:37:27.726Z</time></trkpt><trkpt lat="43.5018019" lon="10.5904326"><ele>396.4</ele><time>2026-04-04T10:37:28.727Z</time></trkpt><trkpt lat="43.5017724" lon="10.5903148"><ele>394.79999999999995</ele><time>2026-04-04T10:37:29.738Z</time></trkpt><trkpt lat="43.5017767" lon="10.5902103"><ele>393.2</ele><time>2026-04-04T10:37:30.73Z</time></trkpt><trkpt lat="43.5017731" lon="10.5901084"><ele>391.6</ele><time>2026-04-04T10:37:31.727Z</time></trkpt><trkpt lat="43.5017279" lon="10.5899408"><ele>390.0</ele><time>2026-04-04T10:37:33.728Z</time></trkpt><trkpt lat="43.5016696" lon="10.5898282"><ele>390.0</ele><time>2026-04-04T10:37:49.722Z</time></trkpt><trkpt lat="43.5015945" lon="10.5899054"><ele>390.0</ele><time>2026-04-04T10:37:53.751Z</time></trkpt><trkpt lat="43.5015646" lon="10.5899826"><ele>390.0</ele><time>2026-04-04T10:37:54.726Z</time></trkpt><trkpt lat="43.5014759" lon="10.5901105"><ele>390.0</ele><time>2026-04-04T10:37:56.726Z</time></trkpt><trkpt lat="43.5013873" lon="10.5901703"><ele>390.0</ele><time>2026-04-04T10:37:58.723Z</time></trkpt><trkpt lat="43.5012942" lon="10.5901647"><ele>389.6666666666667</ele><time>2026-04-04T10:38:00.725Z</time></trkpt><trkpt lat="43.5012188" lon="10.5901131"><ele>389.33333333333337</ele><time>2026-04-04T10:38:02.728Z</time></trkpt><trkpt lat="43.5011478" lon="10.5901179"><ele>389.0</ele><time>2026-04-04T10:38:05.742Z</time></trkpt><trkpt lat="43.5011171" lon="10.5901985"><ele>388.6666666666667</ele><time>2026-04-04T10:38:07.726Z</time></trkpt><trkpt lat="43.5010496" lon="10.5902606"><ele>388.33333333333337</ele><time>2026-04-04T10:38:42.736Z</time></trkpt><trkpt lat="43.5009833" lon="10.5902648"><ele>388.0</ele><time>2026-04-04T10:38:48.722Z</time></trkpt><trkpt lat="43.500907" lon="10.5903446"><ele>388.0</ele><time>2026-04-04T10:38:51.728Z</time></trkpt><trkpt lat="43.5008964" lon="10.5904686"><ele>388.0</ele><time>2026-04-04T10:38:53.719Z</time></trkpt><trkpt lat="43.5008917" lon="10.5906072"><ele>388.0</ele><time>2026-04-04T10:38:55.733Z</time></trkpt><trkpt lat="43.5008785" lon="10.5907334"><ele>388.0</ele><time>2026-04-04T10:38:57.727Z</time></trkpt><trkpt lat="43.5008712" lon="10.590841"><ele>388.0</ele><time>2026-04-04T10:38:59.721Z</time></trkpt><trkpt lat="43.5009176" lon="10.5910113"><ele>388.00000000000006</ele><time>2026-04-04T10:39:01.716Z</time></trkpt><trkpt lat="43.5009321" lon="10.5911059"><ele>388.0</ele><time>2026-04-04T10:39:02.737Z</time></trkpt><trkpt lat="43.5009437" lon="10.591197"><ele>388.0</ele><time>2026-04-04T10:39:03.725Z</time></trkpt><trkpt lat="43.5009473" lon="10.5913036"><ele>388.0</ele><time>2026-04-04T10:39:05.714Z</time></trkpt><trkpt lat="43.5009165" lon="10.5914002"><ele>388.00000000000006</ele><time>2026-04-04T10:39:09.726Z</time></trkpt><trkpt lat="43.500872" lon="10.5914916"><ele>388.0</ele><time>2026-04-04T10:39:12.726Z</time></trkpt><trkpt lat="43.5008332" lon="10.5917407"><ele>386.79999999999995</ele><time>2026-04-04T10:39:14.727Z</time></trkpt><trkpt lat="43.5007919" lon="10.5918168"><ele>385.6</ele><time>2026-04-04T10:39:16.722Z</time></trkpt><trkpt lat="43.500714" lon="10.5917795"><ele>384.4</ele><time>2026-04-04T10:39:19.734Z</time></trkpt><trkpt lat="43.5006398" lon="10.5917675"><ele>383.20000000000005</ele><time>2026-04-04T10:39:21.729Z</time></trkpt><trkpt lat="43.5005759" lon="10.5918092"><ele>382.0</ele><time>2026-04-04T10:39:25.745Z</time></trkpt><trkpt lat="43.5003399" lon="10.5920069"><ele>381.6</ele><time>2026-04-04T10:39:37.725Z</time></trkpt><trkpt lat="43.5004032" lon="10.5921874"><ele>381.20000000000005</ele><time>2026-04-04T10:39:39.733Z</time></trkpt><trkpt lat="43.500441" lon="10.5923133"><ele>380.8</ele><time>2026-04-04T10:39:40.728Z</time></trkpt><trkpt lat="43.5004805" lon="10.5924062"><ele>380.4</ele><time>2026-04-04T10:39:41.732Z</time></trkpt><trkpt lat="43.5005185" lon="10.5924973"><ele>380.0</ele><time>2026-04-04T10:39:42.729Z</time></trkpt><trkpt lat="43.5005808" lon="10.5925751"><ele>380.0</ele><time>2026-04-04T10:39:43.743Z</time></trkpt><trkpt lat="43.500631" lon="10.5926555"><ele>380.0</ele><time>2026-04-04T10:39:44.738Z</time></trkpt><trkpt lat="43.5006767" lon="10.5927584"><ele>380.0</ele><time>2026-04-04T10:39:45.736Z</time></trkpt><trkpt lat="43.5007131" lon="10.5928679"><ele>380.0</ele><time>2026-04-04T10:39:46.723Z</time></trkpt><trkpt lat="43.5007325" lon="10.59301"><ele>380.0</ele><time>2026-04-04T10:39:47.73Z</time></trkpt><trkpt lat="43.5007514" lon="10.593169"><ele>380.4</ele><time>2026-04-04T10:39:48.741Z</time></trkpt><trkpt lat="43.5007713" lon="10.5933194"><ele>380.8</ele><time>2026-04-04T10:39:49.732Z</time></trkpt><trkpt lat="43.5007838" lon="10.593446"><ele>381.20000000000005</ele><time>2026-04-04T10:39:50.736Z</time></trkpt><trkpt lat="43.5007955" lon="10.5935427"><ele>381.6</ele><time>2026-04-04T10:39:51.732Z</time></trkpt><trkpt lat="43.5008097" lon="10.5936367"><ele>382.0</ele><time>2026-04-04T10:39:52.738Z</time></trkpt><trkpt lat="43.5008536" lon="10.5937802"><ele>382.8333333333333</ele><time>2026-04-04T10:39:54.738Z</time></trkpt><trkpt lat="43.5008861" lon="10.5938914"><ele>383.66666666666663</ele><time>2026-04-04T10:39:56.731Z</time></trkpt><trkpt lat="43.5008525" lon="10.5940173"><ele>384.5</ele><time>2026-04-04T10:39:58.731Z</time></trkpt><trkpt lat="43.5008183" lon="10.5941032"><ele>385.3333333333333</ele><time>2026-04-04T10:39:59.729Z</time></trkpt><trkpt lat="43.5007979" lon="10.5941948"><ele>386.1666666666667</ele><time>2026-04-04T10:40:00.727Z</time></trkpt><trkpt lat="43.5007624" lon="10.5942969"><ele>387.0</ele><time>2026-04-04T10:40:02.735Z</time></trkpt><trkpt lat="43.500682" lon="10.5943272"><ele>387.0</ele><time>2026-04-04T10:40:08.724Z</time></trkpt><trkpt lat="43.5006131" lon="10.5942546"><ele>387.0</ele><time>2026-04-04T10:40:10.723Z</time></trkpt><trkpt lat="43.5005668" lon="10.5941457"><ele>387.0</ele><time>2026-04-04T10:40:12.73Z</time></trkpt><trkpt lat="43.5005102" lon="10.5940889"><ele>387.0</ele><time>2026-04-04T10:40:14.73Z</time></trkpt><trkpt lat="43.5004167" lon="10.5940428"><ele>387.0</ele><time>2026-04-04T10:40:16.723Z</time></trkpt><trkpt lat="43.5003225" lon="10.5940158"><ele>387.0</ele><time>2026-04-04T10:40:18.73Z</time></trkpt><trkpt lat="43.5002199" lon="10.593973"><ele>384.6</ele><time>2026-04-04T10:40:20.727Z</time></trkpt><trkpt lat="43.5001238" lon="10.5939677"><ele>382.20000000000005</ele><time>2026-04-04T10:40:22.728Z</time></trkpt><trkpt lat="43.5000364" lon="10.5940024"><ele>379.8</ele><time>2026-04-04T10:40:24.729Z</time></trkpt><trkpt lat="43.499958" lon="10.5940818"><ele>377.4</ele><time>2026-04-04T10:40:26.731Z</time></trkpt><trkpt lat="43.499884" lon="10.5941479"><ele>375.0</ele><time>2026-04-04T10:40:28.732Z</time></trkpt><trkpt lat="43.499839" lon="10.5940411"><ele>375.0</ele><time>2026-04-04T10:40:31.732Z</time></trkpt><trkpt lat="43.4997424" lon="10.5939149"><ele>375.0</ele><time>2026-04-04T10:40:33.73Z</time></trkpt><trkpt lat="43.4997056" lon="10.5938408"><ele>375.0</ele><time>2026-04-04T10:40:34.747Z</time></trkpt><trkpt lat="43.4996437" lon="10.5937146"><ele>375.0</ele><time>2026-04-04T10:40:36.741Z</time></trkpt><trkpt lat="43.4995652" lon="10.5936063"><ele>375.0</ele><time>2026-04-04T10:40:38.724Z</time></trkpt><trkpt lat="43.4994808" lon="10.5935262"><ele>375.3333333333333</ele><time>2026-04-04T10:40:40.726Z</time></trkpt><trkpt lat="43.499434" lon="10.5934263"><ele>375.6666666666667</ele><time>2026-04-04T10:40:42.733Z</time></trkpt><trkpt lat="43.4993748" lon="10.5933146"><ele>376.0</ele><time>2026-04-04T10:40:44.727Z</time></trkpt><trkpt lat="43.4993151" lon="10.5932256"><ele>376.33333333333337</ele><time>2026-04-04T10:40:45.73Z</time></trkpt><trkpt lat="43.4992377" lon="10.5931663"><ele>376.6666666666667</ele><time>2026-04-04T10:40:46.734Z</time></trkpt><trkpt lat="43.4991752" lon="10.5931131"><ele>377.0</ele><time>2026-04-04T10:40:47.733Z</time></trkpt><trkpt lat="43.4991084" lon="10.5930483"><ele>377.0</ele><time>2026-04-04T10:40:48.733Z</time></trkpt><trkpt lat="43.4990481" lon="10.5930219"><ele>377.0</ele><time>2026-04-04T10:40:49.721Z</time></trkpt><trkpt lat="43.4989692" lon="10.5929816"><ele>377.0</ele><time>2026-04-04T10:40:50.724Z</time></trkpt><trkpt lat="43.498883" lon="10.5929396"><ele>377.0</ele><time>2026-04-04T10:40:51.726Z</time></trkpt><trkpt lat="43.4987966" lon="10.5929087"><ele>377.0</ele><time>2026-04-04T10:40:52.727Z</time></trkpt><trkpt lat="43.4986629" lon="10.5928817"><ele>378.0</ele><time>2026-04-04T10:41:20.737Z</time></trkpt><trkpt lat="43.498612" lon="10.5928211"><ele>379.0</ele><time>2026-04-04T10:41:25.727Z</time></trkpt><trkpt lat="43.498552" lon="10.5927664"><ele>380.0</ele><time>2026-04-04T10:41:27.729Z</time></trkpt><trkpt lat="43.498484" lon="10.5927177"><ele>381.0</ele><time>2026-04-04T10:41:29.731Z</time></trkpt><trkpt lat="43.4983968" lon="10.5926605"><ele>382.0</ele><time>2026-04-04T10:41:31.726Z</time></trkpt><trkpt lat="43.4983025" lon="10.5926149"><ele>383.0</ele><time>2026-04-04T10:41:33.723Z</time></trkpt><trkpt lat="43.4981768" lon="10.5926008"><ele>383.0</ele><time>2026-04-04T10:41:35.732Z</time></trkpt><trkpt lat="43.4980621" lon="10.5925882"><ele>383.0</ele><time>2026-04-04T10:41:37.726Z</time></trkpt><trkpt lat="43.4979865" lon="10.5925879"><ele>383.0</ele><time>2026-04-04T10:41:38.732Z</time></trkpt><trkpt lat="43.497873" lon="10.5925738"><ele>383.0</ele><time>2026-04-04T10:41:40.743Z</time></trkpt><trkpt lat="43.4978118" lon="10.5925194"><ele>383.0</ele><time>2026-04-04T10:41:41.735Z</time></trkpt><trkpt lat="43.4977628" lon="10.5924475"><ele>383.0</ele><time>2026-04-04T10:41:42.732Z</time></trkpt><trkpt lat="43.4977113" lon="10.592381"><ele>385.5</ele><time>2026-04-04T10:41:43.733Z</time></trkpt><trkpt lat="43.4976666" lon="10.5922962"><ele>388.0</ele><time>2026-04-04T10:41:44.723Z</time></trkpt><trkpt lat="43.4976295" lon="10.5922166"><ele>390.5</ele><time>2026-04-04T10:41:45.744Z</time></trkpt><trkpt lat="43.4975503" lon="10.5921556"><ele>393.0</ele><time>2026-04-04T10:41:47.729Z</time></trkpt><trkpt lat="43.497445" lon="10.5920984"><ele>395.49999999999994</ele><time>2026-04-04T10:41:49.725Z</time></trkpt><trkpt lat="43.4973789" lon="10.5920889"><ele>398.0</ele><time>2026-04-04T10:41:50.73Z</time></trkpt><trkpt lat="43.4973139" lon="10.5921046"><ele>398.0</ele><time>2026-04-04T10:41:51.733Z</time></trkpt><trkpt lat="43.4972122" lon="10.5921398"><ele>398.0</ele><time>2026-04-04T10:41:53.743Z</time></trkpt><trkpt lat="43.4971061" lon="10.5922239"><ele>398.0</ele><time>2026-04-04T10:41:55.735Z</time></trkpt><trkpt lat="43.4970503" lon="10.5922666"><ele>398.0</ele><time>2026-04-04T10:41:56.729Z</time></trkpt><trkpt lat="43.4969499" lon="10.592284"><ele>398.0</ele><time>2026-04-04T10:41:58.729Z</time></trkpt><trkpt lat="43.4968934" lon="10.5922179"><ele>398.0</ele><time>2026-04-04T10:41:59.721Z</time></trkpt><trkpt lat="43.496849" lon="10.5921379"><ele>398.0</ele><time>2026-04-04T10:42:00.722Z</time></trkpt><trkpt lat="43.4967761" lon="10.5920287"><ele>398.0</ele><time>2026-04-04T10:42:02.728Z</time></trkpt><trkpt lat="43.4966779" lon="10.5919517"><ele>398.0</ele><time>2026-04-04T10:42:04.728Z</time></trkpt><trkpt lat="43.4965735" lon="10.5918788"><ele>398.0</ele><time>2026-04-04T10:42:06.729Z</time></trkpt><trkpt lat="43.4964759" lon="10.5918671"><ele>397.99999999999994</ele><time>2026-04-04T10:42:08.722Z</time></trkpt><trkpt lat="43.4964041" lon="10.5918805"><ele>398.0</ele><time>2026-04-04T10:42:10.726Z</time></trkpt><trkpt lat="43.4963307" lon="10.5919084"><ele>398.0</ele><time>2026-04-04T10:42:14.733Z</time></trkpt><trkpt lat="43.4962653" lon="10.5920254"><ele>398.0</ele><time>2026-04-04T10:42:17.729Z</time></trkpt><trkpt lat="43.4962559" lon="10.5921252"><ele>397.99999999999994</ele><time>2026-04-04T10:42:18.741Z</time></trkpt><trkpt lat="43.4962746" lon="10.5922552"><ele>398.0</ele><time>2026-04-04T10:42:20.746Z</time></trkpt><trkpt lat="43.4963006" lon="10.592378"><ele>400.16666666666663</ele><time>2026-04-04T10:42:22.739Z</time></trkpt><trkpt lat="43.4963049" lon="10.5924788"><ele>402.3333333333333</ele><time>2026-04-04T10:42:25.722Z</time></trkpt><trkpt lat="43.4962973" lon="10.5925972"><ele>404.5</ele><time>2026-04-04T10:42:27.73Z</time></trkpt><trkpt lat="43.4962716" lon="10.5927022"><ele>406.66666666666663</ele><time>2026-04-04T10:42:29.737Z</time></trkpt><trkpt lat="43.4962393" lon="10.59282"><ele>408.8333333333333</ele><time>2026-04-04T10:42:32.74Z</time></trkpt><trkpt lat="43.4962261" lon="10.5929304"><ele>411.0</ele><time>2026-04-04T10:42:34.722Z</time></trkpt><trkpt lat="43.4962326" lon="10.5930954"><ele>419.0</ele><time>2026-04-04T10:42:36.733Z</time></trkpt><trkpt lat="43.4962255" lon="10.5931855"><ele>427.0</ele><time>2026-04-04T10:42:37.722Z</time></trkpt><trkpt lat="43.4961923" lon="10.5933767"><ele>435.0</ele><time>2026-04-04T10:42:39.732Z</time></trkpt><trkpt lat="43.4961917" lon="10.5935033"><ele>443.0</ele><time>2026-04-04T10:42:40.721Z</time></trkpt><trkpt lat="43.4962127" lon="10.5936316"><ele>451.0</ele><time>2026-04-04T10:42:41.73Z</time></trkpt><trkpt lat="43.4962331" lon="10.5937402"><ele>449.6</ele><time>2026-04-04T10:42:42.727Z</time></trkpt><trkpt lat="43.496262" lon="10.5938739"><ele>448.20000000000005</ele><time>2026-04-04T10:42:43.727Z</time></trkpt><trkpt lat="43.496309" lon="10.5939936"><ele>446.79999999999995</ele><time>2026-04-04T10:42:44.713Z</time></trkpt><trkpt lat="43.4963402" lon="10.5941015"><ele>445.4</ele><time>2026-04-04T10:42:45.731Z</time></trkpt><trkpt lat="43.4963599" lon="10.5942165"><ele>444.0</ele><time>2026-04-04T10:42:46.726Z</time></trkpt><trkpt lat="43.496416" lon="10.5943077"><ele>444.0</ele><time>2026-04-04T10:42:47.737Z</time></trkpt><trkpt lat="43.4964768" lon="10.5943806"><ele>444.0</ele><time>2026-04-04T10:42:48.729Z</time></trkpt><trkpt lat="43.4965334" lon="10.5944257"><ele>444.0</ele><time>2026-04-04T10:42:49.728Z</time></trkpt><trkpt lat="43.496596" lon="10.5944621"><ele>444.0</ele><time>2026-04-04T10:42:50.731Z</time></trkpt><trkpt lat="43.4967751" lon="10.5944793"><ele>444.0</ele><time>2026-04-04T10:43:42.724Z</time></trkpt><trkpt lat="43.4968408" lon="10.5944667"><ele>444.0</ele><time>2026-04-04T10:44:52.719Z</time></trkpt><trkpt lat="43.4969209" lon="10.5944394"><ele>444.0</ele><time>2026-04-04T10:45:15.736Z</time></trkpt><trkpt lat="43.4970322" lon="10.5944333"><ele>444.0</ele><time>2026-04-04T10:45:17.724Z</time></trkpt><trkpt lat="43.4971277" lon="10.5944537"><ele>444.0</ele><time>2026-04-04T10:45:19.729Z</time></trkpt><trkpt lat="43.4972088" lon="10.5945028"><ele>444.0</ele><time>2026-04-04T10:45:21.722Z</time></trkpt><trkpt lat="43.4972809" lon="10.5945624"><ele>443.0</ele><time>2026-04-04T10:45:23.735Z</time></trkpt><trkpt lat="43.4973646" lon="10.5946286"><ele>442.0</ele><time>2026-04-04T10:45:25.724Z</time></trkpt><trkpt lat="43.4974669" lon="10.5947121"><ele>441.0</ele><time>2026-04-04T10:45:27.737Z</time></trkpt><trkpt lat="43.4975512" lon="10.5947436"><ele>440.0</ele><time>2026-04-04T10:45:29.733Z</time></trkpt><trkpt lat="43.4976462" lon="10.594784"><ele>439.0</ele><time>2026-04-04T10:45:31.727Z</time></trkpt><trkpt lat="43.4977126" lon="10.5947998"><ele>439.00000000000006</ele><time>2026-04-04T10:45:32.73Z</time></trkpt><trkpt lat="43.4978111" lon="10.5948212"><ele>439.0</ele><time>2026-04-04T10:45:34.738Z</time></trkpt><trkpt lat="43.4978977" lon="10.5948441"><ele>439.0</ele><time>2026-04-04T10:45:36.724Z</time></trkpt><trkpt lat="43.4979892" lon="10.5948836"><ele>439.0</ele><time>2026-04-04T10:45:38.728Z</time></trkpt><trkpt lat="43.4980447" lon="10.5949549"><ele>439.00000000000006</ele><time>2026-04-04T10:45:40.736Z</time></trkpt><trkpt lat="43.4980359" lon="10.5950713"><ele>439.0</ele><time>2026-04-04T10:45:43.723Z</time></trkpt><trkpt lat="43.497968" lon="10.5951645"><ele>439.0</ele><time>2026-04-04T10:45:47.729Z</time></trkpt><trkpt lat="43.4978498" lon="10.5952324"><ele>439.0</ele><time>2026-04-04T10:45:49.729Z</time></trkpt><trkpt lat="43.4977944" lon="10.5953099"><ele>439.0</ele><time>2026-04-04T10:45:50.74Z</time></trkpt><trkpt lat="43.4977374" lon="10.5954017"><ele>439.0</ele><time>2026-04-04T10:45:51.733Z</time></trkpt><trkpt lat="43.4976757" lon="10.5955331"><ele>439.0</ele><time>2026-04-04T10:45:52.741Z</time></trkpt><trkpt lat="43.4976213" lon="10.5956501"><ele>437.1666666666667</ele><time>2026-04-04T10:45:53.727Z</time></trkpt><trkpt lat="43.4975791" lon="10.5957311"><ele>435.33333333333337</ele><time>2026-04-04T10:45:54.731Z</time></trkpt><trkpt lat="43.4975357" lon="10.5958103"><ele>433.5</ele><time>2026-04-04T10:45:55.724Z</time></trkpt><trkpt lat="43.4974784" lon="10.5958978"><ele>431.66666666666663</ele><time>2026-04-04T10:45:56.731Z</time></trkpt><trkpt lat="43.4974187" lon="10.5960122"><ele>429.8333333333333</ele><time>2026-04-04T10:45:57.737Z</time></trkpt><trkpt lat="43.4973711" lon="10.5961017"><ele>428.0</ele><time>2026-04-04T10:45:58.724Z</time></trkpt><trkpt lat="43.4973301" lon="10.596171"><ele>427.99999999999994</ele><time>2026-04-04T10:45:59.73Z</time></trkpt><trkpt lat="43.4972242" lon="10.5962261"><ele>428.0</ele><time>2026-04-04T10:46:01.747Z</time></trkpt><trkpt lat="43.4971611" lon="10.5962538"><ele>428.0</ele><time>2026-04-04T10:46:02.729Z</time></trkpt><trkpt lat="43.4970726" lon="10.5963018"><ele>428.0</ele><time>2026-04-04T10:46:03.726Z</time></trkpt><trkpt lat="43.4969928" lon="10.5963453"><ele>427.99999999999994</ele><time>2026-04-04T10:46:04.738Z</time></trkpt><trkpt lat="43.4969189" lon="10.5963954"><ele>428.0</ele><time>2026-04-04T10:46:05.715Z</time></trkpt><trkpt lat="43.4968466" lon="10.5964545"><ele>428.0</ele><time>2026-04-04T10:46:06.723Z</time></trkpt><trkpt lat="43.4967869" lon="10.5965158"><ele>427.99999999999994</ele><time>2026-04-04T10:46:07.724Z</time></trkpt><trkpt lat="43.4966928" lon="10.596576"><ele>427.99999999999994</ele><time>2026-04-04T10:46:09.725Z</time></trkpt><trkpt lat="43.4966158" lon="10.5965927"><ele>428.0</ele><time>2026-04-04T10:46:10.72Z</time></trkpt><trkpt lat="43.4965171" lon="10.5966299"><ele>428.0</ele><time>2026-04-04T10:46:11.732Z</time></trkpt><trkpt lat="43.4964167" lon="10.5967129"><ele>428.0</ele><time>2026-04-04T10:46:12.735Z</time></trkpt><trkpt lat="43.4963622" lon="10.5967852"><ele>427.99999999999994</ele><time>2026-04-04T10:46:13.731Z</time></trkpt><trkpt lat="43.4962185" lon="10.5968167"><ele>427.99999999999994</ele><time>2026-04-04T10:46:15.732Z</time></trkpt><trkpt lat="43.4961337" lon="10.5967739"><ele>428.0</ele><time>2026-04-04T10:46:16.725Z</time></trkpt><trkpt lat="43.4960599" lon="10.5967302"><ele>428.0</ele><time>2026-04-04T10:46:17.736Z</time></trkpt><trkpt lat="43.4959692" lon="10.5966329"><ele>429.3333333333333</ele><time>2026-04-04T10:46:19.723Z</time></trkpt><trkpt lat="43.4959233" lon="10.5965574"><ele>430.66666666666663</ele><time>2026-04-04T10:46:21.73Z</time></trkpt><trkpt lat="43.4957899" lon="10.5965024"><ele>432.0</ele><time>2026-04-04T10:46:23.73Z</time></trkpt><trkpt lat="43.4957279" lon="10.5964734"><ele>433.33333333333337</ele><time>2026-04-04T10:46:24.73Z</time></trkpt><trkpt lat="43.4956585" lon="10.5964436"><ele>434.6666666666667</ele><time>2026-04-04T10:46:26.721Z</time></trkpt><trkpt lat="43.4955952" lon="10.5964634"><ele>436.0</ele><time>2026-04-04T10:46:29.732Z</time></trkpt><trkpt lat="43.4955125" lon="10.5964794"><ele>436.0</ele><time>2026-04-04T10:46:30.741Z</time></trkpt><trkpt lat="43.4954323" lon="10.5964891"><ele>436.0</ele><time>2026-04-04T10:46:31.731Z</time></trkpt><trkpt lat="43.4953409" lon="10.5965123"><ele>436.0</ele><time>2026-04-04T10:46:32.737Z</time></trkpt><trkpt lat="43.4952393" lon="10.5965395"><ele>436.0</ele><time>2026-04-04T10:46:33.73Z</time></trkpt><trkpt lat="43.4951508" lon="10.5965897"><ele>436.0</ele><time>2026-04-04T10:46:34.729Z</time></trkpt><trkpt lat="43.4950659" lon="10.5966002"><ele>437.1666666666667</ele><time>2026-04-04T10:46:35.732Z</time></trkpt><trkpt lat="43.4949936" lon="10.5966361"><ele>438.33333333333337</ele><time>2026-04-04T10:46:36.726Z</time></trkpt><trkpt lat="43.4949323" lon="10.596666"><ele>439.5</ele><time>2026-04-04T10:46:37.727Z</time></trkpt><trkpt lat="43.4948649" lon="10.5966637"><ele>440.66666666666663</ele><time>2026-04-04T10:46:39.73Z</time></trkpt><trkpt lat="43.4947775" lon="10.596653"><ele>441.8333333333333</ele><time>2026-04-04T10:46:41.726Z</time></trkpt><trkpt lat="43.4947799" lon="10.596855"><ele>443.0</ele><time>2026-04-04T10:46:49.722Z</time></trkpt><trkpt lat="43.4948092" lon="10.5969468"><ele>441.3333333333333</ele><time>2026-04-04T10:46:50.732Z</time></trkpt><trkpt lat="43.4948633" lon="10.597028"><ele>439.66666666666663</ele><time>2026-04-04T10:46:51.727Z</time></trkpt><trkpt lat="43.4948705" lon="10.5971498"><ele>438.0</ele><time>2026-04-04T10:46:53.729Z</time></trkpt><trkpt lat="43.4948379" lon="10.5972586"><ele>436.33333333333337</ele><time>2026-04-04T10:46:55.728Z</time></trkpt><trkpt lat="43.4947753" lon="10.5973154"><ele>434.6666666666667</ele><time>2026-04-04T10:46:57.73Z</time></trkpt><trkpt lat="43.4946967" lon="10.597333"><ele>433.0</ele><time>2026-04-04T10:46:59.731Z</time></trkpt><trkpt lat="43.4945771" lon="10.5973251"><ele>436.83333333333337</ele><time>2026-04-04T10:47:01.734Z</time></trkpt><trkpt lat="43.4944861" lon="10.5972962"><ele>440.6666666666667</ele><time>2026-04-04T10:47:03.724Z</time></trkpt><trkpt lat="43.4944163" lon="10.5972703"><ele>444.5</ele><time>2026-04-04T10:47:06.724Z</time></trkpt><trkpt lat="43.4943404" lon="10.5972138"><ele>448.33333333333337</ele><time>2026-04-04T10:47:08.73Z</time></trkpt><trkpt lat="43.4942514" lon="10.5971629"><ele>452.1666666666667</ele><time>2026-04-04T10:47:10.717Z</time></trkpt><trkpt lat="43.4941928" lon="10.5971016"><ele>456.0</ele><time>2026-04-04T10:47:11.729Z</time></trkpt><trkpt lat="43.4941045" lon="10.5969971"><ele>457.20000000000005</ele><time>2026-04-04T10:47:13.726Z</time></trkpt><trkpt lat="43.4940672" lon="10.5969247"><ele>458.40000000000003</ele><time>2026-04-04T10:47:14.724Z</time></trkpt><trkpt lat="43.4940031" lon="10.5968104"><ele>459.6</ele><time>2026-04-04T10:47:16.73Z</time></trkpt><trkpt lat="43.4939312" lon="10.5967121"><ele>460.8</ele><time>2026-04-04T10:47:17.726Z</time></trkpt><trkpt lat="43.4938478" lon="10.5966035"><ele>462.0</ele><time>2026-04-04T10:47:18.721Z</time></trkpt><trkpt lat="43.4937912" lon="10.5964935"><ele>465.6</ele><time>2026-04-04T10:47:19.713Z</time></trkpt><trkpt lat="43.4937256" lon="10.5963982"><ele>469.20000000000005</ele><time>2026-04-04T10:47:20.724Z</time></trkpt><trkpt lat="43.4936747" lon="10.5963114"><ele>472.8</ele><time>2026-04-04T10:47:21.735Z</time></trkpt><trkpt lat="43.493626" lon="10.5962031"><ele>476.4</ele><time>2026-04-04T10:47:22.721Z</time></trkpt><trkpt lat="43.4935862" lon="10.5959969"><ele>480.0</ele><time>2026-04-04T10:47:24.716Z</time></trkpt><trkpt lat="43.4935365" lon="10.5958569"><ele>480.75</ele><time>2026-04-04T10:47:26.714Z</time></trkpt><trkpt lat="43.493491" lon="10.5957706"><ele>481.5</ele><time>2026-04-04T10:47:27.729Z</time></trkpt><trkpt lat="43.4934491" lon="10.5957003"><ele>482.25</ele><time>2026-04-04T10:47:28.73Z</time></trkpt><trkpt lat="43.4933007" lon="10.5955059"><ele>483.0</ele><time>2026-04-04T10:47:31.735Z</time></trkpt><trkpt lat="43.493166" lon="10.5954764"><ele>483.0</ele><time>2026-04-04T10:47:48.728Z</time></trkpt><trkpt lat="43.4930616" lon="10.5954711"><ele>483.0</ele><time>2026-04-04T10:47:49.735Z</time></trkpt><trkpt lat="43.4929737" lon="10.5954933"><ele>483.0</ele><time>2026-04-04T10:48:42.72Z</time></trkpt><trkpt lat="43.4929559" lon="10.5955791"><ele>483.0</ele><time>2026-04-04T10:48:43.737Z</time></trkpt><trkpt lat="43.4929349" lon="10.5956879"><ele>483.0</ele><time>2026-04-04T10:48:44.729Z</time></trkpt><trkpt lat="43.4928942" lon="10.5958205"><ele>483.0</ele><time>2026-04-04T10:48:45.735Z</time></trkpt><trkpt lat="43.4928619" lon="10.5959887"><ele>484.25</ele><time>2026-04-04T10:48:46.73Z</time></trkpt><trkpt lat="43.4928179" lon="10.5961648"><ele>485.5</ele><time>2026-04-04T10:48:47.734Z</time></trkpt><trkpt lat="43.4927774" lon="10.5963164"><ele>486.75</ele><time>2026-04-04T10:48:48.732Z</time></trkpt><trkpt lat="43.4926992" lon="10.596414"><ele>488.0</ele><time>2026-04-04T10:48:49.726Z</time></trkpt><trkpt lat="43.4926059" lon="10.5964955"><ele>488.0</ele><time>2026-04-04T10:48:50.723Z</time></trkpt><trkpt lat="43.4925248" lon="10.5965711"><ele>487.99999999999994</ele><time>2026-04-04T10:48:51.719Z</time></trkpt><trkpt lat="43.4924619" lon="10.5966232"><ele>487.99999999999994</ele><time>2026-04-04T10:48:52.722Z</time></trkpt><trkpt lat="43.4923936" lon="10.5967223"><ele>488.0</ele><time>2026-04-04T10:48:54.735Z</time></trkpt><trkpt lat="43.492368" lon="10.5968667"><ele>488.0</ele><time>2026-04-04T10:48:56.728Z</time></trkpt><trkpt lat="43.4923672" lon="10.5969852"><ele>487.0</ele><time>2026-04-04T10:48:57.736Z</time></trkpt><trkpt lat="43.4923727" lon="10.5971129"><ele>485.99999999999994</ele><time>2026-04-04T10:48:58.727Z</time></trkpt><trkpt lat="43.4923641" lon="10.5972197"><ele>484.99999999999994</ele><time>2026-04-04T10:48:59.738Z</time></trkpt><trkpt lat="43.4923139" lon="10.5973973"><ele>484.0</ele><time>2026-04-04T10:49:01.725Z</time></trkpt><trkpt lat="43.4923072" lon="10.5975059"><ele>483.0</ele><time>2026-04-04T10:49:02.734Z</time></trkpt><trkpt lat="43.4923036" lon="10.5976483"><ele>483.0</ele><time>2026-04-04T10:49:03.731Z</time></trkpt><trkpt lat="43.4922931" lon="10.5977821"><ele>482.99999999999994</ele><time>2026-04-04T10:49:04.723Z</time></trkpt><trkpt lat="43.4922641" lon="10.5979233"><ele>482.99999999999994</ele><time>2026-04-04T10:49:05.728Z</time></trkpt><trkpt lat="43.4921989" lon="10.5980152"><ele>483.0</ele><time>2026-04-04T10:49:06.73Z</time></trkpt><trkpt lat="43.4921399" lon="10.5981097"><ele>483.0</ele><time>2026-04-04T10:49:07.726Z</time></trkpt><trkpt lat="43.4920942" lon="10.598227"><ele>481.2</ele><time>2026-04-04T10:49:09.725Z</time></trkpt><trkpt lat="43.4920677" lon="10.5983494"><ele>479.4</ele><time>2026-04-04T10:49:11.728Z</time></trkpt><trkpt lat="43.4920368" lon="10.5984719"><ele>477.59999999999997</ele><time>2026-04-04T10:49:12.733Z</time></trkpt><trkpt lat="43.4920092" lon="10.5986312"><ele>475.79999999999995</ele><time>2026-04-04T10:49:13.733Z</time></trkpt><trkpt lat="43.4919817" lon="10.5987956"><ele>474.0</ele><time>2026-04-04T10:49:14.735Z</time></trkpt><trkpt lat="43.491969" lon="10.5989543"><ele>472.5</ele><time>2026-04-04T10:49:15.727Z</time></trkpt><trkpt lat="43.491973" lon="10.5991249"><ele>471.0</ele><time>2026-04-04T10:49:16.723Z</time></trkpt><trkpt lat="43.4919758" lon="10.5992943"><ele>469.5</ele><time>2026-04-04T10:49:17.726Z</time></trkpt><trkpt lat="43.4919735" lon="10.5994551"><ele>468.0</ele><time>2026-04-04T10:49:18.742Z</time></trkpt><trkpt lat="43.4919733" lon="10.5996052"><ele>467.79999999999995</ele><time>2026-04-04T10:49:19.731Z</time></trkpt><trkpt lat="43.4920061" lon="10.5997355"><ele>467.59999999999997</ele><time>2026-04-04T10:49:20.728Z</time></trkpt><trkpt lat="43.4920387" lon="10.5998601"><ele>467.40000000000003</ele><time>2026-04-04T10:49:21.728Z</time></trkpt><trkpt lat="43.4920973" lon="10.5999621"><ele>467.20000000000005</ele><time>2026-04-04T10:49:22.732Z</time></trkpt><trkpt lat="43.4921887" lon="10.6000265"><ele>467.0</ele><time>2026-04-04T10:49:23.731Z</time></trkpt><trkpt lat="43.4922845" lon="10.6000935"><ele>467.0</ele><time>2026-04-04T10:49:24.718Z</time></trkpt><trkpt lat="43.49237" lon="10.600175"><ele>467.00000000000006</ele><time>2026-04-04T10:49:25.736Z</time></trkpt><trkpt lat="43.4924204" lon="10.6002864"><ele>467.00000000000006</ele><time>2026-04-04T10:49:26.744Z</time></trkpt><trkpt lat="43.4924538" lon="10.6003892"><ele>467.0</ele><time>2026-04-04T10:49:27.719Z</time></trkpt><trkpt lat="43.4924825" lon="10.6005031"><ele>467.0</ele><time>2026-04-04T10:49:28.727Z</time></trkpt><trkpt lat="43.4925295" lon="10.6006201"><ele>466.0</ele><time>2026-04-04T10:49:29.733Z</time></trkpt><trkpt lat="43.4925824" lon="10.6007482"><ele>465.0</ele><time>2026-04-04T10:49:30.728Z</time></trkpt><trkpt lat="43.4926612" lon="10.600877"><ele>464.0</ele><time>2026-04-04T10:49:31.727Z</time></trkpt><trkpt lat="43.4927458" lon="10.6010067"><ele>463.0</ele><time>2026-04-04T10:49:32.729Z</time></trkpt><trkpt lat="43.4928395" lon="10.6011077"><ele>463.75</ele><time>2026-04-04T10:49:33.729Z</time></trkpt><trkpt lat="43.4929318" lon="10.6012092"><ele>464.5</ele><time>2026-04-04T10:49:34.733Z</time></trkpt><trkpt lat="43.4930351" lon="10.6012857"><ele>465.25</ele><time>2026-04-04T10:49:35.734Z</time></trkpt><trkpt lat="43.493142" lon="10.6013595"><ele>466.0</ele><time>2026-04-04T10:49:36.735Z</time></trkpt><trkpt lat="43.4932492" lon="10.6014376"><ele>466.0</ele><time>2026-04-04T10:49:37.729Z</time></trkpt><trkpt lat="43.4933562" lon="10.6015269"><ele>466.0</ele><time>2026-04-04T10:49:38.729Z</time></trkpt><trkpt lat="43.4934433" lon="10.6016339"><ele>466.0</ele><time>2026-04-04T10:49:39.732Z</time></trkpt><trkpt lat="43.4935351" lon="10.6017466"><ele>466.0</ele><time>2026-04-04T10:49:40.729Z</time></trkpt><trkpt lat="43.4936138" lon="10.6018449"><ele>466.00000000000006</ele><time>2026-04-04T10:49:41.732Z</time></trkpt><trkpt lat="43.4936754" lon="10.6019423"><ele>466.0</ele><time>2026-04-04T10:49:42.735Z</time></trkpt><trkpt lat="43.4937072" lon="10.6020251"><ele>466.0</ele><time>2026-04-04T10:49:43.727Z</time></trkpt><trkpt lat="43.4937175" lon="10.6021514"><ele>466.0</ele><time>2026-04-04T10:49:45.718Z</time></trkpt><trkpt lat="43.4936651" lon="10.6022369"><ele>466.00000000000006</ele><time>2026-04-04T10:49:48.737Z</time></trkpt><trkpt lat="43.4935686" lon="10.6021601"><ele>466.0</ele><time>2026-04-04T10:52:18.724Z</time></trkpt><trkpt lat="43.493638" lon="10.6021994"><ele>466.6</ele><time>2026-04-04T10:52:20.75Z</time></trkpt><trkpt lat="43.4936912" lon="10.6022892"><ele>467.20000000000005</ele><time>2026-04-04T10:52:21.723Z</time></trkpt><trkpt lat="43.4937361" lon="10.6024121"><ele>467.79999999999995</ele><time>2026-04-04T10:52:22.731Z</time></trkpt><trkpt lat="43.4937757" lon="10.6025582"><ele>468.4</ele><time>2026-04-04T10:52:23.73Z</time></trkpt><trkpt lat="43.49381" lon="10.6027124"><ele>469.0</ele><time>2026-04-04T10:52:24.727Z</time></trkpt><trkpt lat="43.4938426" lon="10.6028545"><ele>469.0</ele><time>2026-04-04T10:52:25.727Z</time></trkpt><trkpt lat="43.4938722" lon="10.6029895"><ele>469.0</ele><time>2026-04-04T10:52:26.733Z</time></trkpt><trkpt lat="43.4939105" lon="10.6031105"><ele>469.0</ele><time>2026-04-04T10:52:27.734Z</time></trkpt><trkpt lat="43.4939752" lon="10.6032415"><ele>469.0</ele><time>2026-04-04T10:52:28.735Z</time></trkpt><trkpt lat="43.4940529" lon="10.6033826"><ele>469.0</ele><time>2026-04-04T10:52:29.733Z</time></trkpt><trkpt lat="43.4941304" lon="10.6035238"><ele>469.0</ele><time>2026-04-04T10:52:30.735Z</time></trkpt><trkpt lat="43.4942165" lon="10.6036425"><ele>469.0</ele><time>2026-04-04T10:52:31.732Z</time></trkpt><trkpt lat="43.494295" lon="10.6037508"><ele>469.0</ele><time>2026-04-04T10:52:32.727Z</time></trkpt><trkpt lat="43.4943696" lon="10.6038498"><ele>469.0</ele><time>2026-04-04T10:52:33.735Z</time></trkpt><trkpt lat="43.4944361" lon="10.6039401"><ele>469.0</ele><time>2026-04-04T10:52:34.726Z</time></trkpt><trkpt lat="43.4945119" lon="10.6040173"><ele>469.00000000000006</ele><time>2026-04-04T10:52:35.725Z</time></trkpt><trkpt lat="43.494591" lon="10.6040918"><ele>469.0</ele><time>2026-04-04T10:52:36.732Z</time></trkpt><trkpt lat="43.4946773" lon="10.6041379"><ele>469.0</ele><time>2026-04-04T10:52:37.735Z</time></trkpt><trkpt lat="43.4947584" lon="10.6041494"><ele>469.0</ele><time>2026-04-04T10:52:38.727Z</time></trkpt><trkpt lat="43.4948445" lon="10.6041282"><ele>469.00000000000006</ele><time>2026-04-04T10:52:39.737Z</time></trkpt><trkpt lat="43.4949317" lon="10.6041085"><ele>469.0</ele><time>2026-04-04T10:52:40.735Z</time></trkpt><trkpt lat="43.4950238" lon="10.6040934"><ele>469.0</ele><time>2026-04-04T10:52:41.73Z</time></trkpt><trkpt lat="43.4950929" lon="10.6040889"><ele>469.0</ele><time>2026-04-04T10:52:42.718Z</time></trkpt><trkpt lat="43.495157" lon="10.6040894"><ele>469.0</ele><time>2026-04-04T10:52:43.73Z</time></trkpt><trkpt lat="43.4952307" lon="10.6041392"><ele>469.0</ele><time>2026-04-04T10:52:45.736Z</time></trkpt><trkpt lat="43.4952855" lon="10.6042103"><ele>469.0</ele><time>2026-04-04T10:52:47.725Z</time></trkpt><trkpt lat="43.4953305" lon="10.6042931"><ele>469.0</ele><time>2026-04-04T10:52:49.729Z</time></trkpt><trkpt lat="43.4953709" lon="10.6043882"><ele>469.0</ele><time>2026-04-04T10:52:51.734Z</time></trkpt><trkpt lat="43.4954" lon="10.6045083"><ele>467.50000000000006</ele><time>2026-04-04T10:52:53.73Z</time></trkpt><trkpt lat="43.4954233" lon="10.6046665"><ele>466.0</ele><time>2026-04-04T10:52:55.723Z</time></trkpt><trkpt lat="43.4954302" lon="10.6047555"><ele>464.5</ele><time>2026-04-04T10:52:56.725Z</time></trkpt><trkpt lat="43.4954341" lon="10.604848"><ele>463.0</ele><time>2026-04-04T10:52:57.722Z</time></trkpt><trkpt lat="43.4954383" lon="10.60495"><ele>461.50000000000006</ele><time>2026-04-04T10:52:58.73Z</time></trkpt><trkpt lat="43.4954446" lon="10.6050605"><ele>460.0</ele><time>2026-04-04T10:52:59.74Z</time></trkpt><trkpt lat="43.4954511" lon="10.6051742"><ele>460.00000000000006</ele><time>2026-04-04T10:53:00.73Z</time></trkpt><trkpt lat="43.4954606" lon="10.6052963"><ele>460.0</ele><time>2026-04-04T10:53:01.732Z</time></trkpt><trkpt lat="43.4954797" lon="10.6054111"><ele>460.0</ele><time>2026-04-04T10:53:02.731Z</time></trkpt><trkpt lat="43.4955101" lon="10.6055199"><ele>460.0</ele><time>2026-04-04T10:53:03.733Z</time></trkpt><trkpt lat="43.4955463" lon="10.6056325"><ele>460.00000000000006</ele><time>2026-04-04T10:53:04.735Z</time></trkpt><trkpt lat="43.4955881" lon="10.6057529"><ele>460.0</ele><time>2026-04-04T10:53:05.726Z</time></trkpt><trkpt lat="43.4956409" lon="10.6058722"><ele>460.83333333333337</ele><time>2026-04-04T10:53:06.73Z</time></trkpt><trkpt lat="43.495691" lon="10.6059945"><ele>461.6666666666667</ele><time>2026-04-04T10:53:07.726Z</time></trkpt><trkpt lat="43.4957362" lon="10.6061076"><ele>462.5</ele><time>2026-04-04T10:53:08.715Z</time></trkpt><trkpt lat="43.4957539" lon="10.6062064"><ele>463.33333333333337</ele><time>2026-04-04T10:53:09.735Z</time></trkpt><trkpt lat="43.4957701" lon="10.6063037"><ele>464.1666666666667</ele><time>2026-04-04T10:53:10.721Z</time></trkpt><trkpt lat="43.4957854" lon="10.6063999"><ele>465.0</ele><time>2026-04-04T10:53:11.719Z</time></trkpt><trkpt lat="43.4957836" lon="10.6065037"><ele>465.5</ele><time>2026-04-04T10:53:12.729Z</time></trkpt><trkpt lat="43.4957697" lon="10.6065972"><ele>466.0</ele><time>2026-04-04T10:53:13.73Z</time></trkpt><trkpt lat="43.495743" lon="10.6067509"><ele>466.5</ele><time>2026-04-04T10:53:15.735Z</time></trkpt><trkpt lat="43.495762" lon="10.6068471"><ele>467.0</ele><time>2026-04-04T10:53:17.728Z</time></trkpt><trkpt lat="43.4958548" lon="10.6068718"><ele>467.5</ele><time>2026-04-04T10:53:19.733Z</time></trkpt><trkpt lat="43.4959504" lon="10.6068887"><ele>468.0</ele><time>2026-04-04T10:53:21.734Z</time></trkpt><trkpt lat="43.4953709" lon="10.6043882"><ele>467.1666666666667</ele><time>2026-04-04T10:52:51.734Z</time></trkpt><trkpt lat="43.4954" lon="10.6045083"><ele>466.33333333333337</ele><time>2026-04-04T10:52:53.73Z</time></trkpt><trkpt lat="43.4954233" lon="10.6046665"><ele>465.5</ele><time>2026-04-04T10:52:55.723Z</time></trkpt><trkpt lat="43.4954302" lon="10.6047555"><ele>464.6666666666667</ele><time>2026-04-04T10:52:56.725Z</time></trkpt><trkpt lat="43.4954341" lon="10.604848"><ele>463.83333333333337</ele><time>2026-04-04T10:52:57.722Z</time></trkpt><trkpt lat="43.4954383" lon="10.60495"><ele>463.0</ele><time>2026-04-04T10:52:58.73Z</time></trkpt><trkpt lat="43.4954446" lon="10.6050605"><ele>463.33333333333337</ele><time>2026-04-04T10:52:59.74Z</time></trkpt><trkpt lat="43.4954511" lon="10.6051742"><ele>463.6666666666667</ele><time>2026-04-04T10:53:00.73Z</time></trkpt><trkpt lat="43.4954606" lon="10.6052963"><ele>464.0</ele><time>2026-04-04T10:53:01.732Z</time></trkpt><trkpt lat="43.4954797" lon="10.6054111"><ele>464.33333333333337</ele><time>2026-04-04T10:53:02.731Z</time></trkpt><trkpt lat="43.4955101" lon="10.6055199"><ele>464.6666666666667</ele><time>2026-04-04T10:53:03.733Z</time></trkpt><trkpt lat="43.4955463" lon="10.6056325"><ele>465.0</ele><time>2026-04-04T10:53:04.735Z</time></trkpt><trkpt lat="43.4955881" lon="10.6057529"><ele>465.0</ele><time>2026-04-04T10:53:05.726Z</time></trkpt><trkpt lat="43.4956409" lon="10.6058722"><ele>465.0</ele><time>2026-04-04T10:53:06.73Z</time></trkpt><trkpt lat="43.495691" lon="10.6059945"><ele>465.0</ele><time>2026-04-04T10:53:07.726Z</time></trkpt><trkpt lat="43.4957362" lon="10.6061076"><ele>465.0</ele><time>2026-04-04T10:53:08.715Z</time></trkpt><trkpt lat="43.4957539" lon="10.6062064"><ele>465.0</ele><time>2026-04-04T10:53:09.735Z</time></trkpt><trkpt lat="43.4957701" lon="10.6063037"><ele>465.0</ele><time>2026-04-04T10:53:10.721Z</time></trkpt><trkpt lat="43.4957854" lon="10.6063999"><ele>465.5</ele><time>2026-04-04T10:53:11.719Z</time></trkpt><trkpt lat="43.4957836" lon="10.6065037"><ele>466.0</ele><time>2026-04-04T10:53:12.729Z</time></trkpt><trkpt lat="43.4957697" lon="10.6065972"><ele>466.5</ele><time>2026-04-04T10:53:13.73Z</time></trkpt><trkpt lat="43.495743" lon="10.6067509"><ele>467.0</ele><time>2026-04-04T10:53:15.735Z</time></trkpt><trkpt lat="43.495762" lon="10.6068471"><ele>467.5</ele><time>2026-04-04T10:53:17.728Z</time></trkpt><trkpt lat="43.4958548" lon="10.6068718"><ele>468.0</ele><time>2026-04-04T10:53:19.733Z</time></trkpt><trkpt lat="43.4959504" lon="10.6068887"><ele>468.0</ele><time>2026-04-04T10:53:21.734Z</time></trkpt><trkpt lat="43.4960268" lon="10.6069459"><ele>468.0</ele><time>2026-04-04T10:53:23.729Z</time></trkpt><trkpt lat="43.4960569" lon="10.6070294"><ele>468.0</ele><time>2026-04-04T10:53:25.72Z</time></trkpt><trkpt lat="43.4960071" lon="10.6071161"><ele>468.0</ele><time>2026-04-04T10:53:27.727Z</time></trkpt><trkpt lat="43.4959556" lon="10.6072206"><ele>468.0</ele><time>2026-04-04T10:53:29.731Z</time></trkpt><trkpt lat="43.4959271" lon="10.607315"><ele>468.0</ele><time>2026-04-04T10:53:30.734Z</time></trkpt><trkpt lat="43.4958882" lon="10.6074049"><ele>466.8333333333333</ele><time>2026-04-04T10:53:31.717Z</time></trkpt><trkpt lat="43.4958521" lon="10.6075112"><ele>465.66666666666663</ele><time>2026-04-04T10:53:32.722Z</time></trkpt><trkpt lat="43.495846" lon="10.607642"><ele>464.5</ele><time>2026-04-04T10:53:33.732Z</time></trkpt><trkpt lat="43.4958526" lon="10.6077703"><ele>463.3333333333333</ele><time>2026-04-04T10:53:34.721Z</time></trkpt><trkpt lat="43.4958461" lon="10.6078878"><ele>462.16666666666663</ele><time>2026-04-04T10:53:35.724Z</time></trkpt><trkpt lat="43.4958281" lon="10.6079835"><ele>461.0</ele><time>2026-04-04T10:53:36.725Z</time></trkpt><trkpt lat="43.4957971" lon="10.6080596"><ele>460.20000000000005</ele><time>2026-04-04T10:53:37.724Z</time></trkpt><trkpt lat="43.4957322" lon="10.6082067"><ele>459.40000000000003</ele><time>2026-04-04T10:53:39.726Z</time></trkpt><trkpt lat="43.4956654" lon="10.6083447"><ele>458.6</ele><time>2026-04-04T10:53:41.724Z</time></trkpt><trkpt lat="43.4956291" lon="10.608416"><ele>457.8</ele><time>2026-04-04T10:53:42.735Z</time></trkpt><trkpt lat="43.4955481" lon="10.6085319"><ele>457.0</ele><time>2026-04-04T10:53:44.73Z</time></trkpt><trkpt lat="43.4954905" lon="10.6085899"><ele>457.00000000000006</ele><time>2026-04-04T10:53:45.727Z</time></trkpt><trkpt lat="43.4954315" lon="10.6086509"><ele>457.0</ele><time>2026-04-04T10:53:46.735Z</time></trkpt><trkpt lat="43.4953679" lon="10.608695"><ele>457.00000000000006</ele><time>2026-04-04T10:53:47.749Z</time></trkpt><trkpt lat="43.4953062" lon="10.60872"><ele>457.00000000000006</ele><time>2026-04-04T10:53:48.732Z</time></trkpt><trkpt lat="43.4952413" lon="10.6087505"><ele>457.0</ele><time>2026-04-04T10:53:49.725Z</time></trkpt><trkpt lat="43.4951864" lon="10.6088055"><ele>457.00000000000006</ele><time>2026-04-04T10:53:50.723Z</time></trkpt><trkpt lat="43.4951411" lon="10.6088785"><ele>457.00000000000006</ele><time>2026-04-04T10:53:51.715Z</time></trkpt><trkpt lat="43.4951356" lon="10.6089659"><ele>454.1428571428572</ele><time>2026-04-04T10:53:52.716Z</time></trkpt><trkpt lat="43.4951497" lon="10.6090542"><ele>451.28571428571433</ele><time>2026-04-04T10:53:53.72Z</time></trkpt><trkpt lat="43.4951643" lon="10.6091454"><ele>448.42857142857144</ele><time>2026-04-04T10:53:54.733Z</time></trkpt><trkpt lat="43.4951855" lon="10.6092407"><ele>445.5714285714286</ele><time>2026-04-04T10:53:55.731Z</time></trkpt><trkpt lat="43.4952118" lon="10.6093371"><ele>442.7142857142858</ele><time>2026-04-04T10:53:56.738Z</time></trkpt><trkpt lat="43.4952424" lon="10.6094293"><ele>439.85714285714283</ele><time>2026-04-04T10:53:57.747Z</time></trkpt><trkpt lat="43.4952694" lon="10.6095222"><ele>437.0</ele><time>2026-04-04T10:53:58.735Z</time></trkpt><trkpt lat="43.4952947" lon="10.6096098"><ele>434.6</ele><time>2026-04-04T10:53:59.73Z</time></trkpt><trkpt lat="43.4953541" lon="10.609762"><ele>432.20000000000005</ele><time>2026-04-04T10:54:01.723Z</time></trkpt><trkpt lat="43.495395" lon="10.6098578"><ele>429.8</ele><time>2026-04-04T10:54:02.723Z</time></trkpt><trkpt lat="43.4954418" lon="10.6099555"><ele>427.4</ele><time>2026-04-04T10:54:03.729Z</time></trkpt><trkpt lat="43.4954864" lon="10.6100602"><ele>425.0</ele><time>2026-04-04T10:54:04.728Z</time></trkpt><trkpt lat="43.4955202" lon="10.6101656"><ele>427.2</ele><time>2026-04-04T10:54:05.735Z</time></trkpt><trkpt lat="43.4955437" lon="10.6102751"><ele>429.4</ele><time>2026-04-04T10:54:06.725Z</time></trkpt><trkpt lat="43.4955614" lon="10.6104092"><ele>431.6</ele><time>2026-04-04T10:54:07.735Z</time></trkpt><trkpt lat="43.4955761" lon="10.6105335"><ele>433.8</ele><time>2026-04-04T10:54:08.737Z</time></trkpt><trkpt lat="43.4955854" lon="10.6106542"><ele>436.0</ele><time>2026-04-04T10:54:09.721Z</time></trkpt><trkpt lat="43.4955199" lon="10.6107863"><ele>436.00000000000006</ele><time>2026-04-04T10:54:11.732Z</time></trkpt><trkpt lat="43.4954568" lon="10.6108301"><ele>436.0</ele><time>2026-04-04T10:54:13.719Z</time></trkpt><trkpt lat="43.4953957" lon="10.6107585"><ele>436.0</ele><time>2026-04-04T10:54:16.727Z</time></trkpt><trkpt lat="43.4953604" lon="10.6106528"><ele>436.0</ele><time>2026-04-04T10:54:18.725Z</time></trkpt><trkpt lat="43.4953071" lon="10.6105713"><ele>436.00000000000006</ele><time>2026-04-04T10:54:20.724Z</time></trkpt><trkpt lat="43.4952515" lon="10.6104929"><ele>436.0</ele><time>2026-04-04T10:54:22.734Z</time></trkpt><trkpt lat="43.4951814" lon="10.6103921"><ele>434.1666666666667</ele><time>2026-04-04T10:54:24.73Z</time></trkpt><trkpt lat="43.4951078" lon="10.6102762"><ele>432.33333333333337</ele><time>2026-04-04T10:54:26.731Z</time></trkpt><trkpt lat="43.4950355" lon="10.6101929"><ele>430.5</ele><time>2026-04-04T10:54:28.727Z</time></trkpt><trkpt lat="43.4949751" lon="10.6101184"><ele>428.66666666666663</ele><time>2026-04-04T10:54:30.729Z</time></trkpt><trkpt lat="43.4949155" lon="10.6100578"><ele>426.8333333333333</ele><time>2026-04-04T10:54:32.728Z</time></trkpt><trkpt lat="43.4948408" lon="10.609996"><ele>425.0</ele><time>2026-04-04T10:54:34.725Z</time></trkpt><trkpt lat="43.4947841" lon="10.609952"><ele>425.0</ele><time>2026-04-04T10:54:35.728Z</time></trkpt><trkpt lat="43.4947199" lon="10.6099066"><ele>425.0</ele><time>2026-04-04T10:54:36.72Z</time></trkpt><trkpt lat="43.4946224" lon="10.6098378"><ele>425.0</ele><time>2026-04-04T10:54:38.734Z</time></trkpt><trkpt lat="43.4945496" lon="10.6097957"><ele>425.0</ele><time>2026-04-04T10:54:40.728Z</time></trkpt><trkpt lat="43.494417" lon="10.6097491"><ele>425.0</ele><time>2026-04-04T10:55:32.733Z</time></trkpt><trkpt lat="43.494341" lon="10.6096851"><ele>422.8</ele><time>2026-04-04T10:55:48.727Z</time></trkpt><trkpt lat="43.4942808" lon="10.6095957"><ele>420.6</ele><time>2026-04-04T10:55:50.732Z</time></trkpt><trkpt lat="43.4942325" lon="10.6095285"><ele>418.4</ele><time>2026-04-04T10:55:52.729Z</time></trkpt><trkpt lat="43.4941711" lon="10.6094482"><ele>416.2</ele><time>2026-04-04T10:55:54.738Z</time></trkpt><trkpt lat="43.4940932" lon="10.6093553"><ele>414.0</ele><time>2026-04-04T10:55:56.735Z</time></trkpt><trkpt lat="43.4939832" lon="10.6093182"><ele>414.0</ele><time>2026-04-04T10:55:58.732Z</time></trkpt><trkpt lat="43.4938914" lon="10.6092876"><ele>414.0</ele><time>2026-04-04T10:56:00.726Z</time></trkpt><trkpt lat="43.4938063" lon="10.6092257"><ele>414.0</ele><time>2026-04-04T10:56:02.73Z</time></trkpt><trkpt lat="43.4937152" lon="10.6091759"><ele>414.0</ele><time>2026-04-04T10:56:04.723Z</time></trkpt><trkpt lat="43.4936173" lon="10.6091563"><ele>414.0</ele><time>2026-04-04T10:56:06.734Z</time></trkpt><trkpt lat="43.4935552" lon="10.6091189"><ele>410.8333333333333</ele><time>2026-04-04T10:56:07.724Z</time></trkpt><trkpt lat="43.4934949" lon="10.609078"><ele>407.66666666666663</ele><time>2026-04-04T10:56:08.729Z</time></trkpt><trkpt lat="43.4934405" lon="10.6090055"><ele>404.5</ele><time>2026-04-04T10:56:09.719Z</time></trkpt><trkpt lat="43.493388" lon="10.6089197"><ele>401.3333333333333</ele><time>2026-04-04T10:56:10.725Z</time></trkpt><trkpt lat="43.4933394" lon="10.6088412"><ele>398.16666666666663</ele><time>2026-04-04T10:56:11.718Z</time></trkpt><trkpt lat="43.4932823" lon="10.6087808"><ele>395.0</ele><time>2026-04-04T10:56:12.73Z</time></trkpt><trkpt lat="43.493207" lon="10.6087293"><ele>394.99999999999994</ele><time>2026-04-04T10:56:13.728Z</time></trkpt><trkpt lat="43.4931255" lon="10.6086607"><ele>395.0</ele><time>2026-04-04T10:56:14.723Z</time></trkpt><trkpt lat="43.4930554" lon="10.6085955"><ele>395.0</ele><time>2026-04-04T10:56:15.729Z</time></trkpt><trkpt lat="43.4929924" lon="10.608536"><ele>395.0</ele><time>2026-04-04T10:56:16.737Z</time></trkpt><trkpt lat="43.4929373" lon="10.6084691"><ele>394.99999999999994</ele><time>2026-04-04T10:56:17.729Z</time></trkpt><trkpt lat="43.4928895" lon="10.6083885"><ele>395.0</ele><time>2026-04-04T10:56:18.732Z</time></trkpt><trkpt lat="43.4928521" lon="10.6082989"><ele>395.66666666666663</ele><time>2026-04-04T10:56:19.728Z</time></trkpt><trkpt lat="43.4928219" lon="10.6082194"><ele>396.3333333333333</ele><time>2026-04-04T10:56:20.738Z</time></trkpt><trkpt lat="43.4927866" lon="10.6081258"><ele>397.0</ele><time>2026-04-04T10:56:21.718Z</time></trkpt><trkpt lat="43.4927577" lon="10.6080485"><ele>397.66666666666663</ele><time>2026-04-04T10:56:22.735Z</time></trkpt><trkpt lat="43.4927554" lon="10.6078886"><ele>398.3333333333333</ele><time>2026-04-04T10:56:24.733Z</time></trkpt><trkpt lat="43.4927796" lon="10.6077768"><ele>399.0</ele><time>2026-04-04T10:56:25.723Z</time></trkpt><trkpt lat="43.4927983" lon="10.607674"><ele>399.0</ele><time>2026-04-04T10:56:26.736Z</time></trkpt><trkpt lat="43.4928017" lon="10.6075779"><ele>399.0</ele><time>2026-04-04T10:56:28.734Z</time></trkpt><trkpt lat="43.4927515" lon="10.6075021"><ele>399.0</ele><time>2026-04-04T10:56:31.726Z</time></trkpt><trkpt lat="43.4926893" lon="10.6074721"><ele>399.0</ele><time>2026-04-04T10:56:32.728Z</time></trkpt><trkpt lat="43.4925709" lon="10.6073947"><ele>399.0</ele><time>2026-04-04T10:56:34.719Z</time></trkpt><trkpt lat="43.4925128" lon="10.6073145"><ele>399.0</ele><time>2026-04-04T10:56:35.74Z</time></trkpt><trkpt lat="43.4924778" lon="10.6072211"><ele>399.0</ele><time>2026-04-04T10:56:36.735Z</time></trkpt><trkpt lat="43.4924429" lon="10.6071403"><ele>399.0</ele><time>2026-04-04T10:56:37.726Z</time></trkpt><trkpt lat="43.4923995" lon="10.6070643"><ele>399.0</ele><time>2026-04-04T10:56:38.727Z</time></trkpt><trkpt lat="43.4923365" lon="10.6069384"><ele>399.0</ele><time>2026-04-04T10:56:40.72Z</time></trkpt><trkpt lat="43.4922493" lon="10.6069167"><ele>399.0</ele><time>2026-04-04T10:56:43.716Z</time></trkpt><trkpt lat="43.4921874" lon="10.6069629"><ele>399.0</ele><time>2026-04-04T10:56:46.729Z</time></trkpt><trkpt lat="43.4920576" lon="10.6070313"><ele>400.5</ele><time>2026-04-04T10:56:49.726Z</time></trkpt><trkpt lat="43.4920403" lon="10.6072044"><ele>402.0</ele><time>2026-04-04T10:56:51.715Z</time></trkpt><trkpt lat="43.4920252" lon="10.6073001"><ele>403.5</ele><time>2026-04-04T10:56:52.742Z</time></trkpt><trkpt lat="43.4920135" lon="10.6073926"><ele>405.0</ele><time>2026-04-04T10:56:53.717Z</time></trkpt><trkpt lat="43.4920206" lon="10.6075149"><ele>406.5</ele><time>2026-04-04T10:56:54.721Z</time></trkpt><trkpt lat="43.4920153" lon="10.6076221"><ele>408.0</ele><time>2026-04-04T10:56:55.724Z</time></trkpt><trkpt lat="43.4920089" lon="10.6077106"><ele>408.0</ele><time>2026-04-04T10:56:56.724Z</time></trkpt><trkpt lat="43.4919351" lon="10.6077772"><ele>408.0</ele><time>2026-04-04T10:56:57.727Z</time></trkpt><trkpt lat="43.4919002" lon="10.6078602"><ele>408.0</ele><time>2026-04-04T10:56:58.733Z</time></trkpt><trkpt lat="43.4918584" lon="10.6079325"><ele>408.0</ele><time>2026-04-04T10:56:59.73Z</time></trkpt><trkpt lat="43.4917377" lon="10.6080306"><ele>408.0</ele><time>2026-04-04T10:57:01.746Z</time></trkpt><trkpt lat="43.4914159" lon="10.608128"><ele>407.79999999999995</ele><time>2026-04-04T10:57:04.728Z</time></trkpt><trkpt lat="43.4913179" lon="10.6081662"><ele>407.6</ele><time>2026-04-04T10:57:05.736Z</time></trkpt><trkpt lat="43.491234" lon="10.6081441"><ele>407.4</ele><time>2026-04-04T10:57:06.724Z</time></trkpt><trkpt lat="43.4911292" lon="10.6080972"><ele>407.20000000000005</ele><time>2026-04-04T10:57:07.733Z</time></trkpt><trkpt lat="43.4910521" lon="10.6080722"><ele>407.0</ele><time>2026-04-04T10:57:08.72Z</time></trkpt><trkpt lat="43.4909725" lon="10.6080277"><ele>406.99999999999994</ele><time>2026-04-04T10:57:09.727Z</time></trkpt><trkpt lat="43.4908848" lon="10.6079708"><ele>407.0</ele><time>2026-04-04T10:57:10.726Z</time></trkpt><trkpt lat="43.4908098" lon="10.60791"><ele>407.0</ele><time>2026-04-04T10:57:11.748Z</time></trkpt><trkpt lat="43.490762" lon="10.607848"><ele>407.0</ele><time>2026-04-04T10:57:12.725Z</time></trkpt><trkpt lat="43.4907223" lon="10.6077522"><ele>406.99999999999994</ele><time>2026-04-04T10:57:13.719Z</time></trkpt><trkpt lat="43.490691" lon="10.6076673"><ele>407.0</ele><time>2026-04-04T10:57:14.725Z</time></trkpt><trkpt lat="43.4906712" lon="10.6075659"><ele>410.40000000000003</ele><time>2026-04-04T10:57:15.73Z</time></trkpt><trkpt lat="43.4906502" lon="10.6074655"><ele>413.8</ele><time>2026-04-04T10:57:16.727Z</time></trkpt><trkpt lat="43.4906349" lon="10.6073696"><ele>417.2</ele><time>2026-04-04T10:57:17.73Z</time></trkpt><trkpt lat="43.4906278" lon="10.607201"><ele>420.6</ele><time>2026-04-04T10:57:19.712Z</time></trkpt><trkpt lat="43.4906338" lon="10.6070509"><ele>424.0</ele><time>2026-04-04T10:57:21.721Z</time></trkpt><trkpt lat="43.4906109" lon="10.6068857"><ele>424.6</ele><time>2026-04-04T10:57:23.727Z</time></trkpt><trkpt lat="43.49059" lon="10.606738"><ele>425.2</ele><time>2026-04-04T10:57:25.737Z</time></trkpt><trkpt lat="43.4905779" lon="10.6066011"><ele>425.80000000000007</ele><time>2026-04-04T10:57:27.726Z</time></trkpt><trkpt lat="43.4905704" lon="10.6065129"><ele>426.40000000000003</ele><time>2026-04-04T10:57:28.722Z</time></trkpt><trkpt lat="43.4905588" lon="10.6064191"><ele>427.0</ele><time>2026-04-04T10:57:29.719Z</time></trkpt><trkpt lat="43.4905182" lon="10.6062801"><ele>427.0</ele><time>2026-04-04T10:57:31.728Z</time></trkpt><trkpt lat="43.4904316" lon="10.6063461"><ele>427.0</ele><time>2026-04-04T10:57:39.735Z</time></trkpt><trkpt lat="43.4903554" lon="10.6064607"><ele>427.0</ele><time>2026-04-04T10:57:41.726Z</time></trkpt><trkpt lat="43.4902942" lon="10.6065338"><ele>427.0</ele><time>2026-04-04T10:57:44.756Z</time></trkpt><trkpt lat="43.4901264" lon="10.6068091"><ele>428.50000000000006</ele><time>2026-04-04T10:57:51.721Z</time></trkpt><trkpt lat="43.4901221" lon="10.6067171"><ele>430.0</ele><time>2026-04-04T11:08:31.729Z</time></trkpt><trkpt lat="43.4901517" lon="10.6066124"><ele>431.5</ele><time>2026-04-04T11:08:33.728Z</time></trkpt><trkpt lat="43.4901533" lon="10.6064532"><ele>433.0</ele><time>2026-04-04T11:08:35.72Z</time></trkpt><trkpt lat="43.4901531" lon="10.6063528"><ele>434.50000000000006</ele><time>2026-04-04T11:08:36.72Z</time></trkpt><trkpt lat="43.490152" lon="10.6062411"><ele>436.0</ele><time>2026-04-04T11:08:37.732Z</time></trkpt><trkpt lat="43.4901543" lon="10.6061323"><ele>438.00000000000006</ele><time>2026-04-04T11:08:38.736Z</time></trkpt><trkpt lat="43.4901539" lon="10.6060179"><ele>440.0</ele><time>2026-04-04T11:08:39.739Z</time></trkpt><trkpt lat="43.4901432" lon="10.6058861"><ele>442.0</ele><time>2026-04-04T11:08:40.728Z</time></trkpt><trkpt lat="43.4901332" lon="10.6057612"><ele>444.0</ele><time>2026-04-04T11:08:41.723Z</time></trkpt><trkpt lat="43.4901296" lon="10.6056448"><ele>446.00000000000006</ele><time>2026-04-04T11:08:42.722Z</time></trkpt><trkpt lat="43.490128" lon="10.605519"><ele>448.0</ele><time>2026-04-04T11:08:44.74Z</time></trkpt><trkpt lat="43.4900924" lon="10.6053895"><ele>447.4</ele><time>2026-04-04T11:08:58.731Z</time></trkpt><trkpt lat="43.4900475" lon="10.6052652"><ele>446.79999999999995</ele><time>2026-04-04T11:09:00.724Z</time></trkpt><trkpt lat="43.4899767" lon="10.6051581"><ele>446.2</ele><time>2026-04-04T11:09:02.732Z</time></trkpt><trkpt lat="43.4898825" lon="10.6051147"><ele>445.6</ele><time>2026-04-04T11:09:04.723Z</time></trkpt><trkpt lat="43.4897978" lon="10.6051788"><ele>445.0</ele><time>2026-04-04T11:09:07.733Z</time></trkpt><trkpt lat="43.4897487" lon="10.6052447"><ele>445.6</ele><time>2026-04-04T11:09:09.737Z</time></trkpt><trkpt lat="43.4896881" lon="10.6053427"><ele>446.2</ele><time>2026-04-04T11:09:12.732Z</time></trkpt><trkpt lat="43.4896503" lon="10.605419"><ele>446.79999999999995</ele><time>2026-04-04T11:09:14.735Z</time></trkpt><trkpt lat="43.4895727" lon="10.6055496"><ele>447.4</ele><time>2026-04-04T11:09:16.746Z</time></trkpt><trkpt lat="43.4895099" lon="10.6056501"><ele>448.0</ele><time>2026-04-04T11:09:18.736Z</time></trkpt><trkpt lat="43.4894454" lon="10.6057812"><ele>451.50000000000006</ele><time>2026-04-04T11:09:21.731Z</time></trkpt><trkpt lat="43.4893685" lon="10.6059308"><ele>455.0</ele><time>2026-04-04T11:09:23.718Z</time></trkpt><trkpt lat="43.4893197" lon="10.6059978"><ele>458.5</ele><time>2026-04-04T11:09:24.731Z</time></trkpt><trkpt lat="43.4892622" lon="10.6060523"><ele>462.0</ele><time>2026-04-04T11:09:25.728Z</time></trkpt><trkpt lat="43.4891957" lon="10.606052"><ele>465.50000000000006</ele><time>2026-04-04T11:09:26.732Z</time></trkpt><trkpt lat="43.4891066" lon="10.6060238"><ele>469.0</ele><time>2026-04-04T11:09:28.732Z</time></trkpt><trkpt lat="43.4890423" lon="10.60601"><ele>469.0</ele><time>2026-04-04T11:09:30.725Z</time></trkpt><trkpt lat="43.4889372" lon="10.6059563"><ele>469.0</ele><time>2026-04-04T11:09:32.719Z</time></trkpt><trkpt lat="43.4888338" lon="10.6059073"><ele>469.0</ele><time>2026-04-04T11:09:34.724Z</time></trkpt><trkpt lat="43.4887457" lon="10.6059412"><ele>469.0</ele><time>2026-04-04T11:09:35.719Z</time></trkpt><trkpt lat="43.4886465" lon="10.6060109"><ele>469.0</ele><time>2026-04-04T11:09:36.733Z</time></trkpt><trkpt lat="43.4885564" lon="10.6060773"><ele>468.4</ele><time>2026-04-04T11:09:37.724Z</time></trkpt><trkpt lat="43.4884728" lon="10.6061476"><ele>467.79999999999995</ele><time>2026-04-04T11:09:38.714Z</time></trkpt><trkpt lat="43.488383" lon="10.6061955"><ele>467.20000000000005</ele><time>2026-04-04T11:09:39.716Z</time></trkpt><trkpt lat="43.4882869" lon="10.6062814"><ele>466.6</ele><time>2026-04-04T11:09:41.726Z</time></trkpt><trkpt lat="43.4882046" lon="10.6063491"><ele>466.0</ele><time>2026-04-04T11:09:43.727Z</time></trkpt><trkpt lat="43.4881415" lon="10.6063527"><ele>466.00000000000006</ele><time>2026-04-04T11:09:46.734Z</time></trkpt><trkpt lat="43.4881068" lon="10.6062678"><ele>466.0</ele><time>2026-04-04T11:09:50.726Z</time></trkpt><trkpt lat="43.4880946" lon="10.60616"><ele>466.0</ele><time>2026-04-04T11:09:54.729Z</time></trkpt><trkpt lat="43.4880939" lon="10.6060487"><ele>466.0</ele><time>2026-04-04T11:09:57.748Z</time></trkpt><trkpt lat="43.4880989" lon="10.6059553"><ele>466.00000000000006</ele><time>2026-04-04T11:09:59.735Z</time></trkpt><trkpt lat="43.4881289" lon="10.6058391"><ele>466.0</ele><time>2026-04-04T11:10:01.719Z</time></trkpt><trkpt lat="43.4881628" lon="10.6056948"><ele>468.50000000000006</ele><time>2026-04-04T11:10:03.725Z</time></trkpt><trkpt lat="43.4881722" lon="10.6055752"><ele>471.0</ele><time>2026-04-04T11:10:06.732Z</time></trkpt><trkpt lat="43.488164" lon="10.6054697"><ele>473.5</ele><time>2026-04-04T11:10:08.732Z</time></trkpt><trkpt lat="43.4881515" lon="10.6053375"><ele>476.0</ele><time>2026-04-04T11:10:10.729Z</time></trkpt><trkpt lat="43.4881346" lon="10.6052519"><ele>478.50000000000006</ele><time>2026-04-04T11:10:11.735Z</time></trkpt><trkpt lat="43.4881172" lon="10.6051632"><ele>481.0</ele><time>2026-04-04T11:10:12.733Z</time></trkpt><trkpt lat="43.4880619" lon="10.6050323"><ele>482.1666666666667</ele><time>2026-04-04T11:10:14.723Z</time></trkpt><trkpt lat="43.4880274" lon="10.604948"><ele>483.33333333333337</ele><time>2026-04-04T11:10:15.723Z</time></trkpt><trkpt lat="43.4879921" lon="10.6048117"><ele>484.5</ele><time>2026-04-04T11:10:17.728Z</time></trkpt><trkpt lat="43.4879761" lon="10.6047178"><ele>485.66666666666663</ele><time>2026-04-04T11:10:18.735Z</time></trkpt><trkpt lat="43.4879597" lon="10.6046212"><ele>486.8333333333333</ele><time>2026-04-04T11:10:19.733Z</time></trkpt><trkpt lat="43.4879255" lon="10.6045255"><ele>488.0</ele><time>2026-04-04T11:10:20.733Z</time></trkpt><trkpt lat="43.4878968" lon="10.6044457"><ele>489.99999999999994</ele><time>2026-04-04T11:10:21.735Z</time></trkpt><trkpt lat="43.4878629" lon="10.6043564"><ele>492.0</ele><time>2026-04-04T11:10:22.727Z</time></trkpt><trkpt lat="43.4878224" lon="10.6042752"><ele>494.0</ele><time>2026-04-04T11:10:23.727Z</time></trkpt><trkpt lat="43.487778" lon="10.6042029"><ele>496.0</ele><time>2026-04-04T11:10:24.738Z</time></trkpt><trkpt lat="43.4876968" lon="10.6041423"><ele>497.99999999999994</ele><time>2026-04-04T11:10:25.733Z</time></trkpt><trkpt lat="43.487613" lon="10.6040702"><ele>500.0</ele><time>2026-04-04T11:10:26.723Z</time></trkpt><trkpt lat="43.4875265" lon="10.6039999"><ele>499.99999999999994</ele><time>2026-04-04T11:10:27.732Z</time></trkpt><trkpt lat="43.4874407" lon="10.6039399"><ele>500.0</ele><time>2026-04-04T11:10:28.724Z</time></trkpt><trkpt lat="43.4873544" lon="10.6039141"><ele>500.0</ele><time>2026-04-04T11:10:29.727Z</time></trkpt><trkpt lat="43.4872639" lon="10.6038894"><ele>500.0</ele><time>2026-04-04T11:10:30.72Z</time></trkpt><trkpt lat="43.4871799" lon="10.6038422"><ele>499.99999999999994</ele><time>2026-04-04T11:10:31.731Z</time></trkpt><trkpt lat="43.4871087" lon="10.6037968"><ele>500.0</ele><time>2026-04-04T11:10:32.73Z</time></trkpt><trkpt lat="43.4870564" lon="10.6037479"><ele>500.6</ele><time>2026-04-04T11:10:33.728Z</time></trkpt><trkpt lat="43.4870106" lon="10.6036772"><ele>501.2</ele><time>2026-04-04T11:10:34.732Z</time></trkpt><trkpt lat="43.48694" lon="10.6035663"><ele>501.79999999999995</ele><time>2026-04-04T11:10:35.737Z</time></trkpt><trkpt lat="43.486849" lon="10.6034458"><ele>502.4</ele><time>2026-04-04T11:10:36.739Z</time></trkpt><trkpt lat="43.4867645" lon="10.6033352"><ele>503.0</ele><time>2026-04-04T11:10:37.722Z</time></trkpt><trkpt lat="43.4867099" lon="10.6032662"><ele>503.0</ele><time>2026-04-04T11:10:38.733Z</time></trkpt><trkpt lat="43.4866607" lon="10.6031288"><ele>502.99999999999994</ele><time>2026-04-04T11:10:40.726Z</time></trkpt><trkpt lat="43.4866507" lon="10.6030198"><ele>502.99999999999994</ele><time>2026-04-04T11:10:41.729Z</time></trkpt><trkpt lat="43.4866692" lon="10.6028974"><ele>503.0</ele><time>2026-04-04T11:10:42.729Z</time></trkpt><trkpt lat="43.4866769" lon="10.6027614"><ele>503.0</ele><time>2026-04-04T11:10:43.732Z</time></trkpt><trkpt lat="43.4866434" lon="10.6026431"><ele>503.3333333333333</ele><time>2026-04-04T11:10:44.731Z</time></trkpt><trkpt lat="43.4866181" lon="10.6025585"><ele>503.66666666666663</ele><time>2026-04-04T11:10:45.718Z</time></trkpt><trkpt lat="43.4865741" lon="10.6024063"><ele>504.0</ele><time>2026-04-04T11:10:47.725Z</time></trkpt><trkpt lat="43.4865193" lon="10.60227"><ele>504.33333333333337</ele><time>2026-04-04T11:10:49.728Z</time></trkpt><trkpt lat="43.4864839" lon="10.6021925"><ele>504.6666666666667</ele><time>2026-04-04T11:10:52.734Z</time></trkpt><trkpt lat="43.4864893" lon="10.6020878"><ele>505.0</ele><time>2026-04-04T11:10:55.732Z</time></trkpt><trkpt lat="43.4864859" lon="10.6019816"><ele>505.1666666666667</ele><time>2026-04-04T11:10:57.721Z</time></trkpt><trkpt lat="43.4864647" lon="10.6018929"><ele>505.33333333333337</ele><time>2026-04-04T11:11:00.731Z</time></trkpt><trkpt lat="43.4864289" lon="10.6018032"><ele>505.5</ele><time>2026-04-04T11:11:02.737Z</time></trkpt><trkpt lat="43.4864026" lon="10.6017217"><ele>505.66666666666663</ele><time>2026-04-04T11:11:04.723Z</time></trkpt><trkpt lat="43.4863977" lon="10.6016131"><ele>505.8333333333333</ele><time>2026-04-04T11:11:06.73Z</time></trkpt><trkpt lat="43.4863904" lon="10.6014718"><ele>506.0</ele><time>2026-04-04T11:11:08.724Z</time></trkpt><trkpt lat="43.4863629" lon="10.6012797"><ele>506.0</ele><time>2026-04-04T11:11:10.733Z</time></trkpt><trkpt lat="43.4863464" lon="10.6011765"><ele>506.0</ele><time>2026-04-04T11:11:11.724Z</time></trkpt><trkpt lat="43.4863177" lon="10.6010609"><ele>506.0</ele><time>2026-04-04T11:11:12.715Z</time></trkpt><trkpt lat="43.4862612" lon="10.600951"><ele>506.0</ele><time>2026-04-04T11:11:13.73Z</time></trkpt><trkpt lat="43.4861963" lon="10.6008309"><ele>506.0</ele><time>2026-04-04T11:11:14.727Z</time></trkpt><trkpt lat="43.4861285" lon="10.6007215"><ele>505.8</ele><time>2026-04-04T11:11:15.726Z</time></trkpt><trkpt lat="43.4860653" lon="10.6006047"><ele>505.6</ele><time>2026-04-04T11:11:16.732Z</time></trkpt><trkpt lat="43.4860158" lon="10.6005071"><ele>505.4</ele><time>2026-04-04T11:11:17.727Z</time></trkpt><trkpt lat="43.4859754" lon="10.6004257"><ele>505.2</ele><time>2026-04-04T11:11:18.724Z</time></trkpt><trkpt lat="43.4858822" lon="10.6003406"><ele>505.0</ele><time>2026-04-04T11:11:20.727Z</time></trkpt><trkpt lat="43.4857874" lon="10.600242"><ele>505.33333333333337</ele><time>2026-04-04T11:11:22.74Z</time></trkpt><trkpt lat="43.4856955" lon="10.6001572"><ele>505.6666666666667</ele><time>2026-04-04T11:11:24.73Z</time></trkpt><trkpt lat="43.4856656" lon="10.600079"><ele>506.0</ele><time>2026-04-04T11:11:25.722Z</time></trkpt><trkpt lat="43.4856438" lon="10.5999976"><ele>506.33333333333337</ele><time>2026-04-04T11:11:26.727Z</time></trkpt><trkpt lat="43.4855745" lon="10.5999315"><ele>506.6666666666667</ele><time>2026-04-04T11:11:28.736Z</time></trkpt><trkpt lat="43.4855423" lon="10.5998549"><ele>507.0</ele><time>2026-04-04T11:11:30.727Z</time></trkpt><trkpt lat="43.4855467" lon="10.5996941"><ele>507.0</ele><time>2026-04-04T11:12:40.722Z</time></trkpt><trkpt lat="43.4856132" lon="10.5996501"><ele>507.00000000000006</ele><time>2026-04-04T11:12:42.73Z</time></trkpt><trkpt lat="43.485718" lon="10.5996235"><ele>507.00000000000006</ele><time>2026-04-04T11:12:43.733Z</time></trkpt><trkpt lat="43.4858409" lon="10.5996066"><ele>507.0</ele><time>2026-04-04T11:12:44.726Z</time></trkpt><trkpt lat="43.4859856" lon="10.5996101"><ele>507.0</ele><time>2026-04-04T11:12:45.726Z</time></trkpt><trkpt lat="43.4861336" lon="10.5996127"><ele>505.33333333333337</ele><time>2026-04-04T11:12:46.74Z</time></trkpt><trkpt lat="43.4862888" lon="10.5996437"><ele>503.6666666666667</ele><time>2026-04-04T11:12:47.73Z</time></trkpt><trkpt lat="43.4864429" lon="10.5996841"><ele>502.0</ele><time>2026-04-04T11:12:48.724Z</time></trkpt><trkpt lat="43.4865962" lon="10.5997331"><ele>502.0</ele><time>2026-04-04T11:12:49.742Z</time></trkpt><trkpt lat="43.4867283" lon="10.5997552"><ele>502.0</ele><time>2026-04-04T11:12:50.718Z</time></trkpt><trkpt lat="43.4868568" lon="10.5997394"><ele>502.0</ele><time>2026-04-04T11:12:51.722Z</time></trkpt><trkpt lat="43.4869895" lon="10.5996579"><ele>502.0</ele><time>2026-04-04T11:12:52.736Z</time></trkpt><trkpt lat="43.4871281" lon="10.5995709"><ele>499.33333333333337</ele><time>2026-04-04T11:12:53.745Z</time></trkpt><trkpt lat="43.4872727" lon="10.5994214"><ele>496.66666666666663</ele><time>2026-04-04T11:12:54.736Z</time></trkpt><trkpt lat="43.4874107" lon="10.5992358"><ele>494.0</ele><time>2026-04-04T11:12:55.726Z</time></trkpt><trkpt lat="43.4875399" lon="10.5990501"><ele>494.0</ele><time>2026-04-04T11:12:56.724Z</time></trkpt><trkpt lat="43.4876465" lon="10.5988763"><ele>494.0</ele><time>2026-04-04T11:12:57.726Z</time></trkpt><trkpt lat="43.4877289" lon="10.5986898"><ele>494.0</ele><time>2026-04-04T11:12:58.723Z</time></trkpt><trkpt lat="43.4878149" lon="10.5984878"><ele>493.66666666666663</ele><time>2026-04-04T11:12:59.745Z</time></trkpt><trkpt lat="43.4878849" lon="10.5982183"><ele>493.33333333333337</ele><time>2026-04-04T11:13:00.737Z</time></trkpt><trkpt lat="43.4879814" lon="10.5979163"><ele>493.0</ele><time>2026-04-04T11:13:01.727Z</time></trkpt><trkpt lat="43.488083" lon="10.5976075"><ele>493.6666666666667</ele><time>2026-04-04T11:13:02.724Z</time></trkpt><trkpt lat="43.4881649" lon="10.5973135"><ele>494.33333333333337</ele><time>2026-04-04T11:13:03.733Z</time></trkpt><trkpt lat="43.488235" lon="10.5970703"><ele>495.0</ele><time>2026-04-04T11:13:04.741Z</time></trkpt><trkpt lat="43.4882992" lon="10.596846"><ele>496.33333333333337</ele><time>2026-04-04T11:13:05.747Z</time></trkpt><trkpt lat="43.4883682" lon="10.5966306"><ele>497.6666666666667</ele><time>2026-04-04T11:13:06.738Z</time></trkpt><trkpt lat="43.4884308" lon="10.5964243"><ele>499.0</ele><time>2026-04-04T11:13:07.724Z</time></trkpt><trkpt lat="43.4884888" lon="10.596236"><ele>499.2</ele><time>2026-04-04T11:13:08.731Z</time></trkpt><trkpt lat="43.4885329" lon="10.5960649"><ele>499.4</ele><time>2026-04-04T11:13:09.736Z</time></trkpt><trkpt lat="43.4885652" lon="10.595913"><ele>499.6</ele><time>2026-04-04T11:13:10.724Z</time></trkpt><trkpt lat="43.4885965" lon="10.5957973"><ele>499.8</ele><time>2026-04-04T11:13:11.725Z</time></trkpt><trkpt lat="43.4886449" lon="10.5957074"><ele>500.0</ele><time>2026-04-04T11:13:12.728Z</time></trkpt><trkpt lat="43.4886854" lon="10.5956309"><ele>498.6</ele><time>2026-04-04T11:13:13.722Z</time></trkpt><trkpt lat="43.4887615" lon="10.5955364"><ele>497.2</ele><time>2026-04-04T11:13:15.74Z</time></trkpt><trkpt lat="43.4888319" lon="10.5954818"><ele>495.79999999999995</ele><time>2026-04-04T11:13:17.727Z</time></trkpt><trkpt lat="43.4889103" lon="10.5954351"><ele>494.4</ele><time>2026-04-04T11:13:19.732Z</time></trkpt><trkpt lat="43.4890043" lon="10.595341"><ele>493.0</ele><time>2026-04-04T11:13:21.729Z</time></trkpt><trkpt lat="43.4890466" lon="10.5951999"><ele>492.50000000000006</ele><time>2026-04-04T11:13:23.728Z</time></trkpt><trkpt lat="43.489075" lon="10.5950969"><ele>492.0</ele><time>2026-04-04T11:13:25.725Z</time></trkpt><trkpt lat="43.4891238" lon="10.5949828"><ele>491.5</ele><time>2026-04-04T11:13:27.727Z</time></trkpt><trkpt lat="43.4891686" lon="10.5949047"><ele>491.0</ele><time>2026-04-04T11:13:28.725Z</time></trkpt><trkpt lat="43.4892015" lon="10.5948189"><ele>490.50000000000006</ele><time>2026-04-04T11:13:29.733Z</time></trkpt><trkpt lat="43.4892132" lon="10.5946683"><ele>490.0</ele><time>2026-04-04T11:13:31.729Z</time></trkpt><trkpt lat="43.4891811" lon="10.5945572"><ele>488.2</ele><time>2026-04-04T11:13:32.737Z</time></trkpt><trkpt lat="43.4891309" lon="10.594449"><ele>486.4</ele><time>2026-04-04T11:13:33.732Z</time></trkpt><trkpt lat="43.4890769" lon="10.5943441"><ele>484.6</ele><time>2026-04-04T11:13:34.734Z</time></trkpt><trkpt lat="43.4890325" lon="10.5942352"><ele>482.8</ele><time>2026-04-04T11:13:35.731Z</time></trkpt><trkpt lat="43.4889992" lon="10.5941272"><ele>481.0</ele><time>2026-04-04T11:13:36.735Z</time></trkpt><trkpt lat="43.4889662" lon="10.5939915"><ele>481.0</ele><time>2026-04-04T11:13:38.719Z</time></trkpt><trkpt lat="43.4889101" lon="10.5938493"><ele>481.0</ele><time>2026-04-04T11:13:40.738Z</time></trkpt><trkpt lat="43.4888511" lon="10.593737"><ele>481.0</ele><time>2026-04-04T11:13:41.732Z</time></trkpt><trkpt lat="43.4888046" lon="10.5936361"><ele>481.0</ele><time>2026-04-04T11:13:42.727Z</time></trkpt><trkpt lat="43.4887555" lon="10.5935103"><ele>481.0</ele><time>2026-04-04T11:13:44.729Z</time></trkpt><trkpt lat="43.4887564" lon="10.5933834"><ele>479.00000000000006</ele><time>2026-04-04T11:13:46.726Z</time></trkpt><trkpt lat="43.4887954" lon="10.5932761"><ele>477.0</ele><time>2026-04-04T11:13:48.727Z</time></trkpt><trkpt lat="43.4888459" lon="10.593175"><ele>475.0</ele><time>2026-04-04T11:13:50.729Z</time></trkpt><trkpt lat="43.4888892" lon="10.5930724"><ele>473.0</ele><time>2026-04-04T11:13:52.721Z</time></trkpt><trkpt lat="43.4889422" lon="10.5929636"><ele>471.00000000000006</ele><time>2026-04-04T11:13:54.741Z</time></trkpt><trkpt lat="43.4889738" lon="10.5928526"><ele>469.0</ele><time>2026-04-04T11:13:56.725Z</time></trkpt><trkpt lat="43.4889658" lon="10.5927052"><ele>467.00000000000006</ele><time>2026-04-04T11:13:58.743Z</time></trkpt><trkpt lat="43.4889482" lon="10.5926164"><ele>465.0</ele><time>2026-04-04T11:13:59.726Z</time></trkpt><trkpt lat="43.4889033" lon="10.592499"><ele>463.0</ele><time>2026-04-04T11:14:01.726Z</time></trkpt><trkpt lat="43.4888974" lon="10.5923982"><ele>461.0</ele><time>2026-04-04T11:14:02.723Z</time></trkpt><trkpt lat="43.488865" lon="10.5922302"><ele>459.00000000000006</ele><time>2026-04-04T11:14:04.741Z</time></trkpt><trkpt lat="43.4888802" lon="10.5921449"><ele>457.0</ele><time>2026-04-04T11:14:05.735Z</time></trkpt><trkpt lat="43.4888873" lon="10.5919342"><ele>455.20000000000005</ele><time>2026-04-04T11:14:07.734Z</time></trkpt><trkpt lat="43.4889097" lon="10.5917711"><ele>453.40000000000003</ele><time>2026-04-04T11:14:09.729Z</time></trkpt><trkpt lat="43.4889562" lon="10.5916207"><ele>451.59999999999997</ele><time>2026-04-04T11:14:11.728Z</time></trkpt><trkpt lat="43.4889901" lon="10.5915334"><ele>449.79999999999995</ele><time>2026-04-04T11:14:13.733Z</time></trkpt><trkpt lat="43.4890287" lon="10.5914625"><ele>448.0</ele><time>2026-04-04T11:14:15.723Z</time></trkpt><trkpt lat="43.4890986" lon="10.5913794"><ele>448.00000000000006</ele><time>2026-04-04T11:14:17.733Z</time></trkpt><trkpt lat="43.4890972" lon="10.5912385"><ele>448.0</ele><time>2026-04-04T11:14:19.728Z</time></trkpt><trkpt lat="43.4890435" lon="10.5911147"><ele>448.0</ele><time>2026-04-04T11:14:21.729Z</time></trkpt><trkpt lat="43.4889708" lon="10.5910487"><ele>448.0</ele><time>2026-04-04T11:14:23.729Z</time></trkpt><trkpt lat="43.4889313" lon="10.5909642"><ele>448.00000000000006</ele><time>2026-04-04T11:14:25.737Z</time></trkpt><trkpt lat="43.4889403" lon="10.5908698"><ele>448.0</ele><time>2026-04-04T11:14:29.737Z</time></trkpt><trkpt lat="43.4889918" lon="10.5907641"><ele>445.0</ele><time>2026-04-04T11:14:32.737Z</time></trkpt><trkpt lat="43.4890423" lon="10.5906757"><ele>441.99999999999994</ele><time>2026-04-04T11:14:34.725Z</time></trkpt><trkpt lat="43.489084" lon="10.5905465"><ele>438.99999999999994</ele><time>2026-04-04T11:14:36.724Z</time></trkpt><trkpt lat="43.4891449" lon="10.5904288"><ele>436.0</ele><time>2026-04-04T11:14:38.734Z</time></trkpt><trkpt lat="43.4891743" lon="10.5903223"><ele>433.0</ele><time>2026-04-04T11:14:40.735Z</time></trkpt><trkpt lat="43.4891275" lon="10.5902296"><ele>431.1666666666667</ele><time>2026-04-04T11:14:43.735Z</time></trkpt><trkpt lat="43.4890707" lon="10.590181"><ele>429.33333333333337</ele><time>2026-04-04T11:14:45.737Z</time></trkpt><trkpt lat="43.4890362" lon="10.5900862"><ele>427.5</ele><time>2026-04-04T11:14:47.73Z</time></trkpt><trkpt lat="43.4889867" lon="10.5900179"><ele>425.66666666666663</ele><time>2026-04-04T11:14:49.73Z</time></trkpt><trkpt lat="43.4889348" lon="10.5899631"><ele>423.8333333333333</ele><time>2026-04-04T11:14:51.732Z</time></trkpt><trkpt lat="43.4888657" lon="10.5898611"><ele>422.0</ele><time>2026-04-04T11:14:53.727Z</time></trkpt><trkpt lat="43.488788" lon="10.5897723"><ele>420.8333333333333</ele><time>2026-04-04T11:14:55.728Z</time></trkpt><trkpt lat="43.4886789" lon="10.5897005"><ele>419.66666666666663</ele><time>2026-04-04T11:14:57.756Z</time></trkpt><trkpt lat="43.4886212" lon="10.5896498"><ele>418.5</ele><time>2026-04-04T11:14:58.725Z</time></trkpt><trkpt lat="43.4885349" lon="10.5896016"><ele>417.33333333333337</ele><time>2026-04-04T11:15:00.734Z</time></trkpt><trkpt lat="43.4884631" lon="10.5896092"><ele>416.1666666666667</ele><time>2026-04-04T11:15:02.719Z</time></trkpt><trkpt lat="43.4883876" lon="10.5895504"><ele>415.0</ele><time>2026-04-04T11:15:06.724Z</time></trkpt><trkpt lat="43.4882855" lon="10.589479"><ele>413.6</ele><time>2026-04-04T11:15:08.722Z</time></trkpt><trkpt lat="43.4882082" lon="10.5893694"><ele>412.2</ele><time>2026-04-04T11:15:10.734Z</time></trkpt><trkpt lat="43.4880989" lon="10.5892784"><ele>410.79999999999995</ele><time>2026-04-04T11:15:12.748Z</time></trkpt><trkpt lat="43.4880718" lon="10.5891713"><ele>409.4</ele><time>2026-04-04T11:15:13.726Z</time></trkpt><trkpt lat="43.4880331" lon="10.5890933"><ele>408.0</ele><time>2026-04-04T11:15:14.735Z</time></trkpt><trkpt lat="43.4879781" lon="10.5889407"><ele>408.0</ele><time>2026-04-04T11:15:16.729Z</time></trkpt><trkpt lat="43.4879681" lon="10.5887967"><ele>408.0</ele><time>2026-04-04T11:15:18.726Z</time></trkpt><trkpt lat="43.4879649" lon="10.588702"><ele>408.0</ele><time>2026-04-04T11:15:19.722Z</time></trkpt><trkpt lat="43.4879845" lon="10.5885383"><ele>408.0</ele><time>2026-04-04T11:15:21.731Z</time></trkpt><trkpt lat="43.4880264" lon="10.5884159"><ele>408.0</ele><time>2026-04-04T11:15:23.725Z</time></trkpt><trkpt lat="43.4880121" lon="10.5880149"><ele>405.4</ele><time>2026-04-04T11:15:29.717Z</time></trkpt><trkpt lat="43.4881084" lon="10.5880137"><ele>402.79999999999995</ele><time>2026-04-04T11:15:35.727Z</time></trkpt><trkpt lat="43.4881155" lon="10.5878801"><ele>400.2</ele><time>2026-04-04T11:15:37.73Z</time></trkpt><trkpt lat="43.4881022" lon="10.5877764"><ele>397.6</ele><time>2026-04-04T11:15:38.738Z</time></trkpt><trkpt lat="43.4880979" lon="10.5876556"><ele>395.0</ele><time>2026-04-04T11:15:39.716Z</time></trkpt><trkpt lat="43.488101" lon="10.5875028"><ele>394.2</ele><time>2026-04-04T11:15:40.731Z</time></trkpt><trkpt lat="43.4881208" lon="10.5873662"><ele>393.4</ele><time>2026-04-04T11:15:41.736Z</time></trkpt><trkpt lat="43.4881147" lon="10.5872513"><ele>392.6</ele><time>2026-04-04T11:15:42.729Z</time></trkpt><trkpt lat="43.4881113" lon="10.5871263"><ele>391.8</ele><time>2026-04-04T11:15:43.736Z</time></trkpt><trkpt lat="43.4881093" lon="10.5870309"><ele>391.0</ele><time>2026-04-04T11:15:44.721Z</time></trkpt><trkpt lat="43.4880706" lon="10.5868792"><ele>389.6</ele><time>2026-04-04T11:15:46.724Z</time></trkpt><trkpt lat="43.4880512" lon="10.5867558"><ele>388.20000000000005</ele><time>2026-04-04T11:15:48.724Z</time></trkpt><trkpt lat="43.4880335" lon="10.5866606"><ele>386.79999999999995</ele><time>2026-04-04T11:15:49.73Z</time></trkpt><trkpt lat="43.4879724" lon="10.5865074"><ele>385.4</ele><time>2026-04-04T11:15:50.728Z</time></trkpt><trkpt lat="43.4879046" lon="10.5863765"><ele>384.0</ele><time>2026-04-04T11:15:51.732Z</time></trkpt><trkpt lat="43.4878222" lon="10.5862433"><ele>381.6</ele><time>2026-04-04T11:15:52.74Z</time></trkpt><trkpt lat="43.4877314" lon="10.5861156"><ele>379.2</ele><time>2026-04-04T11:15:53.72Z</time></trkpt><trkpt lat="43.4876519" lon="10.5860073"><ele>376.8</ele><time>2026-04-04T11:15:54.733Z</time></trkpt><trkpt lat="43.4875879" lon="10.5859369"><ele>374.40000000000003</ele><time>2026-04-04T11:15:55.715Z</time></trkpt><trkpt lat="43.4875071" lon="10.5858507"><ele>372.0</ele><time>2026-04-04T11:15:57.73Z</time></trkpt><trkpt lat="43.4874347" lon="10.5857273"><ele>372.0</ele><time>2026-04-04T11:16:19.734Z</time></trkpt><trkpt lat="43.4874263" lon="10.5856411"><ele>372.0</ele><time>2026-04-04T11:17:18.732Z</time></trkpt><trkpt lat="43.4874792" lon="10.5857345"><ele>372.0</ele><time>2026-04-04T11:17:21.728Z</time></trkpt><trkpt lat="43.4874462" lon="10.5859266"><ele>372.0</ele><time>2026-04-04T11:17:23.731Z</time></trkpt><trkpt lat="43.4874149" lon="10.5861039"><ele>372.0</ele><time>2026-04-04T11:17:24.733Z</time></trkpt><trkpt lat="43.48738" lon="10.5862625"><ele>375.0</ele><time>2026-04-04T11:17:25.74Z</time></trkpt><trkpt lat="43.4873255" lon="10.5864083"><ele>378.0</ele><time>2026-04-04T11:17:26.739Z</time></trkpt><trkpt lat="43.487258" lon="10.5865339"><ele>381.0</ele><time>2026-04-04T11:17:27.745Z</time></trkpt><trkpt lat="43.4871859" lon="10.5866512"><ele>384.0</ele><time>2026-04-04T11:17:28.733Z</time></trkpt><trkpt lat="43.4871168" lon="10.5867876"><ele>381.2</ele><time>2026-04-04T11:17:29.731Z</time></trkpt><trkpt lat="43.4870466" lon="10.5869285"><ele>378.4</ele><time>2026-04-04T11:17:30.733Z</time></trkpt><trkpt lat="43.4869771" lon="10.5870558"><ele>375.6</ele><time>2026-04-04T11:17:31.732Z</time></trkpt><trkpt lat="43.4869146" lon="10.5871482"><ele>372.8</ele><time>2026-04-04T11:17:32.727Z</time></trkpt><trkpt lat="43.4868787" lon="10.5872251"><ele>370.0</ele><time>2026-04-04T11:17:33.727Z</time></trkpt><trkpt lat="43.4868577" lon="10.5873088"><ele>369.99999999999994</ele><time>2026-04-04T11:17:34.738Z</time></trkpt><trkpt lat="43.4868466" lon="10.5874097"><ele>370.0</ele><time>2026-04-04T11:17:35.747Z</time></trkpt><trkpt lat="43.486859" lon="10.5875035"><ele>370.0</ele><time>2026-04-04T11:17:36.735Z</time></trkpt><trkpt lat="43.4868946" lon="10.5876055"><ele>370.0</ele><time>2026-04-04T11:17:37.73Z</time></trkpt><trkpt lat="43.4869353" lon="10.5876958"><ele>370.0</ele><time>2026-04-04T11:17:38.74Z</time></trkpt><trkpt lat="43.4869504" lon="10.5877909"><ele>369.99999999999994</ele><time>2026-04-04T11:17:39.732Z</time></trkpt><trkpt lat="43.4869392" lon="10.5878793"><ele>370.0</ele><time>2026-04-04T11:17:40.736Z</time></trkpt><trkpt lat="43.4869253" lon="10.5880044"><ele>371.6</ele><time>2026-04-04T11:17:41.742Z</time></trkpt><trkpt lat="43.4869137" lon="10.588125"><ele>373.2</ele><time>2026-04-04T11:17:42.73Z</time></trkpt><trkpt lat="43.4868895" lon="10.5882213"><ele>374.79999999999995</ele><time>2026-04-04T11:17:43.728Z</time></trkpt><trkpt lat="43.4868086" lon="10.5882719"><ele>376.4</ele><time>2026-04-04T11:17:44.736Z</time></trkpt><trkpt lat="43.4867283" lon="10.5883752"><ele>378.0</ele><time>2026-04-04T11:17:45.73Z</time></trkpt><trkpt lat="43.4866262" lon="10.5884989"><ele>378.0</ele><time>2026-04-04T11:17:46.727Z</time></trkpt><trkpt lat="43.4864822" lon="10.5886291"><ele>378.0</ele><time>2026-04-04T11:17:47.727Z</time></trkpt><trkpt lat="43.486365" lon="10.5886997"><ele>378.0</ele><time>2026-04-04T11:17:48.742Z</time></trkpt><trkpt lat="43.4862808" lon="10.5887578"><ele>378.0</ele><time>2026-04-04T11:17:49.733Z</time></trkpt><trkpt lat="43.4862305" lon="10.5888145"><ele>377.0</ele><time>2026-04-04T11:17:50.722Z</time></trkpt><trkpt lat="43.4861841" lon="10.588894"><ele>376.0</ele><time>2026-04-04T11:17:51.732Z</time></trkpt><trkpt lat="43.4861726" lon="10.5890303"><ele>375.0</ele><time>2026-04-04T11:17:52.729Z</time></trkpt><trkpt lat="43.4861868" lon="10.5891252"><ele>374.0</ele><time>2026-04-04T11:17:53.735Z</time></trkpt><trkpt lat="43.486185" lon="10.5892362"><ele>373.0</ele><time>2026-04-04T11:17:55.735Z</time></trkpt><trkpt lat="43.4860817" lon="10.5892225"><ele>372.0</ele><time>2026-04-04T11:17:57.733Z</time></trkpt><trkpt lat="43.4859843" lon="10.5892415"><ele>372.0</ele><time>2026-04-04T11:17:58.74Z</time></trkpt><trkpt lat="43.4858859" lon="10.5892699"><ele>372.0</ele><time>2026-04-04T11:17:59.738Z</time></trkpt><trkpt lat="43.4857919" lon="10.5893402"><ele>372.0</ele><time>2026-04-04T11:18:00.745Z</time></trkpt><trkpt lat="43.4857137" lon="10.589416"><ele>372.0</ele><time>2026-04-04T11:18:01.742Z</time></trkpt><trkpt lat="43.4856555" lon="10.5895268"><ele>372.0</ele><time>2026-04-04T11:18:02.734Z</time></trkpt><trkpt lat="43.4856038" lon="10.5896546"><ele>374.5</ele><time>2026-04-04T11:18:03.738Z</time></trkpt><trkpt lat="43.4855593" lon="10.5897988"><ele>377.0</ele><time>2026-04-04T11:18:04.734Z</time></trkpt><trkpt lat="43.4855329" lon="10.5899359"><ele>379.5</ele><time>2026-04-04T11:18:05.739Z</time></trkpt><trkpt lat="43.48555" lon="10.5900958"><ele>382.0</ele><time>2026-04-04T11:18:06.73Z</time></trkpt><trkpt lat="43.4855975" lon="10.5902549"><ele>381.6</ele><time>2026-04-04T11:18:07.749Z</time></trkpt><trkpt lat="43.4856091" lon="10.5903986"><ele>381.20000000000005</ele><time>2026-04-04T11:18:08.738Z</time></trkpt><trkpt lat="43.4855773" lon="10.590505"><ele>380.8</ele><time>2026-04-04T11:18:09.736Z</time></trkpt><trkpt lat="43.4855272" lon="10.5906226"><ele>380.4</ele><time>2026-04-04T11:18:10.74Z</time></trkpt><trkpt lat="43.4854589" lon="10.5907382"><ele>380.0</ele><time>2026-04-04T11:18:11.736Z</time></trkpt><trkpt lat="43.4854034" lon="10.5908649"><ele>380.0</ele><time>2026-04-04T11:18:12.736Z</time></trkpt><trkpt lat="43.4853627" lon="10.5909876"><ele>380.0</ele><time>2026-04-04T11:18:13.737Z</time></trkpt><trkpt lat="43.485338" lon="10.5911242"><ele>380.0</ele><time>2026-04-04T11:18:14.742Z</time></trkpt><trkpt lat="43.485313" lon="10.5912443"><ele>380.0</ele><time>2026-04-04T11:18:15.732Z</time></trkpt><trkpt lat="43.4852881" lon="10.5913267"><ele>380.0</ele><time>2026-04-04T11:18:16.74Z</time></trkpt><trkpt lat="43.4852164" lon="10.5913879"><ele>380.0</ele><time>2026-04-04T11:18:17.723Z</time></trkpt><trkpt lat="43.4851123" lon="10.5914263"><ele>382.8</ele><time>2026-04-04T11:18:18.73Z</time></trkpt><trkpt lat="43.484988" lon="10.5914276"><ele>385.6</ele><time>2026-04-04T11:18:19.741Z</time></trkpt><trkpt lat="43.4848639" lon="10.5914404"><ele>388.4</ele><time>2026-04-04T11:18:20.721Z</time></trkpt><trkpt lat="43.4847716" lon="10.5914628"><ele>391.2</ele><time>2026-04-04T11:18:21.74Z</time></trkpt><trkpt lat="43.4847004" lon="10.5914728"><ele>394.0</ele><time>2026-04-04T11:18:22.733Z</time></trkpt><trkpt lat="43.4846284" lon="10.5915136"><ele>394.0</ele><time>2026-04-04T11:18:24.738Z</time></trkpt><trkpt lat="43.48469" lon="10.5916571"><ele>394.0</ele><time>2026-04-04T11:18:27.736Z</time></trkpt><trkpt lat="43.48477" lon="10.5917405"><ele>394.0</ele><time>2026-04-04T11:18:28.733Z</time></trkpt><trkpt lat="43.4848527" lon="10.5918555"><ele>394.0</ele><time>2026-04-04T11:18:29.74Z</time></trkpt><trkpt lat="43.4849159" lon="10.5919795"><ele>394.0</ele><time>2026-04-04T11:18:30.735Z</time></trkpt><trkpt lat="43.4849841" lon="10.5921249"><ele>397.6666666666667</ele><time>2026-04-04T11:18:31.728Z</time></trkpt><trkpt lat="43.4850384" lon="10.5923229"><ele>401.33333333333337</ele><time>2026-04-04T11:18:32.734Z</time></trkpt><trkpt lat="43.485093" lon="10.5925508"><ele>405.0</ele><time>2026-04-04T11:18:33.732Z</time></trkpt><trkpt lat="43.4851066" lon="10.5927677"><ele>407.2</ele><time>2026-04-04T11:18:34.729Z</time></trkpt><trkpt lat="43.4851161" lon="10.5929166"><ele>409.4</ele><time>2026-04-04T11:18:35.735Z</time></trkpt><trkpt lat="43.4851103" lon="10.5930354"><ele>411.6</ele><time>2026-04-04T11:18:36.73Z</time></trkpt><trkpt lat="43.4850782" lon="10.5931577"><ele>413.8</ele><time>2026-04-04T11:18:38.731Z</time></trkpt><trkpt lat="43.484967" lon="10.5931453"><ele>416.0</ele><time>2026-04-04T11:18:40.733Z</time></trkpt><trkpt lat="43.4848987" lon="10.5930863"><ele>416.0</ele><time>2026-04-04T11:18:41.732Z</time></trkpt><trkpt lat="43.4848298" lon="10.5930218"><ele>416.0</ele><time>2026-04-04T11:18:42.734Z</time></trkpt><trkpt lat="43.4847296" lon="10.592944"><ele>416.0</ele><time>2026-04-04T11:18:43.723Z</time></trkpt><trkpt lat="43.4846129" lon="10.5928652"><ele>416.0</ele><time>2026-04-04T11:18:44.721Z</time></trkpt><trkpt lat="43.4845262" lon="10.5927864"><ele>416.0</ele><time>2026-04-04T11:18:45.728Z</time></trkpt><trkpt lat="43.4844675" lon="10.5927323"><ele>417.20000000000005</ele><time>2026-04-04T11:18:46.727Z</time></trkpt><trkpt lat="43.484343" lon="10.5927059"><ele>418.40000000000003</ele><time>2026-04-04T11:18:48.723Z</time></trkpt><trkpt lat="43.4842604" lon="10.592728"><ele>419.6</ele><time>2026-04-04T11:18:49.73Z</time></trkpt><trkpt lat="43.4841801" lon="10.5928107"><ele>420.8</ele><time>2026-04-04T11:18:50.719Z</time></trkpt><trkpt lat="43.4841122" lon="10.5928833"><ele>422.0</ele><time>2026-04-04T11:18:51.737Z</time></trkpt><trkpt lat="43.484045" lon="10.5929432"><ele>422.0</ele><time>2026-04-04T11:18:52.728Z</time></trkpt><trkpt lat="43.4839557" lon="10.5931587"><ele>422.0</ele><time>2026-04-04T11:18:54.729Z</time></trkpt><trkpt lat="43.4837266" lon="10.5934372"><ele>420.5</ele><time>2026-04-04T11:18:57.721Z</time></trkpt><trkpt lat="43.4834569" lon="10.5935614"><ele>419.0</ele><time>2026-04-04T11:18:59.734Z</time></trkpt><trkpt lat="43.4833764" lon="10.593627"><ele>417.5</ele><time>2026-04-04T11:19:00.727Z</time></trkpt><trkpt lat="43.4833351" lon="10.5937052"><ele>416.0</ele><time>2026-04-04T11:19:01.725Z</time></trkpt><trkpt lat="43.4833048" lon="10.5937953"><ele>419.0</ele><time>2026-04-04T11:19:02.719Z</time></trkpt><trkpt lat="43.4832979" lon="10.5938994"><ele>422.0</ele><time>2026-04-04T11:19:03.733Z</time></trkpt><trkpt lat="43.4833005" lon="10.5940221"><ele>425.0</ele><time>2026-04-04T11:19:04.724Z</time></trkpt><trkpt lat="43.4833352" lon="10.5941674"><ele>428.0</ele><time>2026-04-04T11:19:05.727Z</time></trkpt><trkpt lat="43.4833918" lon="10.5943197"><ele>431.0</ele><time>2026-04-04T11:19:06.725Z</time></trkpt><trkpt lat="43.4834467" lon="10.5944456"><ele>432.8</ele><time>2026-04-04T11:19:07.713Z</time></trkpt><trkpt lat="43.4834696" lon="10.5945457"><ele>434.6</ele><time>2026-04-04T11:19:08.727Z</time></trkpt><trkpt lat="43.4834565" lon="10.5946438"><ele>436.4</ele><time>2026-04-04T11:19:09.714Z</time></trkpt><trkpt lat="43.4834381" lon="10.5947822"><ele>438.2</ele><time>2026-04-04T11:19:10.718Z</time></trkpt><trkpt lat="43.4834385" lon="10.5949522"><ele>440.0</ele><time>2026-04-04T11:19:11.725Z</time></trkpt><trkpt lat="43.4834716" lon="10.5951418"><ele>440.0</ele><time>2026-04-04T11:19:12.731Z</time></trkpt><trkpt lat="43.4834865" lon="10.5953134"><ele>440.0</ele><time>2026-04-04T11:19:13.705Z</time></trkpt><trkpt lat="43.4834853" lon="10.5954427"><ele>440.0</ele><time>2026-04-04T11:19:14.726Z</time></trkpt><trkpt lat="43.4835166" lon="10.5955799"><ele>440.0</ele><time>2026-04-04T11:19:15.729Z</time></trkpt><trkpt lat="43.4835748" lon="10.5957029"><ele>440.0</ele><time>2026-04-04T11:19:16.717Z</time></trkpt><trkpt lat="43.4836413" lon="10.5958406"><ele>442.66666666666663</ele><time>2026-04-04T11:19:17.717Z</time></trkpt><trkpt lat="43.4837115" lon="10.5959997"><ele>445.33333333333337</ele><time>2026-04-04T11:19:18.748Z</time></trkpt><trkpt lat="43.4837916" lon="10.5961799"><ele>448.0</ele><time>2026-04-04T11:19:19.713Z</time></trkpt><trkpt lat="43.4838699" lon="10.5963811"><ele>456.33333333333337</ele><time>2026-04-04T11:19:20.733Z</time></trkpt><trkpt lat="43.4839774" lon="10.5965865"><ele>464.66666666666663</ele><time>2026-04-04T11:19:21.733Z</time></trkpt><trkpt lat="43.4840538" lon="10.5968167"><ele>473.0</ele><time>2026-04-04T11:19:22.734Z</time></trkpt><trkpt lat="43.4841316" lon="10.5969917"><ele>475.66666666666663</ele><time>2026-04-04T11:19:23.728Z</time></trkpt><trkpt lat="43.4841975" lon="10.5971687"><ele>478.33333333333337</ele><time>2026-04-04T11:19:24.731Z</time></trkpt><trkpt lat="43.4842614" lon="10.597363"><ele>481.0</ele><time>2026-04-04T11:19:25.726Z</time></trkpt><trkpt lat="43.4843134" lon="10.5975716"><ele>481.0</ele><time>2026-04-04T11:19:26.723Z</time></trkpt><trkpt lat="43.4843725" lon="10.5977876"><ele>481.0</ele><time>2026-04-04T11:19:27.726Z</time></trkpt><trkpt lat="43.4844144" lon="10.5979984"><ele>481.0</ele><time>2026-04-04T11:19:28.735Z</time></trkpt><trkpt lat="43.4844771" lon="10.598206"><ele>484.5</ele><time>2026-04-04T11:19:29.735Z</time></trkpt><trkpt lat="43.4845466" lon="10.5984268"><ele>488.0</ele><time>2026-04-04T11:19:30.733Z</time></trkpt><trkpt lat="43.4845957" lon="10.5986003"><ele>491.5</ele><time>2026-04-04T11:19:31.736Z</time></trkpt><trkpt lat="43.4846217" lon="10.5987133"><ele>495.0</ele><time>2026-04-04T11:19:32.736Z</time></trkpt><trkpt lat="43.4846265" lon="10.5988237"><ele>495.0</ele><time>2026-04-04T11:19:33.727Z</time></trkpt><trkpt lat="43.4845862" lon="10.5989605"><ele>495.0</ele><time>2026-04-04T11:19:35.735Z</time></trkpt><trkpt lat="43.4844991" lon="10.5988879"><ele>495.0</ele><time>2026-04-04T11:19:37.734Z</time></trkpt><trkpt lat="43.4844196" lon="10.5987874"><ele>495.0</ele><time>2026-04-04T11:19:39.729Z</time></trkpt><trkpt lat="43.4843444" lon="10.5986733"><ele>495.0</ele><time>2026-04-04T11:19:40.731Z</time></trkpt><trkpt lat="43.4842643" lon="10.5985565"><ele>495.0</ele><time>2026-04-04T11:19:41.725Z</time></trkpt><trkpt lat="43.4841975" lon="10.5984532"><ele>495.0</ele><time>2026-04-04T11:19:42.728Z</time></trkpt><trkpt lat="43.4839504" lon="10.5981876"><ele>495.0</ele><time>2026-04-04T11:19:44.734Z</time></trkpt><trkpt lat="43.4838644" lon="10.5980862"><ele>495.0</ele><time>2026-04-04T11:19:45.736Z</time></trkpt><trkpt lat="43.4837875" lon="10.5979931"><ele>495.0</ele><time>2026-04-04T11:19:46.736Z</time></trkpt><trkpt lat="43.4836971" lon="10.5979321"><ele>495.0</ele><time>2026-04-04T11:19:47.733Z</time></trkpt><trkpt lat="43.4836086" lon="10.5978743"><ele>495.0</ele><time>2026-04-04T11:19:49.736Z</time></trkpt><trkpt lat="43.4835504" lon="10.597928"><ele>495.0</ele><time>2026-04-04T11:19:50.746Z</time></trkpt><trkpt lat="43.4834705" lon="10.5979639"><ele>494.5</ele><time>2026-04-04T11:19:51.733Z</time></trkpt><trkpt lat="43.4834341" lon="10.5981159"><ele>494.0</ele><time>2026-04-04T11:19:52.732Z</time></trkpt><trkpt lat="43.4833688" lon="10.5982886"><ele>493.5</ele><time>2026-04-04T11:19:53.735Z</time></trkpt><trkpt lat="43.4833226" lon="10.5984651"><ele>493.0</ele><time>2026-04-04T11:19:54.726Z</time></trkpt><trkpt lat="43.4832883" lon="10.5986375"><ele>494.5</ele><time>2026-04-04T11:19:55.742Z</time></trkpt><trkpt lat="43.4832674" lon="10.5988068"><ele>496.0</ele><time>2026-04-04T11:19:56.733Z</time></trkpt><trkpt lat="43.4832606" lon="10.5989922"><ele>497.5</ele><time>2026-04-04T11:19:57.739Z</time></trkpt><trkpt lat="43.4831981" lon="10.5991064"><ele>499.0</ele><time>2026-04-04T11:19:58.73Z</time></trkpt><trkpt lat="43.4831988" lon="10.5992585"><ele>499.00000000000006</ele><time>2026-04-04T11:19:59.732Z</time></trkpt><trkpt lat="43.4831987" lon="10.5994061"><ele>499.0</ele><time>2026-04-04T11:20:00.739Z</time></trkpt><trkpt lat="43.4831895" lon="10.5995093"><ele>499.0</ele><time>2026-04-04T11:20:01.728Z</time></trkpt><trkpt lat="43.4831786" lon="10.5996061"><ele>499.0</ele><time>2026-04-04T11:20:02.736Z</time></trkpt><trkpt lat="43.4831072" lon="10.5996605"><ele>499.00000000000006</ele><time>2026-04-04T11:20:05.739Z</time></trkpt><trkpt lat="43.4830293" lon="10.5996396"><ele>499.0</ele><time>2026-04-04T11:20:09.731Z</time></trkpt><trkpt lat="43.4829681" lon="10.5996071"><ele>498.4</ele><time>2026-04-04T11:20:12.736Z</time></trkpt><trkpt lat="43.482838" lon="10.5996182"><ele>497.79999999999995</ele><time>2026-04-04T11:21:12.747Z</time></trkpt><trkpt lat="43.4827561" lon="10.5995787"><ele>497.20000000000005</ele><time>2026-04-04T11:21:14.729Z</time></trkpt><trkpt lat="43.4826756" lon="10.5995293"><ele>496.6</ele><time>2026-04-04T11:21:15.742Z</time></trkpt><trkpt lat="43.4825749" lon="10.5994682"><ele>496.0</ele><time>2026-04-04T11:21:16.736Z</time></trkpt><trkpt lat="43.4824554" lon="10.5994024"><ele>496.0</ele><time>2026-04-04T11:21:17.725Z</time></trkpt><trkpt lat="43.4823173" lon="10.5993515"><ele>496.0</ele><time>2026-04-04T11:21:18.736Z</time></trkpt><trkpt lat="43.4821749" lon="10.5993016"><ele>496.0</ele><time>2026-04-04T11:21:19.747Z</time></trkpt><trkpt lat="43.4820194" lon="10.5992959"><ele>496.0</ele><time>2026-04-04T11:21:20.73Z</time></trkpt><trkpt lat="43.4818592" lon="10.5992913"><ele>501.33333333333337</ele><time>2026-04-04T11:21:21.72Z</time></trkpt><trkpt lat="43.4816972" lon="10.5992961"><ele>506.66666666666663</ele><time>2026-04-04T11:21:22.741Z</time></trkpt><trkpt lat="43.4815466" lon="10.5993012"><ele>512.0</ele><time>2026-04-04T11:21:23.735Z</time></trkpt><trkpt lat="43.4814042" lon="10.5993278"><ele>514.75</ele><time>2026-04-04T11:21:24.737Z</time></trkpt><trkpt lat="43.4812629" lon="10.5993684"><ele>517.5</ele><time>2026-04-04T11:21:25.738Z</time></trkpt><trkpt lat="43.4811233" lon="10.5994124"><ele>520.25</ele><time>2026-04-04T11:21:26.731Z</time></trkpt><trkpt lat="43.4809873" lon="10.5994563"><ele>523.0</ele><time>2026-04-04T11:21:27.746Z</time></trkpt><trkpt lat="43.4808567" lon="10.5995033"><ele>523.75</ele><time>2026-04-04T11:21:28.732Z</time></trkpt><trkpt lat="43.4807239" lon="10.5995507"><ele>524.5</ele><time>2026-04-04T11:21:29.736Z</time></trkpt><trkpt lat="43.4805932" lon="10.5996016"><ele>525.25</ele><time>2026-04-04T11:21:30.741Z</time></trkpt><trkpt lat="43.4804735" lon="10.5996594"><ele>526.0</ele><time>2026-04-04T11:21:31.737Z</time></trkpt><trkpt lat="43.4803602" lon="10.5997323"><ele>527.0</ele><time>2026-04-04T11:21:32.736Z</time></trkpt><trkpt lat="43.4802552" lon="10.5998268"><ele>528.0</ele><time>2026-04-04T11:21:33.746Z</time></trkpt><trkpt lat="43.4801627" lon="10.5999405"><ele>529.0</ele><time>2026-04-04T11:21:34.74Z</time></trkpt><trkpt lat="43.4800871" lon="10.600073"><ele>530.0</ele><time>2026-04-04T11:21:35.728Z</time></trkpt><trkpt lat="43.4800333" lon="10.6002264"><ele>531.0</ele><time>2026-04-04T11:21:36.735Z</time></trkpt><trkpt lat="43.4800003" lon="10.6003924"><ele>532.0</ele><time>2026-04-04T11:21:37.736Z</time></trkpt><trkpt lat="43.4799836" lon="10.600567"><ele>533.0</ele><time>2026-04-04T11:21:38.735Z</time></trkpt><trkpt lat="43.4799702" lon="10.6007351"><ele>534.0</ele><time>2026-04-04T11:21:39.729Z</time></trkpt><trkpt lat="43.4799411" lon="10.6008781"><ele>534.0</ele><time>2026-04-04T11:21:40.74Z</time></trkpt><trkpt lat="43.4798881" lon="10.6009893"><ele>534.0</ele><time>2026-04-04T11:21:41.718Z</time></trkpt><trkpt lat="43.4798314" lon="10.601104"><ele>534.0</ele><time>2026-04-04T11:21:42.722Z</time></trkpt><trkpt lat="43.4797279" lon="10.6012013"><ele>534.0</ele><time>2026-04-04T11:21:43.726Z</time></trkpt><trkpt lat="43.4796188" lon="10.6013148"><ele>536.25</ele><time>2026-04-04T11:21:44.734Z</time></trkpt><trkpt lat="43.479515" lon="10.6014461"><ele>538.5</ele><time>2026-04-04T11:21:45.73Z</time></trkpt><trkpt lat="43.4794169" lon="10.6015773"><ele>540.75</ele><time>2026-04-04T11:21:46.736Z</time></trkpt><trkpt lat="43.4793208" lon="10.6016808"><ele>543.0</ele><time>2026-04-04T11:21:47.74Z</time></trkpt><trkpt lat="43.4792341" lon="10.6017717"><ele>543.0</ele><time>2026-04-04T11:21:48.725Z</time></trkpt><trkpt lat="43.4791395" lon="10.601783"><ele>543.0</ele><time>2026-04-04T11:21:49.737Z</time></trkpt><trkpt lat="43.479036" lon="10.6017633"><ele>543.0</ele><time>2026-04-04T11:21:50.743Z</time></trkpt><trkpt lat="43.4789321" lon="10.6017393"><ele>543.0</ele><time>2026-04-04T11:21:51.717Z</time></trkpt><trkpt lat="43.47884" lon="10.6017121"><ele>543.0</ele><time>2026-04-04T11:21:52.732Z</time></trkpt><trkpt lat="43.4787664" lon="10.6017129"><ele>543.3333333333334</ele><time>2026-04-04T11:21:53.73Z</time></trkpt><trkpt lat="43.4786616" lon="10.6017714"><ele>543.6666666666666</ele><time>2026-04-04T11:21:55.732Z</time></trkpt><trkpt lat="43.4785967" lon="10.6017905"><ele>544.0</ele><time>2026-04-04T11:21:57.724Z</time></trkpt><trkpt lat="43.4785282" lon="10.601719"><ele>544.3333333333333</ele><time>2026-04-04T11:22:10.728Z</time></trkpt><trkpt lat="43.4784656" lon="10.6016543"><ele>544.6666666666666</ele><time>2026-04-04T11:22:13.727Z</time></trkpt><trkpt lat="43.4784208" lon="10.6015576"><ele>545.0</ele><time>2026-04-04T11:22:16.731Z</time></trkpt><trkpt lat="43.4783896" lon="10.6014804"><ele>545.0</ele><time>2026-04-04T11:22:19.742Z</time></trkpt><trkpt lat="43.4783536" lon="10.6013907"><ele>545.0</ele><time>2026-04-04T11:22:22.741Z</time></trkpt><trkpt lat="43.4783675" lon="10.6012859"><ele>545.0</ele><time>2026-04-04T11:22:25.738Z</time></trkpt><trkpt lat="43.4783482" lon="10.6011686"><ele>545.0</ele><time>2026-04-04T11:22:28.744Z</time></trkpt><trkpt lat="43.4783236" lon="10.6010574"><ele>545.0</ele><time>2026-04-04T11:22:30.732Z</time></trkpt><trkpt lat="43.478302" lon="10.6009742"><ele>545.0</ele><time>2026-04-04T11:22:32.74Z</time></trkpt><trkpt lat="43.4782669" lon="10.6008914"><ele>545.1666666666666</ele><time>2026-04-04T11:22:35.741Z</time></trkpt><trkpt lat="43.4782014" lon="10.6007896"><ele>545.3333333333333</ele><time>2026-04-04T11:22:38.735Z</time></trkpt><trkpt lat="43.478161" lon="10.6007142"><ele>545.5</ele><time>2026-04-04T11:22:40.732Z</time></trkpt><trkpt lat="43.4781028" lon="10.6006018"><ele>545.6666666666666</ele><time>2026-04-04T11:22:42.726Z</time></trkpt><trkpt lat="43.4780719" lon="10.6005133"><ele>545.8333333333334</ele><time>2026-04-04T11:22:43.75Z</time></trkpt><trkpt lat="43.4780323" lon="10.6003762"><ele>546.0</ele><time>2026-04-04T11:22:45.726Z</time></trkpt><trkpt lat="43.4779829" lon="10.6002546"><ele>543.5</ele><time>2026-04-04T11:22:47.736Z</time></trkpt><trkpt lat="43.477926" lon="10.6001322"><ele>541.0</ele><time>2026-04-04T11:22:49.732Z</time></trkpt><trkpt lat="43.4778864" lon="10.5999596"><ele>538.5</ele><time>2026-04-04T11:22:51.743Z</time></trkpt><trkpt lat="43.4778508" lon="10.5998816"><ele>536.0</ele><time>2026-04-04T11:22:52.739Z</time></trkpt><trkpt lat="43.4778059" lon="10.5998012"><ele>533.5</ele><time>2026-04-04T11:22:53.731Z</time></trkpt><trkpt lat="43.4777729" lon="10.5997249"><ele>531.0</ele><time>2026-04-04T11:22:54.726Z</time></trkpt><trkpt lat="43.4777458" lon="10.5996295"><ele>531.0</ele><time>2026-04-04T11:22:55.735Z</time></trkpt><trkpt lat="43.477714" lon="10.5995483"><ele>531.0</ele><time>2026-04-04T11:22:56.733Z</time></trkpt><trkpt lat="43.4777128" lon="10.5994533"><ele>531.0</ele><time>2026-04-04T11:22:57.723Z</time></trkpt><trkpt lat="43.477678" lon="10.5993521"><ele>531.0</ele><time>2026-04-04T11:22:58.734Z</time></trkpt><trkpt lat="43.4776382" lon="10.5992609"><ele>531.0</ele><time>2026-04-04T11:22:59.736Z</time></trkpt><trkpt lat="43.4776119" lon="10.5991568"><ele>531.0</ele><time>2026-04-04T11:23:00.731Z</time></trkpt><trkpt lat="43.4776113" lon="10.5990682"><ele>531.0</ele><time>2026-04-04T11:23:01.733Z</time></trkpt><trkpt lat="43.4775901" lon="10.5989729"><ele>530.6</ele><time>2026-04-04T11:23:03.718Z</time></trkpt><trkpt lat="43.4775448" lon="10.5988811"><ele>530.2</ele><time>2026-04-04T11:23:05.732Z</time></trkpt><trkpt lat="43.477483" lon="10.5987706"><ele>529.8</ele><time>2026-04-04T11:23:07.728Z</time></trkpt><trkpt lat="43.4774227" lon="10.5986353"><ele>529.4</ele><time>2026-04-04T11:23:09.722Z</time></trkpt><trkpt lat="43.477375" lon="10.5985"><ele>529.0</ele><time>2026-04-04T11:23:12.74Z</time></trkpt><trkpt lat="43.4773555" lon="10.5983737"><ele>527.75</ele><time>2026-04-04T11:23:15.724Z</time></trkpt><trkpt lat="43.47735" lon="10.5982832"><ele>526.5</ele><time>2026-04-04T11:23:16.73Z</time></trkpt><trkpt lat="43.4773531" lon="10.5981691"><ele>525.25</ele><time>2026-04-04T11:23:18.738Z</time></trkpt><trkpt lat="43.4775708" lon="10.5981513"><ele>524.0</ele><time>2026-04-04T11:23:29.726Z</time></trkpt><trkpt lat="43.4775714" lon="10.5980032"><ele>524.0</ele><time>2026-04-04T11:23:33.731Z</time></trkpt><trkpt lat="43.4775322" lon="10.5979232"><ele>524.0</ele><time>2026-04-04T11:23:35.73Z</time></trkpt><trkpt lat="43.4774655" lon="10.5977637"><ele>524.0</ele><time>2026-04-04T11:23:38.726Z</time></trkpt><trkpt lat="43.4774386" lon="10.5976367"><ele>524.0</ele><time>2026-04-04T11:23:40.728Z</time></trkpt><trkpt lat="43.4773848" lon="10.5974098"><ele>522.0</ele><time>2026-04-04T11:23:45.731Z</time></trkpt><trkpt lat="43.4773024" lon="10.5972835"><ele>520.0</ele><time>2026-04-04T11:23:47.737Z</time></trkpt><trkpt lat="43.4772288" lon="10.5971594"><ele>518.0</ele><time>2026-04-04T11:23:48.725Z</time></trkpt><trkpt lat="43.4771769" lon="10.5970688"><ele>516.0</ele><time>2026-04-04T11:23:49.742Z</time></trkpt><trkpt lat="43.4771499" lon="10.5969301"><ele>514.0</ele><time>2026-04-04T11:23:50.74Z</time></trkpt><trkpt lat="43.477127" lon="10.5968446"><ele>510.0</ele><time>2026-04-04T11:23:51.739Z</time></trkpt><trkpt lat="43.4770966" lon="10.5967259"><ele>506.0</ele><time>2026-04-04T11:23:52.736Z</time></trkpt><trkpt lat="43.4770609" lon="10.596649"><ele>502.0</ele><time>2026-04-04T11:23:53.717Z</time></trkpt><trkpt lat="43.4769581" lon="10.596517"><ele>498.0</ele><time>2026-04-04T11:23:54.73Z</time></trkpt><trkpt lat="43.4769071" lon="10.5964108"><ele>494.0</ele><time>2026-04-04T11:23:55.738Z</time></trkpt><trkpt lat="43.4768505" lon="10.5962629"><ele>493.99999999999994</ele><time>2026-04-04T11:23:56.731Z</time></trkpt><trkpt lat="43.4767966" lon="10.5962065"><ele>494.0</ele><time>2026-04-04T11:23:57.731Z</time></trkpt><trkpt lat="43.4767245" lon="10.5961099"><ele>494.0</ele><time>2026-04-04T11:23:59.732Z</time></trkpt><trkpt lat="43.4766697" lon="10.5960413"><ele>494.0</ele><time>2026-04-04T11:24:01.725Z</time></trkpt><trkpt lat="43.4765993" lon="10.5959392"><ele>493.99999999999994</ele><time>2026-04-04T11:24:04.747Z</time></trkpt><trkpt lat="43.4766426" lon="10.5958474"><ele>494.0</ele><time>2026-04-04T11:24:07.733Z</time></trkpt><trkpt lat="43.4767002" lon="10.5958036"><ele>494.25</ele><time>2026-04-04T11:24:11.73Z</time></trkpt><trkpt lat="43.4766077" lon="10.5956844"><ele>494.5</ele><time>2026-04-04T11:24:30.733Z</time></trkpt><trkpt lat="43.4765123" lon="10.5956626"><ele>494.75</ele><time>2026-04-04T11:24:31.739Z</time></trkpt><trkpt lat="43.4764172" lon="10.5956572"><ele>495.0</ele><time>2026-04-04T11:24:44.729Z</time></trkpt><trkpt lat="43.4762862" lon="10.5956165"><ele>492.1666666666667</ele><time>2026-04-04T11:24:54.723Z</time></trkpt><trkpt lat="43.4762375" lon="10.595548"><ele>489.33333333333337</ele><time>2026-04-04T11:24:56.733Z</time></trkpt><trkpt lat="43.4761967" lon="10.5954024"><ele>486.5</ele><time>2026-04-04T11:24:58.736Z</time></trkpt><trkpt lat="43.4761562" lon="10.5953019"><ele>483.6666666666667</ele><time>2026-04-04T11:24:59.717Z</time></trkpt><trkpt lat="43.4760969" lon="10.5952191"><ele>480.83333333333337</ele><time>2026-04-04T11:25:00.745Z</time></trkpt><trkpt lat="43.4760271" lon="10.5951392"><ele>478.0</ele><time>2026-04-04T11:25:01.741Z</time></trkpt><trkpt lat="43.4759559" lon="10.5950555"><ele>478.1666666666667</ele><time>2026-04-04T11:25:02.737Z</time></trkpt><trkpt lat="43.4758989" lon="10.5949972"><ele>478.33333333333337</ele><time>2026-04-04T11:25:03.731Z</time></trkpt><trkpt lat="43.47587" lon="10.5948636"><ele>478.5</ele><time>2026-04-04T11:25:05.732Z</time></trkpt><trkpt lat="43.4758598" lon="10.5947522"><ele>478.66666666666663</ele><time>2026-04-04T11:25:07.739Z</time></trkpt><trkpt lat="43.4758668" lon="10.5946293"><ele>478.8333333333333</ele><time>2026-04-04T11:25:09.745Z</time></trkpt><trkpt lat="43.4758818" lon="10.5945158"><ele>479.0</ele><time>2026-04-04T11:25:11.736Z</time></trkpt><trkpt lat="43.4759168" lon="10.5944328"><ele>479.0</ele><time>2026-04-04T11:25:13.728Z</time></trkpt><trkpt lat="43.4758955" lon="10.594342"><ele>479.0</ele><time>2026-04-04T11:25:15.739Z</time></trkpt><trkpt lat="43.475817" lon="10.5942511"><ele>479.0</ele><time>2026-04-04T11:25:17.74Z</time></trkpt><trkpt lat="43.4757706" lon="10.594136"><ele>479.0</ele><time>2026-04-04T11:25:19.732Z</time></trkpt><trkpt lat="43.4757182" lon="10.5940249"><ele>479.0</ele><time>2026-04-04T11:25:20.726Z</time></trkpt><trkpt lat="43.4756567" lon="10.5939368"><ele>479.0</ele><time>2026-04-04T11:25:21.725Z</time></trkpt><trkpt lat="43.4755902" lon="10.5938591"><ele>479.0</ele><time>2026-04-04T11:25:22.733Z</time></trkpt><trkpt lat="43.4755002" lon="10.5937697"><ele>479.0</ele><time>2026-04-04T11:25:23.735Z</time></trkpt><trkpt lat="43.4753794" lon="10.5935683"><ele>479.0</ele><time>2026-04-04T11:25:25.728Z</time></trkpt><trkpt lat="43.4753609" lon="10.5934377"><ele>477.66666666666663</ele><time>2026-04-04T11:25:27.738Z</time></trkpt><trkpt lat="43.4753119" lon="10.5932918"><ele>476.3333333333333</ele><time>2026-04-04T11:25:29.75Z</time></trkpt><trkpt lat="43.4752885" lon="10.5931931"><ele>475.0</ele><time>2026-04-04T11:25:30.738Z</time></trkpt><trkpt lat="43.4752551" lon="10.593084"><ele>473.66666666666663</ele><time>2026-04-04T11:25:32.729Z</time></trkpt><trkpt lat="43.4752144" lon="10.5930053"><ele>472.3333333333333</ele><time>2026-04-04T11:25:34.735Z</time></trkpt><trkpt lat="43.4751719" lon="10.5928936"><ele>471.0</ele><time>2026-04-04T11:25:36.731Z</time></trkpt><trkpt lat="43.4751379" lon="10.5928047"><ele>471.0</ele><time>2026-04-04T11:25:38.737Z</time></trkpt><trkpt lat="43.4750775" lon="10.5926634"><ele>471.0</ele><time>2026-04-04T11:25:40.737Z</time></trkpt><trkpt lat="43.4750249" lon="10.5925302"><ele>471.0</ele><time>2026-04-04T11:25:42.728Z</time></trkpt><trkpt lat="43.4749941" lon="10.5924122"><ele>471.0</ele><time>2026-04-04T11:25:44.731Z</time></trkpt><trkpt lat="43.4750007" lon="10.5923208"><ele>471.0</ele><time>2026-04-04T11:25:47.729Z</time></trkpt><trkpt lat="43.4750204" lon="10.5922377"><ele>471.0</ele><time>2026-04-04T11:25:49.734Z</time></trkpt><trkpt lat="43.4750732" lon="10.5921279"><ele>471.0</ele><time>2026-04-04T11:25:52.745Z</time></trkpt><trkpt lat="43.4750762" lon="10.5919673"><ele>471.0</ele><time>2026-04-04T11:25:58.723Z</time></trkpt><trkpt lat="43.4751116" lon="10.591895"><ele>471.0</ele><time>2026-04-04T11:25:59.731Z</time></trkpt><trkpt lat="43.4750441" lon="10.5918388"><ele>471.0</ele><time>2026-04-04T11:26:02.739Z</time></trkpt><trkpt lat="43.475099" lon="10.5916662"><ele>469.20000000000005</ele><time>2026-04-04T11:26:05.739Z</time></trkpt><trkpt lat="43.4751591" lon="10.5915193"><ele>467.40000000000003</ele><time>2026-04-04T11:26:07.727Z</time></trkpt><trkpt lat="43.4752279" lon="10.5914007"><ele>465.6</ele><time>2026-04-04T11:26:09.733Z</time></trkpt><trkpt lat="43.4753314" lon="10.5913258"><ele>463.8</ele><time>2026-04-04T11:26:11.738Z</time></trkpt><trkpt lat="43.4754059" lon="10.5912651"><ele>462.0</ele><time>2026-04-04T11:26:13.718Z</time></trkpt><trkpt lat="43.4755639" lon="10.5908615"><ele>460.40000000000003</ele><time>2026-04-04T11:26:17.742Z</time></trkpt><trkpt lat="43.4756166" lon="10.5907267"><ele>458.80000000000007</ele><time>2026-04-04T11:26:30.739Z</time></trkpt><trkpt lat="43.4756269" lon="10.5905507"><ele>457.2</ele><time>2026-04-04T11:26:36.731Z</time></trkpt><trkpt lat="43.4756138" lon="10.59041"><ele>455.6</ele><time>2026-04-04T11:27:30.732Z</time></trkpt><trkpt lat="43.4757002" lon="10.5903975"><ele>454.0</ele><time>2026-04-04T11:27:33.736Z</time></trkpt><trkpt lat="43.4757823" lon="10.5903933"><ele>454.00000000000006</ele><time>2026-04-04T11:27:35.738Z</time></trkpt><trkpt lat="43.4758649" lon="10.5903698"><ele>454.0</ele><time>2026-04-04T11:27:37.728Z</time></trkpt><trkpt lat="43.4759699" lon="10.5902621"><ele>454.0</ele><time>2026-04-04T11:27:39.736Z</time></trkpt><trkpt lat="43.4760212" lon="10.5902111"><ele>454.0</ele><time>2026-04-04T11:27:40.737Z</time></trkpt><trkpt lat="43.4761015" lon="10.5902016"><ele>454.00000000000006</ele><time>2026-04-04T11:27:42.729Z</time></trkpt><trkpt lat="43.476163" lon="10.590227"><ele>454.0</ele><time>2026-04-04T11:27:45.728Z</time></trkpt><trkpt lat="43.4761989" lon="10.5901087"><ele>453.0</ele><time>2026-04-04T11:27:48.724Z</time></trkpt><trkpt lat="43.4762659" lon="10.5900647"><ele>452.0</ele><time>2026-04-04T11:27:50.724Z</time></trkpt><trkpt lat="43.4763608" lon="10.5899581"><ele>451.0</ele><time>2026-04-04T11:27:54.717Z</time></trkpt><trkpt lat="43.47645" lon="10.5898693"><ele>450.0</ele><time>2026-04-04T11:27:55.741Z</time></trkpt><trkpt lat="43.4765029" lon="10.5897573"><ele>449.0</ele><time>2026-04-04T11:27:56.728Z</time></trkpt><trkpt lat="43.4765376" lon="10.5896391"><ele>449.0</ele><time>2026-04-04T11:27:57.736Z</time></trkpt><trkpt lat="43.4766088" lon="10.5895315"><ele>449.0</ele><time>2026-04-04T11:27:58.726Z</time></trkpt><trkpt lat="43.4766887" lon="10.5893723"><ele>449.0</ele><time>2026-04-04T11:27:59.731Z</time></trkpt><trkpt lat="43.4767934" lon="10.5892077"><ele>449.0</ele><time>2026-04-04T11:28:00.742Z</time></trkpt><trkpt lat="43.4768894" lon="10.5890043"><ele>444.66666666666663</ele><time>2026-04-04T11:28:01.733Z</time></trkpt><trkpt lat="43.4769715" lon="10.5888177"><ele>440.33333333333337</ele><time>2026-04-04T11:28:02.722Z</time></trkpt><trkpt lat="43.4770608" lon="10.5885135"><ele>436.0</ele><time>2026-04-04T11:28:03.737Z</time></trkpt><trkpt lat="43.4771185" lon="10.5884166"><ele>436.0</ele><time>2026-04-04T11:28:04.737Z</time></trkpt><trkpt lat="43.4771993" lon="10.588223"><ele>436.0</ele><time>2026-04-04T11:28:06.741Z</time></trkpt><trkpt lat="43.4772521" lon="10.5880974"><ele>436.0</ele><time>2026-04-04T11:28:07.73Z</time></trkpt><trkpt lat="43.4772716" lon="10.5880136"><ele>436.0</ele><time>2026-04-04T11:28:08.731Z</time></trkpt><trkpt lat="43.4772967" lon="10.5878803"><ele>436.0</ele><time>2026-04-04T11:28:10.732Z</time></trkpt><trkpt lat="43.4773536" lon="10.5877445"><ele>434.50000000000006</ele><time>2026-04-04T11:28:12.735Z</time></trkpt><trkpt lat="43.4774185" lon="10.5876608"><ele>433.0</ele><time>2026-04-04T11:28:14.729Z</time></trkpt><trkpt lat="43.4774582" lon="10.5875065"><ele>431.5</ele><time>2026-04-04T11:28:16.73Z</time></trkpt><trkpt lat="43.4774996" lon="10.5874369"><ele>430.0</ele><time>2026-04-04T11:28:17.736Z</time></trkpt><trkpt lat="43.4775508" lon="10.5873086"><ele>428.50000000000006</ele><time>2026-04-04T11:28:19.72Z</time></trkpt><trkpt lat="43.4775895" lon="10.5872349"><ele>427.0</ele><time>2026-04-04T11:28:21.724Z</time></trkpt><trkpt lat="43.4776364" lon="10.5871222"><ele>427.0</ele><time>2026-04-04T11:28:23.734Z</time></trkpt><trkpt lat="43.4776613" lon="10.587026"><ele>427.00000000000006</ele><time>2026-04-04T11:28:25.733Z</time></trkpt><trkpt lat="43.4776654" lon="10.586874"><ele>427.00000000000006</ele><time>2026-04-04T11:28:27.734Z</time></trkpt><trkpt lat="43.4776514" lon="10.586738"><ele>427.0</ele><time>2026-04-04T11:28:29.745Z</time></trkpt><trkpt lat="43.4776267" lon="10.5866425"><ele>427.0</ele><time>2026-04-04T11:28:55.75Z</time></trkpt><trkpt lat="43.4775763" lon="10.5864756"><ele>425.25</ele><time>2026-04-04T11:28:57.731Z</time></trkpt><trkpt lat="43.4775271" lon="10.586342"><ele>423.5</ele><time>2026-04-04T11:28:58.732Z</time></trkpt><trkpt lat="43.4774806" lon="10.5861817"><ele>421.75</ele><time>2026-04-04T11:28:59.726Z</time></trkpt><trkpt lat="43.4774412" lon="10.5860035"><ele>420.0</ele><time>2026-04-04T11:29:00.736Z</time></trkpt><trkpt lat="43.4774132" lon="10.5858415"><ele>418.0</ele><time>2026-04-04T11:29:01.734Z</time></trkpt><trkpt lat="43.4773932" lon="10.585681"><ele>416.0</ele><time>2026-04-04T11:29:02.726Z</time></trkpt><trkpt lat="43.4774219" lon="10.5855221"><ele>414.0</ele><time>2026-04-04T11:29:03.735Z</time></trkpt><trkpt lat="43.4774523" lon="10.5853619"><ele>412.0</ele><time>2026-04-04T11:29:04.736Z</time></trkpt><trkpt lat="43.4774922" lon="10.5852052"><ele>409.25</ele><time>2026-04-04T11:29:05.737Z</time></trkpt><trkpt lat="43.4775234" lon="10.5850485"><ele>406.5</ele><time>2026-04-04T11:29:06.74Z</time></trkpt><trkpt lat="43.477545" lon="10.584895"><ele>403.75</ele><time>2026-04-04T11:29:07.734Z</time></trkpt><trkpt lat="43.4775667" lon="10.5847405"><ele>401.0</ele><time>2026-04-04T11:29:08.723Z</time></trkpt><trkpt lat="43.4775713" lon="10.5845794"><ele>398.75</ele><time>2026-04-04T11:29:09.718Z</time></trkpt><trkpt lat="43.4775758" lon="10.5844163"><ele>396.5</ele><time>2026-04-04T11:29:10.738Z</time></trkpt><trkpt lat="43.4775768" lon="10.5842467"><ele>394.25</ele><time>2026-04-04T11:29:11.723Z</time></trkpt><trkpt lat="43.4775658" lon="10.5840589"><ele>392.0</ele><time>2026-04-04T11:29:12.73Z</time></trkpt><trkpt lat="43.4775557" lon="10.5838683"><ele>390.5</ele><time>2026-04-04T11:29:13.719Z</time></trkpt><trkpt lat="43.4775275" lon="10.5836699"><ele>389.0</ele><time>2026-04-04T11:29:14.732Z</time></trkpt><trkpt lat="43.4775042" lon="10.5834691"><ele>387.5</ele><time>2026-04-04T11:29:15.735Z</time></trkpt><trkpt lat="43.477477" lon="10.5832624"><ele>386.0</ele><time>2026-04-04T11:29:16.725Z</time></trkpt><trkpt lat="43.477451" lon="10.5830722"><ele>386.0</ele><time>2026-04-04T11:29:17.73Z</time></trkpt><trkpt lat="43.4774213" lon="10.5828896"><ele>386.0</ele><time>2026-04-04T11:29:18.73Z</time></trkpt><trkpt lat="43.4773863" lon="10.5827184"><ele>386.0</ele><time>2026-04-04T11:29:19.735Z</time></trkpt><trkpt lat="43.4773583" lon="10.5825475"><ele>386.0</ele><time>2026-04-04T11:29:20.731Z</time></trkpt><trkpt lat="43.4773169" lon="10.5823841"><ele>384.5</ele><time>2026-04-04T11:29:21.718Z</time></trkpt><trkpt lat="43.4772781" lon="10.5822252"><ele>383.0</ele><time>2026-04-04T11:29:22.736Z</time></trkpt><trkpt lat="43.4772397" lon="10.5820692"><ele>381.5</ele><time>2026-04-04T11:29:23.729Z</time></trkpt><trkpt lat="43.4771972" lon="10.5819277"><ele>380.0</ele><time>2026-04-04T11:29:24.742Z</time></trkpt><trkpt lat="43.4771522" lon="10.581789"><ele>376.25</ele><time>2026-04-04T11:29:25.744Z</time></trkpt><trkpt lat="43.4771039" lon="10.5816376"><ele>372.5</ele><time>2026-04-04T11:29:26.723Z</time></trkpt><trkpt lat="43.4770753" lon="10.5814759"><ele>368.75</ele><time>2026-04-04T11:29:27.739Z</time></trkpt><trkpt lat="43.477067" lon="10.5812914"><ele>365.0</ele><time>2026-04-04T11:29:28.726Z</time></trkpt><trkpt lat="43.477068" lon="10.5811162"><ele>361.0</ele><time>2026-04-04T11:29:29.732Z</time></trkpt><trkpt lat="43.4770639" lon="10.5809629"><ele>357.0</ele><time>2026-04-04T11:29:30.734Z</time></trkpt><trkpt lat="43.4770494" lon="10.5808043"><ele>353.0</ele><time>2026-04-04T11:29:31.735Z</time></trkpt><trkpt lat="43.4770155" lon="10.5806381"><ele>349.0</ele><time>2026-04-04T11:29:32.733Z</time></trkpt><trkpt lat="43.4769695" lon="10.5804673"><ele>348.25</ele><time>2026-04-04T11:29:33.732Z</time></trkpt><trkpt lat="43.4769316" lon="10.5803064"><ele>347.5</ele><time>2026-04-04T11:29:34.742Z</time></trkpt><trkpt lat="43.4769117" lon="10.5801537"><ele>346.75</ele><time>2026-04-04T11:29:35.723Z</time></trkpt><trkpt lat="43.4768959" lon="10.5799774"><ele>346.0</ele><time>2026-04-04T11:29:36.735Z</time></trkpt><trkpt lat="43.4768913" lon="10.5797903"><ele>346.0</ele><time>2026-04-04T11:29:37.734Z</time></trkpt><trkpt lat="43.4768953" lon="10.5796166"><ele>346.0</ele><time>2026-04-04T11:29:38.735Z</time></trkpt><trkpt lat="43.4769139" lon="10.5794804"><ele>346.0</ele><time>2026-04-04T11:29:39.734Z</time></trkpt><trkpt lat="43.4769418" lon="10.5793665"><ele>346.0</ele><time>2026-04-04T11:29:40.742Z</time></trkpt><trkpt lat="43.4769762" lon="10.5792754"><ele>346.0</ele><time>2026-04-04T11:29:41.727Z</time></trkpt><trkpt lat="43.4770074" lon="10.5791829"><ele>345.8</ele><time>2026-04-04T11:29:42.725Z</time></trkpt><trkpt lat="43.4770335" lon="10.5791"><ele>345.6</ele><time>2026-04-04T11:29:43.735Z</time></trkpt><trkpt lat="43.4770732" lon="10.5789499"><ele>345.4</ele><time>2026-04-04T11:29:45.724Z</time></trkpt><trkpt lat="43.4770904" lon="10.5788224"><ele>345.2</ele><time>2026-04-04T11:29:47.729Z</time></trkpt><trkpt lat="43.4771031" lon="10.5786987"><ele>345.0</ele><time>2026-04-04T11:29:49.733Z</time></trkpt><trkpt lat="43.4771176" lon="10.5785659"><ele>346.2</ele><time>2026-04-04T11:29:51.734Z</time></trkpt><trkpt lat="43.4771376" lon="10.5784168"><ele>347.4</ele><time>2026-04-04T11:29:53.74Z</time></trkpt><trkpt lat="43.4771672" lon="10.5782427"><ele>348.6</ele><time>2026-04-04T11:29:55.734Z</time></trkpt><trkpt lat="43.4771858" lon="10.5781468"><ele>349.8</ele><time>2026-04-04T11:29:56.732Z</time></trkpt><trkpt lat="43.4772081" lon="10.5780431"><ele>351.0</ele><time>2026-04-04T11:29:57.727Z</time></trkpt><trkpt lat="43.4772323" lon="10.5779271"><ele>351.0</ele><time>2026-04-04T11:29:58.73Z</time></trkpt><trkpt lat="43.4772567" lon="10.5778186"><ele>351.0</ele><time>2026-04-04T11:29:59.718Z</time></trkpt><trkpt lat="43.4772866" lon="10.577698"><ele>351.0</ele><time>2026-04-04T11:30:00.728Z</time></trkpt><trkpt lat="43.4773207" lon="10.5775457"><ele>351.0</ele><time>2026-04-04T11:30:01.729Z</time></trkpt><trkpt lat="43.4773526" lon="10.5774054"><ele>351.0</ele><time>2026-04-04T11:30:02.732Z</time></trkpt><trkpt lat="43.4773819" lon="10.5772738"><ele>351.0</ele><time>2026-04-04T11:30:03.733Z</time></trkpt><trkpt lat="43.4774096" lon="10.5771457"><ele>351.0</ele><time>2026-04-04T11:30:04.735Z</time></trkpt><trkpt lat="43.4774405" lon="10.5770196"><ele>351.0</ele><time>2026-04-04T11:30:05.732Z</time></trkpt><trkpt lat="43.4774962" lon="10.5769068"><ele>351.0</ele><time>2026-04-04T11:30:06.728Z</time></trkpt><trkpt lat="43.4775633" lon="10.5767948"><ele>351.0</ele><time>2026-04-04T11:30:07.735Z</time></trkpt><trkpt lat="43.4776323" lon="10.5766936"><ele>350.75</ele><time>2026-04-04T11:30:08.725Z</time></trkpt><trkpt lat="43.477702" lon="10.5765909"><ele>350.5</ele><time>2026-04-04T11:30:09.726Z</time></trkpt><trkpt lat="43.4777795" lon="10.5764927"><ele>350.25</ele><time>2026-04-04T11:30:10.719Z</time></trkpt><trkpt lat="43.4778682" lon="10.5763856"><ele>350.0</ele><time>2026-04-04T11:30:11.729Z</time></trkpt><trkpt lat="43.4779701" lon="10.5762576"><ele>350.5</ele><time>2026-04-04T11:30:12.722Z</time></trkpt><trkpt lat="43.4780753" lon="10.5761473"><ele>351.0</ele><time>2026-04-04T11:30:13.726Z</time></trkpt><trkpt lat="43.4781825" lon="10.5760301"><ele>351.5</ele><time>2026-04-04T11:30:14.737Z</time></trkpt><trkpt lat="43.4782766" lon="10.5759021"><ele>352.0</ele><time>2026-04-04T11:30:15.726Z</time></trkpt><trkpt lat="43.4783751" lon="10.5757685"><ele>352.0</ele><time>2026-04-04T11:30:16.733Z</time></trkpt><trkpt lat="43.478476" lon="10.575634"><ele>352.0</ele><time>2026-04-04T11:30:17.726Z</time></trkpt><trkpt lat="43.4785873" lon="10.575525"><ele>352.0</ele><time>2026-04-04T11:30:18.737Z</time></trkpt><trkpt lat="43.4787048" lon="10.5754592"><ele>352.0</ele><time>2026-04-04T11:30:19.732Z</time></trkpt><trkpt lat="43.4788371" lon="10.5754183"><ele>351.25</ele><time>2026-04-04T11:30:20.716Z</time></trkpt><trkpt lat="43.4789708" lon="10.5753859"><ele>350.5</ele><time>2026-04-04T11:30:21.738Z</time></trkpt><trkpt lat="43.4791114" lon="10.5753662"><ele>349.75</ele><time>2026-04-04T11:30:22.737Z</time></trkpt><trkpt lat="43.4792461" lon="10.5753488"><ele>349.0</ele><time>2026-04-04T11:30:23.735Z</time></trkpt><trkpt lat="43.4793608" lon="10.5753412"><ele>349.0</ele><time>2026-04-04T11:30:24.731Z</time></trkpt><trkpt lat="43.4794677" lon="10.5753548"><ele>349.0</ele><time>2026-04-04T11:30:25.719Z</time></trkpt><trkpt lat="43.4795619" lon="10.5754253"><ele>349.0</ele><time>2026-04-04T11:30:26.722Z</time></trkpt><trkpt lat="43.4796542" lon="10.5755133"><ele>349.0</ele><time>2026-04-04T11:30:27.735Z</time></trkpt><trkpt lat="43.4772081" lon="10.5780431"><ele>349.4</ele><time>2026-04-04T11:29:57.727Z</time></trkpt><trkpt lat="43.4772323" lon="10.5779271"><ele>349.79999999999995</ele><time>2026-04-04T11:29:58.73Z</time></trkpt><trkpt lat="43.4772567" lon="10.5778186"><ele>350.20000000000005</ele><time>2026-04-04T11:29:59.718Z</time></trkpt><trkpt lat="43.4772866" lon="10.577698"><ele>350.6</ele><time>2026-04-04T11:30:00.728Z</time></trkpt><trkpt lat="43.4773207" lon="10.5775457"><ele>351.0</ele><time>2026-04-04T11:30:01.729Z</time></trkpt><trkpt lat="43.4773526" lon="10.5774054"><ele>351.0</ele><time>2026-04-04T11:30:02.732Z</time></trkpt><trkpt lat="43.4773819" lon="10.5772738"><ele>351.0</ele><time>2026-04-04T11:30:03.733Z</time></trkpt><trkpt lat="43.4774096" lon="10.5771457"><ele>351.0</ele><time>2026-04-04T11:30:04.735Z</time></trkpt><trkpt lat="43.4774405" lon="10.5770196"><ele>351.0</ele><time>2026-04-04T11:30:05.732Z</time></trkpt><trkpt lat="43.4774962" lon="10.5769068"><ele>351.0</ele><time>2026-04-04T11:30:06.728Z</time></trkpt><trkpt lat="43.4775633" lon="10.5767948"><ele>350.8</ele><time>2026-04-04T11:30:07.735Z</time></trkpt><trkpt lat="43.4776323" lon="10.5766936"><ele>350.6</ele><time>2026-04-04T11:30:08.725Z</time></trkpt><trkpt lat="43.477702" lon="10.5765909"><ele>350.4</ele><time>2026-04-04T11:30:09.726Z</time></trkpt><trkpt lat="43.4777795" lon="10.5764927"><ele>350.2</ele><time>2026-04-04T11:30:10.719Z</time></trkpt><trkpt lat="43.4778682" lon="10.5763856"><ele>350.0</ele><time>2026-04-04T11:30:11.729Z</time></trkpt><trkpt lat="43.4779701" lon="10.5762576"><ele>350.5</ele><time>2026-04-04T11:30:12.722Z</time></trkpt><trkpt lat="43.4780753" lon="10.5761473"><ele>351.0</ele><time>2026-04-04T11:30:13.726Z</time></trkpt><trkpt lat="43.4781825" lon="10.5760301"><ele>351.5</ele><time>2026-04-04T11:30:14.737Z</time></trkpt><trkpt lat="43.4782766" lon="10.5759021"><ele>352.0</ele><time>2026-04-04T11:30:15.726Z</time></trkpt><trkpt lat="43.4783751" lon="10.5757685"><ele>352.0</ele><time>2026-04-04T11:30:16.733Z</time></trkpt><trkpt lat="43.478476" lon="10.575634"><ele>352.0</ele><time>2026-04-04T11:30:17.726Z</time></trkpt><trkpt lat="43.4785873" lon="10.575525"><ele>352.0</ele><time>2026-04-04T11:30:18.737Z</time></trkpt><trkpt lat="43.4787048" lon="10.5754592"><ele>352.0</ele><time>2026-04-04T11:30:19.732Z</time></trkpt><trkpt lat="43.4788371" lon="10.5754183"><ele>351.25</ele><time>2026-04-04T11:30:20.716Z</time></trkpt><trkpt lat="43.4789708" lon="10.5753859"><ele>350.5</ele><time>2026-04-04T11:30:21.738Z</time></trkpt><trkpt lat="43.4791114" lon="10.5753662"><ele>349.75</ele><time>2026-04-04T11:30:22.737Z</time></trkpt><trkpt lat="43.4792461" lon="10.5753488"><ele>349.0</ele><time>2026-04-04T11:30:23.735Z</time></trkpt><trkpt lat="43.4793608" lon="10.5753412"><ele>349.0</ele><time>2026-04-04T11:30:24.731Z</time></trkpt><trkpt lat="43.4794677" lon="10.5753548"><ele>349.0</ele><time>2026-04-04T11:30:25.719Z</time></trkpt><trkpt lat="43.4795619" lon="10.5754253"><ele>349.0</ele><time>2026-04-04T11:30:26.722Z</time></trkpt><trkpt lat="43.4796542" lon="10.5755133"><ele>349.0</ele><time>2026-04-04T11:30:27.735Z</time></trkpt><trkpt lat="43.4797429" lon="10.5756027"><ele>349.0</ele><time>2026-04-04T11:30:28.731Z</time></trkpt><trkpt lat="43.4798267" lon="10.5756802"><ele>347.2</ele><time>2026-04-04T11:30:29.726Z</time></trkpt><trkpt lat="43.4799034" lon="10.5757542"><ele>345.4</ele><time>2026-04-04T11:30:30.736Z</time></trkpt><trkpt lat="43.4799929" lon="10.5757615"><ele>343.6</ele><time>2026-04-04T11:30:31.722Z</time></trkpt><trkpt lat="43.4801035" lon="10.5757384"><ele>341.8</ele><time>2026-04-04T11:30:32.725Z</time></trkpt><trkpt lat="43.4802202" lon="10.575718"><ele>340.0</ele><time>2026-04-04T11:30:33.731Z</time></trkpt><trkpt lat="43.4803442" lon="10.5756938"><ele>336.2</ele><time>2026-04-04T11:30:34.73Z</time></trkpt><trkpt lat="43.4804573" lon="10.5756844"><ele>332.4</ele><time>2026-04-04T11:30:35.727Z</time></trkpt><trkpt lat="43.4805535" lon="10.5757008"><ele>328.6</ele><time>2026-04-04T11:30:36.72Z</time></trkpt><trkpt lat="43.480639" lon="10.5757523"><ele>324.8</ele><time>2026-04-04T11:30:37.722Z</time></trkpt><trkpt lat="43.4807154" lon="10.575827"><ele>321.0</ele><time>2026-04-04T11:30:38.746Z</time></trkpt><trkpt lat="43.4807899" lon="10.5758955"><ele>321.0</ele><time>2026-04-04T11:30:39.741Z</time></trkpt><trkpt lat="43.4808595" lon="10.5759451"><ele>321.0</ele><time>2026-04-04T11:30:40.721Z</time></trkpt><trkpt lat="43.480944" lon="10.575944"><ele>321.0</ele><time>2026-04-04T11:30:41.729Z</time></trkpt><trkpt lat="43.4810275" lon="10.5758789"><ele>321.0</ele><time>2026-04-04T11:30:42.759Z</time></trkpt><trkpt lat="43.4811289" lon="10.575787"><ele>321.0</ele><time>2026-04-04T11:30:43.722Z</time></trkpt><trkpt lat="43.4812533" lon="10.5756674"><ele>319.0</ele><time>2026-04-04T11:30:44.732Z</time></trkpt><trkpt lat="43.4813851" lon="10.575551"><ele>317.0</ele><time>2026-04-04T11:30:45.739Z</time></trkpt><trkpt lat="43.4815337" lon="10.5754389"><ele>315.0</ele><time>2026-04-04T11:30:46.736Z</time></trkpt><trkpt lat="43.4816693" lon="10.5753394"><ele>315.0</ele><time>2026-04-04T11:30:47.732Z</time></trkpt><trkpt lat="43.4817835" lon="10.5752524"><ele>315.0</ele><time>2026-04-04T11:30:48.726Z</time></trkpt><trkpt lat="43.4818645" lon="10.5751504"><ele>315.0</ele><time>2026-04-04T11:30:49.722Z</time></trkpt><trkpt lat="43.4819234" lon="10.5749894"><ele>315.0</ele><time>2026-04-04T11:30:50.723Z</time></trkpt><trkpt lat="43.4819557" lon="10.5748001"><ele>315.0</ele><time>2026-04-04T11:30:51.725Z</time></trkpt><trkpt lat="43.4819766" lon="10.5745928"><ele>315.0</ele><time>2026-04-04T11:30:52.724Z</time></trkpt><trkpt lat="43.4819878" lon="10.5743779"><ele>315.0</ele><time>2026-04-04T11:30:53.73Z</time></trkpt><trkpt lat="43.481998" lon="10.5741581"><ele>315.0</ele><time>2026-04-04T11:30:54.736Z</time></trkpt><trkpt lat="43.4819967" lon="10.5739441"><ele>315.0</ele><time>2026-04-04T11:30:55.726Z</time></trkpt><trkpt lat="43.4819863" lon="10.573736"><ele>315.0</ele><time>2026-04-04T11:30:56.721Z</time></trkpt><trkpt lat="43.4819588" lon="10.5735305"><ele>313.5</ele><time>2026-04-04T11:30:57.73Z</time></trkpt><trkpt lat="43.4819291" lon="10.5733308"><ele>312.0</ele><time>2026-04-04T11:30:58.728Z</time></trkpt><trkpt lat="43.4819002" lon="10.5731404"><ele>310.5</ele><time>2026-04-04T11:30:59.723Z</time></trkpt><trkpt lat="43.4818915" lon="10.5729667"><ele>309.0</ele><time>2026-04-04T11:31:00.721Z</time></trkpt><trkpt lat="43.4818841" lon="10.5727917"><ele>305.25</ele><time>2026-04-04T11:31:01.728Z</time></trkpt><trkpt lat="43.4819025" lon="10.5726269"><ele>301.5</ele><time>2026-04-04T11:31:02.731Z</time></trkpt><trkpt lat="43.4819369" lon="10.572441"><ele>297.75</ele><time>2026-04-04T11:31:03.735Z</time></trkpt><trkpt lat="43.481965" lon="10.5722474"><ele>294.0</ele><time>2026-04-04T11:31:04.725Z</time></trkpt><trkpt lat="43.4819828" lon="10.5720319"><ele>290.6666666666667</ele><time>2026-04-04T11:31:05.732Z</time></trkpt><trkpt lat="43.4820039" lon="10.5718095"><ele>287.33333333333337</ele><time>2026-04-04T11:31:06.729Z</time></trkpt><trkpt lat="43.4820322" lon="10.5715878"><ele>284.0</ele><time>2026-04-04T11:31:07.727Z</time></trkpt><trkpt lat="43.482061" lon="10.5713757"><ele>280.33333333333337</ele><time>2026-04-04T11:31:08.728Z</time></trkpt><trkpt lat="43.4820936" lon="10.5711651"><ele>276.6666666666667</ele><time>2026-04-04T11:31:09.736Z</time></trkpt><trkpt lat="43.4821292" lon="10.5709626"><ele>273.0</ele><time>2026-04-04T11:31:10.739Z</time></trkpt><trkpt lat="43.4821632" lon="10.5707555"><ele>272.75</ele><time>2026-04-04T11:31:11.719Z</time></trkpt><trkpt lat="43.482198" lon="10.5705545"><ele>272.5</ele><time>2026-04-04T11:31:12.741Z</time></trkpt><trkpt lat="43.4822291" lon="10.5703547"><ele>272.25</ele><time>2026-04-04T11:31:13.728Z</time></trkpt><trkpt lat="43.482256" lon="10.5701564"><ele>272.0</ele><time>2026-04-04T11:31:14.729Z</time></trkpt><trkpt lat="43.4822762" lon="10.5699682"><ele>271.0</ele><time>2026-04-04T11:31:15.727Z</time></trkpt><trkpt lat="43.4822966" lon="10.5697903"><ele>270.0</ele><time>2026-04-04T11:31:16.729Z</time></trkpt><trkpt lat="43.4823247" lon="10.5696378"><ele>269.0</ele><time>2026-04-04T11:31:17.724Z</time></trkpt><trkpt lat="43.4823627" lon="10.5694946"><ele>268.0</ele><time>2026-04-04T11:31:18.728Z</time></trkpt><trkpt lat="43.4824023" lon="10.5693505"><ele>267.75</ele><time>2026-04-04T11:31:19.719Z</time></trkpt><trkpt lat="43.482455" lon="10.5692125"><ele>267.5</ele><time>2026-04-04T11:31:20.721Z</time></trkpt><trkpt lat="43.4825121" lon="10.5690605"><ele>267.25</ele><time>2026-04-04T11:31:21.712Z</time></trkpt><trkpt lat="43.482556" lon="10.5688718"><ele>267.0</ele><time>2026-04-04T11:31:22.734Z</time></trkpt><trkpt lat="43.4825984" lon="10.5686912"><ele>266.25</ele><time>2026-04-04T11:31:23.717Z</time></trkpt><trkpt lat="43.4826291" lon="10.5684928"><ele>265.5</ele><time>2026-04-04T11:31:24.728Z</time></trkpt><trkpt lat="43.4826569" lon="10.5683039"><ele>264.75</ele><time>2026-04-04T11:31:25.718Z</time></trkpt><trkpt lat="43.4826848" lon="10.5681174"><ele>264.0</ele><time>2026-04-04T11:31:26.723Z</time></trkpt><trkpt lat="43.4827077" lon="10.5679539"><ele>262.2</ele><time>2026-04-04T11:31:27.727Z</time></trkpt><trkpt lat="43.4827338" lon="10.5678183"><ele>260.4</ele><time>2026-04-04T11:31:28.726Z</time></trkpt><trkpt lat="43.4827624" lon="10.5676954"><ele>258.6</ele><time>2026-04-04T11:31:29.726Z</time></trkpt><trkpt lat="43.4827988" lon="10.5675739"><ele>256.8</ele><time>2026-04-04T11:31:30.731Z</time></trkpt><trkpt lat="43.4828338" lon="10.5674519"><ele>255.0</ele><time>2026-04-04T11:31:31.723Z</time></trkpt><trkpt lat="43.4828802" lon="10.5673394"><ele>254.0</ele><time>2026-04-04T11:31:32.721Z</time></trkpt><trkpt lat="43.4829402" lon="10.5672563"><ele>253.0</ele><time>2026-04-04T11:31:33.73Z</time></trkpt><trkpt lat="43.4830235" lon="10.5671904"><ele>252.0</ele><time>2026-04-04T11:31:34.721Z</time></trkpt><trkpt lat="43.4831113" lon="10.5671225"><ele>251.0</ele><time>2026-04-04T11:31:35.73Z</time></trkpt><trkpt lat="43.483204" lon="10.5670477"><ele>250.0</ele><time>2026-04-04T11:31:36.739Z</time></trkpt><trkpt lat="43.4832825" lon="10.5669831"><ele>247.66666666666666</ele><time>2026-04-04T11:31:37.726Z</time></trkpt><trkpt lat="43.4833586" lon="10.5669214"><ele>245.33333333333331</ele><time>2026-04-04T11:31:38.727Z</time></trkpt><trkpt lat="43.4834282" lon="10.5668717"><ele>243.0</ele><time>2026-04-04T11:31:39.73Z</time></trkpt><trkpt lat="43.4834957" lon="10.5668495"><ele>240.66666666666669</ele><time>2026-04-04T11:31:40.736Z</time></trkpt><trkpt lat="43.4835618" lon="10.566847"><ele>238.33333333333334</ele><time>2026-04-04T11:31:41.715Z</time></trkpt><trkpt lat="43.4836553" lon="10.5668753"><ele>236.0</ele><time>2026-04-04T11:31:43.719Z</time></trkpt><trkpt lat="43.4837145" lon="10.5669524"><ele>236.00000000000003</ele><time>2026-04-04T11:31:45.728Z</time></trkpt><trkpt lat="43.483756" lon="10.5670215"><ele>236.0</ele><time>2026-04-04T11:31:47.733Z</time></trkpt><trkpt lat="43.4837887" lon="10.5671019"><ele>236.0</ele><time>2026-04-04T11:31:50.72Z</time></trkpt><trkpt lat="43.4838432" lon="10.5672284"><ele>236.0</ele><time>2026-04-04T11:31:53.73Z</time></trkpt><trkpt lat="43.483874" lon="10.5674045"><ele>236.00000000000003</ele><time>2026-04-04T11:31:55.726Z</time></trkpt><trkpt lat="43.4838924" lon="10.5675064"><ele>236.0</ele><time>2026-04-04T11:31:56.727Z</time></trkpt><trkpt lat="43.4839099" lon="10.5676196"><ele>236.0</ele><time>2026-04-04T11:31:57.729Z</time></trkpt><trkpt lat="43.4839207" lon="10.5677248"><ele>236.0</ele><time>2026-04-04T11:31:58.729Z</time></trkpt><trkpt lat="43.4839168" lon="10.5678189"><ele>236.0</ele><time>2026-04-04T11:31:59.726Z</time></trkpt><trkpt lat="43.4839129" lon="10.5679212"><ele>236.0</ele><time>2026-04-04T11:32:00.714Z</time></trkpt><trkpt lat="43.4839178" lon="10.5680233"><ele>236.0</ele><time>2026-04-04T11:32:01.723Z</time></trkpt><trkpt lat="43.4839368" lon="10.5681205"><ele>236.0</ele><time>2026-04-04T11:32:04.72Z</time></trkpt><trkpt lat="43.4839782" lon="10.5680534"><ele>236.0</ele><time>2026-04-04T11:32:10.721Z</time></trkpt><trkpt lat="43.4840686" lon="10.5680264"><ele>236.00000000000003</ele><time>2026-04-04T11:32:14.73Z</time></trkpt><trkpt lat="43.4841338" lon="10.5680125"><ele>236.0</ele><time>2026-04-04T11:32:16.754Z</time></trkpt><trkpt lat="43.4841955" lon="10.5679637"><ele>236.0</ele><time>2026-04-04T11:32:17.731Z</time></trkpt><trkpt lat="43.484338" lon="10.5679551"><ele>236.0</ele><time>2026-04-04T11:32:20.728Z</time></trkpt><trkpt lat="43.4843744" lon="10.5678769"><ele>236.00000000000003</ele><time>2026-04-04T11:32:22.724Z</time></trkpt><trkpt lat="43.4844017" lon="10.5677932"><ele>236.0</ele><time>2026-04-04T11:32:24.743Z</time></trkpt><trkpt lat="43.4844854" lon="10.5677546"><ele>236.0</ele><time>2026-04-04T11:32:26.725Z</time></trkpt><trkpt lat="43.4845854" lon="10.5676692"><ele>236.00000000000003</ele><time>2026-04-04T11:32:28.73Z</time></trkpt><trkpt lat="43.4846848" lon="10.5676156"><ele>236.00000000000003</ele><time>2026-04-04T11:32:31.727Z</time></trkpt><trkpt lat="43.4847355" lon="10.5675546"><ele>236.0</ele><time>2026-04-04T11:32:33.726Z</time></trkpt><trkpt lat="43.484795" lon="10.5675127"><ele>236.0</ele><time>2026-04-04T11:32:36.726Z</time></trkpt><trkpt lat="43.4848952" lon="10.5674526"><ele>236.8</ele><time>2026-04-04T11:32:39.728Z</time></trkpt><trkpt lat="43.4849562" lon="10.567417"><ele>237.60000000000002</ele><time>2026-04-04T11:32:40.738Z</time></trkpt><trkpt lat="43.4850527" lon="10.5673804"><ele>238.4</ele><time>2026-04-04T11:32:42.727Z</time></trkpt><trkpt lat="43.4851249" lon="10.5673463"><ele>239.2</ele><time>2026-04-04T11:32:44.722Z</time></trkpt><trkpt lat="43.485227" lon="10.5673011"><ele>240.0</ele><time>2026-04-04T11:32:46.726Z</time></trkpt><trkpt lat="43.4853355" lon="10.5672147"><ele>241.2</ele><time>2026-04-04T11:32:48.729Z</time></trkpt><trkpt lat="43.4854598" lon="10.5671302"><ele>242.4</ele><time>2026-04-04T11:32:50.729Z</time></trkpt><trkpt lat="43.485525" lon="10.5670901"><ele>243.60000000000002</ele><time>2026-04-04T11:32:51.719Z</time></trkpt><trkpt lat="43.485586" lon="10.5670556"><ele>244.8</ele><time>2026-04-04T11:32:52.721Z</time></trkpt><trkpt lat="43.4856463" lon="10.5670142"><ele>246.0</ele><time>2026-04-04T11:32:53.725Z</time></trkpt><trkpt lat="43.48574" lon="10.5669425"><ele>242.5</ele><time>2026-04-04T11:32:55.737Z</time></trkpt><trkpt lat="43.4858284" lon="10.56693"><ele>239.0</ele><time>2026-04-04T11:32:57.724Z</time></trkpt><trkpt lat="43.4858974" lon="10.5669192"><ele>235.5</ele><time>2026-04-04T11:32:59.73Z</time></trkpt><trkpt lat="43.4859549" lon="10.5668455"><ele>232.0</ele><time>2026-04-04T11:33:02.731Z</time></trkpt><trkpt lat="43.486002" lon="10.5667083"><ele>228.5</ele><time>2026-04-04T11:33:09.727Z</time></trkpt><trkpt lat="43.4860796" lon="10.566625"><ele>225.0</ele><time>2026-04-04T11:33:10.738Z</time></trkpt><trkpt lat="43.4860717" lon="10.5665019"><ele>225.0</ele><time>2026-04-04T11:33:29.847Z</time></trkpt><trkpt lat="43.4860742" lon="10.5663542"><ele>225.0</ele><time>2026-04-04T11:33:33.731Z</time></trkpt><trkpt lat="43.4860605" lon="10.5662561"><ele>225.0</ele><time>2026-04-04T11:33:44.721Z</time></trkpt><trkpt lat="43.4861639" lon="10.5661357"><ele>225.0</ele><time>2026-04-04T11:34:35.745Z</time></trkpt><trkpt lat="43.4862444" lon="10.5661113"><ele>225.0</ele><time>2026-04-04T11:34:38.721Z</time></trkpt><trkpt lat="43.4863123" lon="10.566118"><ele>222.0</ele><time>2026-04-04T11:34:40.728Z</time></trkpt><trkpt lat="43.4863877" lon="10.5661461"><ele>219.0</ele><time>2026-04-04T11:34:43.723Z</time></trkpt><trkpt lat="43.486469" lon="10.566155"><ele>216.0</ele><time>2026-04-04T11:34:46.728Z</time></trkpt><trkpt lat="43.4865443" lon="10.5661813"><ele>213.0</ele><time>2026-04-04T11:34:48.718Z</time></trkpt><trkpt lat="43.4866188" lon="10.566237"><ele>210.0</ele><time>2026-04-04T11:34:50.735Z</time></trkpt><trkpt lat="43.4866748" lon="10.5663455"><ele>207.0</ele><time>2026-04-04T11:34:53.735Z</time></trkpt><trkpt lat="43.4867227" lon="10.566413"><ele>207.00000000000003</ele><time>2026-04-04T11:34:56.736Z</time></trkpt><trkpt lat="43.4867863" lon="10.5664037"><ele>207.0</ele><time>2026-04-04T11:35:03.725Z</time></trkpt><trkpt lat="43.4868186" lon="10.5663225"><ele>207.0</ele><time>2026-04-04T11:35:05.73Z</time></trkpt><trkpt lat="43.4868521" lon="10.5662248"><ele>207.0</ele><time>2026-04-04T11:35:07.725Z</time></trkpt><trkpt lat="43.4868867" lon="10.5661409"><ele>207.0</ele><time>2026-04-04T11:35:10.726Z</time></trkpt><trkpt lat="43.4869178" lon="10.5660563"><ele>207.00000000000003</ele><time>2026-04-04T11:35:12.704Z</time></trkpt><trkpt lat="43.4869488" lon="10.5659375"><ele>207.0</ele><time>2026-04-04T11:35:14.731Z</time></trkpt><trkpt lat="43.48698" lon="10.5658098"><ele>205.5</ele><time>2026-04-04T11:35:16.721Z</time></trkpt><trkpt lat="43.4869863" lon="10.5657041"><ele>204.0</ele><time>2026-04-04T11:35:18.721Z</time></trkpt><trkpt lat="43.4870123" lon="10.5655752"><ele>202.5</ele><time>2026-04-04T11:35:20.721Z</time></trkpt><trkpt lat="43.4870581" lon="10.5654883"><ele>201.0</ele><time>2026-04-04T11:35:22.706Z</time></trkpt><trkpt lat="43.4871079" lon="10.5653979"><ele>199.5</ele><time>2026-04-04T11:35:24.726Z</time></trkpt><trkpt lat="43.4871226" lon="10.5652784"><ele>198.0</ele><time>2026-04-04T11:35:28.721Z</time></trkpt><trkpt lat="43.4870858" lon="10.5652075"><ele>197.85714285714286</ele><time>2026-04-04T11:35:33.727Z</time></trkpt><trkpt lat="43.4870634" lon="10.565122"><ele>197.7142857142857</ele><time>2026-04-04T11:35:37.732Z</time></trkpt><trkpt lat="43.4870706" lon="10.5650301"><ele>197.57142857142856</ele><time>2026-04-04T11:35:40.73Z</time></trkpt><trkpt lat="43.4871037" lon="10.5649302"><ele>197.42857142857144</ele><time>2026-04-04T11:35:43.725Z</time></trkpt><trkpt lat="43.4871165" lon="10.564827"><ele>197.28571428571428</ele><time>2026-04-04T11:35:45.738Z</time></trkpt><trkpt lat="43.487086" lon="10.5647198"><ele>197.14285714285714</ele><time>2026-04-04T11:35:47.726Z</time></trkpt><trkpt lat="43.4870618" lon="10.5646222"><ele>197.0</ele><time>2026-04-04T11:35:49.724Z</time></trkpt><trkpt lat="43.4870237" lon="10.5645058"><ele>195.6</ele><time>2026-04-04T11:35:51.736Z</time></trkpt><trkpt lat="43.4869981" lon="10.5644075"><ele>194.2</ele><time>2026-04-04T11:35:54.734Z</time></trkpt><trkpt lat="43.486987" lon="10.564307"><ele>192.8</ele><time>2026-04-04T11:35:56.726Z</time></trkpt><trkpt lat="43.486975" lon="10.5641877"><ele>191.4</ele><time>2026-04-04T11:35:59.732Z</time></trkpt><trkpt lat="43.4869043" lon="10.5639219"><ele>190.0</ele><time>2026-04-04T11:36:08.738Z</time></trkpt><trkpt lat="43.4868806" lon="10.5638049"><ele>190.0</ele><time>2026-04-04T11:36:10.745Z</time></trkpt><trkpt lat="43.4868762" lon="10.5637052"><ele>190.0</ele><time>2026-04-04T11:36:12.723Z</time></trkpt><trkpt lat="43.4868784" lon="10.5635801"><ele>190.0</ele><time>2026-04-04T11:36:15.739Z</time></trkpt><trkpt lat="43.4868763" lon="10.5634668"><ele>190.0</ele><time>2026-04-04T11:36:19.729Z</time></trkpt><trkpt lat="43.4869263" lon="10.5634085"><ele>190.0</ele><time>2026-04-04T11:36:23.723Z</time></trkpt><trkpt lat="43.4870141" lon="10.5634262"><ele>190.0</ele><time>2026-04-04T11:36:25.734Z</time></trkpt><trkpt lat="43.4871194" lon="10.5634096"><ele>186.6</ele><time>2026-04-04T11:36:27.728Z</time></trkpt><trkpt lat="43.4872445" lon="10.5634031"><ele>183.2</ele><time>2026-04-04T11:36:29.743Z</time></trkpt><trkpt lat="43.4873117" lon="10.563393"><ele>179.8</ele><time>2026-04-04T11:36:30.738Z</time></trkpt><trkpt lat="43.4873765" lon="10.5633378"><ele>176.4</ele><time>2026-04-04T11:36:32.731Z</time></trkpt><trkpt lat="43.4873996" lon="10.5632321"><ele>173.0</ele><time>2026-04-04T11:37:27.729Z</time></trkpt><trkpt lat="43.4874811" lon="10.5630631"><ele>173.0</ele><time>2026-04-04T11:37:29.73Z</time></trkpt><trkpt lat="43.4875381" lon="10.562942"><ele>173.0</ele><time>2026-04-04T11:37:30.739Z</time></trkpt><trkpt lat="43.4876053" lon="10.5628099"><ele>173.0</ele><time>2026-04-04T11:37:31.739Z</time></trkpt><trkpt lat="43.4876828" lon="10.5626728"><ele>173.0</ele><time>2026-04-04T11:37:32.741Z</time></trkpt><trkpt lat="43.4877667" lon="10.5625391"><ele>173.75</ele><time>2026-04-04T11:37:33.741Z</time></trkpt><trkpt lat="43.4878542" lon="10.562408"><ele>174.5</ele><time>2026-04-04T11:37:34.72Z</time></trkpt><trkpt lat="43.4879447" lon="10.5622792"><ele>175.25</ele><time>2026-04-04T11:37:35.738Z</time></trkpt><trkpt lat="43.4880338" lon="10.5621537"><ele>176.0</ele><time>2026-04-04T11:37:36.732Z</time></trkpt><trkpt lat="43.4881249" lon="10.5620488"><ele>175.33333333333331</ele><time>2026-04-04T11:37:37.725Z</time></trkpt><trkpt lat="43.488206" lon="10.5619614"><ele>174.66666666666666</ele><time>2026-04-04T11:37:38.739Z</time></trkpt><trkpt lat="43.4882736" lon="10.5618828"><ele>174.0</ele><time>2026-04-04T11:37:39.74Z</time></trkpt><trkpt lat="43.4883235" lon="10.5618002"><ele>173.33333333333334</ele><time>2026-04-04T11:37:40.738Z</time></trkpt><trkpt lat="43.488355" lon="10.561705"><ele>172.66666666666669</ele><time>2026-04-04T11:37:41.735Z</time></trkpt><trkpt lat="43.4883726" lon="10.5615938"><ele>172.0</ele><time>2026-04-04T11:37:42.73Z</time></trkpt><trkpt lat="43.4883816" lon="10.5614737"><ele>172.0</ele><time>2026-04-04T11:37:43.742Z</time></trkpt><trkpt lat="43.4883902" lon="10.5613446"><ele>172.0</ele><time>2026-04-04T11:37:44.722Z</time></trkpt><trkpt lat="43.4883984" lon="10.5612102"><ele>172.0</ele><time>2026-04-04T11:37:45.734Z</time></trkpt><trkpt lat="43.4884065" lon="10.5610756"><ele>172.0</ele><time>2026-04-04T11:37:46.733Z</time></trkpt><trkpt lat="43.4884146" lon="10.5609318"><ele>172.0</ele><time>2026-04-04T11:37:47.743Z</time></trkpt><trkpt lat="43.4884227" lon="10.560785"><ele>171.6</ele><time>2026-04-04T11:37:48.731Z</time></trkpt><trkpt lat="43.4884357" lon="10.5606389"><ele>171.2</ele><time>2026-04-04T11:37:49.732Z</time></trkpt><trkpt lat="43.4884472" lon="10.5605"><ele>170.8</ele><time>2026-04-04T11:37:50.742Z</time></trkpt><trkpt lat="43.4884545" lon="10.56036"><ele>170.4</ele><time>2026-04-04T11:37:51.728Z</time></trkpt><trkpt lat="43.4884586" lon="10.5602149"><ele>170.0</ele><time>2026-04-04T11:37:52.719Z</time></trkpt><trkpt lat="43.4884568" lon="10.5600626"><ele>169.75</ele><time>2026-04-04T11:37:53.744Z</time></trkpt><trkpt lat="43.4884524" lon="10.5598988"><ele>169.5</ele><time>2026-04-04T11:37:54.732Z</time></trkpt><trkpt lat="43.4884475" lon="10.5597309"><ele>169.25</ele><time>2026-04-04T11:37:55.729Z</time></trkpt><trkpt lat="43.4884409" lon="10.5595656"><ele>169.0</ele><time>2026-04-04T11:37:56.738Z</time></trkpt><trkpt lat="43.4884349" lon="10.5594034"><ele>168.5</ele><time>2026-04-04T11:37:57.742Z</time></trkpt><trkpt lat="43.4884299" lon="10.5592388"><ele>168.0</ele><time>2026-04-04T11:37:58.733Z</time></trkpt><trkpt lat="43.4884331" lon="10.5590702"><ele>167.5</ele><time>2026-04-04T11:37:59.738Z</time></trkpt><trkpt lat="43.4884384" lon="10.5589019"><ele>167.0</ele><time>2026-04-04T11:38:00.741Z</time></trkpt><trkpt lat="43.4884631" lon="10.5587389"><ele>166.25</ele><time>2026-04-04T11:38:01.735Z</time></trkpt><trkpt lat="43.4884915" lon="10.5585785"><ele>165.5</ele><time>2026-04-04T11:38:02.739Z</time></trkpt><trkpt lat="43.4885185" lon="10.5584184"><ele>164.75</ele><time>2026-04-04T11:38:03.73Z</time></trkpt><trkpt lat="43.4885438" lon="10.5582547"><ele>164.0</ele><time>2026-04-04T11:38:04.734Z</time></trkpt><trkpt lat="43.4885702" lon="10.558091"><ele>164.0</ele><time>2026-04-04T11:38:05.74Z</time></trkpt><trkpt lat="43.4885959" lon="10.5579253"><ele>164.0</ele><time>2026-04-04T11:38:06.729Z</time></trkpt><trkpt lat="43.4886201" lon="10.5577571"><ele>164.0</ele><time>2026-04-04T11:38:07.739Z</time></trkpt><trkpt lat="43.4886448" lon="10.557585"><ele>164.0</ele><time>2026-04-04T11:38:08.735Z</time></trkpt><trkpt lat="43.4886689" lon="10.557407"><ele>164.0</ele><time>2026-04-04T11:38:09.736Z</time></trkpt><trkpt lat="43.4886942" lon="10.5572265"><ele>164.0</ele><time>2026-04-04T11:38:10.713Z</time></trkpt><trkpt lat="43.4887226" lon="10.5570474"><ele>164.0</ele><time>2026-04-04T11:38:11.735Z</time></trkpt><trkpt lat="43.488755" lon="10.5568729"><ele>164.0</ele><time>2026-04-04T11:38:12.723Z</time></trkpt><trkpt lat="43.4887923" lon="10.5567043"><ele>163.25</ele><time>2026-04-04T11:38:13.72Z</time></trkpt><trkpt lat="43.4888326" lon="10.556545"><ele>162.5</ele><time>2026-04-04T11:38:14.737Z</time></trkpt><trkpt lat="43.4888752" lon="10.5563857"><ele>161.75</ele><time>2026-04-04T11:38:15.735Z</time></trkpt><trkpt lat="43.4889195" lon="10.5562258"><ele>161.0</ele><time>2026-04-04T11:38:16.735Z</time></trkpt><trkpt lat="43.4889655" lon="10.5560607"><ele>161.0</ele><time>2026-04-04T11:38:17.732Z</time></trkpt><trkpt lat="43.4890137" lon="10.5558936"><ele>161.0</ele><time>2026-04-04T11:38:18.748Z</time></trkpt><trkpt lat="43.4890681" lon="10.5557356"><ele>161.0</ele><time>2026-04-04T11:38:19.739Z</time></trkpt><trkpt lat="43.4891311" lon="10.555588"><ele>161.0</ele><time>2026-04-04T11:38:20.737Z</time></trkpt><trkpt lat="43.4892036" lon="10.55545"><ele>160.0</ele><time>2026-04-04T11:38:21.74Z</time></trkpt><trkpt lat="43.4892843" lon="10.5553181"><ele>159.0</ele><time>2026-04-04T11:38:22.73Z</time></trkpt><trkpt lat="43.4893702" lon="10.5551938"><ele>158.0</ele><time>2026-04-04T11:38:23.734Z</time></trkpt><trkpt lat="43.4894591" lon="10.5550746"><ele>157.0</ele><time>2026-04-04T11:38:24.733Z</time></trkpt><trkpt lat="43.48955" lon="10.554955"><ele>156.0</ele><time>2026-04-04T11:38:25.742Z</time></trkpt><trkpt lat="43.4896397" lon="10.5548302"><ele>155.0</ele><time>2026-04-04T11:38:26.718Z</time></trkpt><trkpt lat="43.4897292" lon="10.5547058"><ele>154.0</ele><time>2026-04-04T11:38:27.747Z</time></trkpt><trkpt lat="43.4898143" lon="10.5545863"><ele>153.0</ele><time>2026-04-04T11:38:28.735Z</time></trkpt><trkpt lat="43.4898932" lon="10.5544677"><ele>152.5</ele><time>2026-04-04T11:38:29.744Z</time></trkpt><trkpt lat="43.4899618" lon="10.554337"><ele>152.0</ele><time>2026-04-04T11:38:30.74Z</time></trkpt><trkpt lat="43.4900308" lon="10.5542049"><ele>151.5</ele><time>2026-04-04T11:38:31.739Z</time></trkpt><trkpt lat="43.4900803" lon="10.5540563"><ele>151.0</ele><time>2026-04-04T11:38:32.737Z</time></trkpt><trkpt lat="43.4901153" lon="10.5538836"><ele>151.0</ele><time>2026-04-04T11:38:33.722Z</time></trkpt><trkpt lat="43.4901451" lon="10.5537066"><ele>151.0</ele><time>2026-04-04T11:38:34.731Z</time></trkpt><trkpt lat="43.4901702" lon="10.5535277"><ele>151.0</ele><time>2026-04-04T11:38:35.727Z</time></trkpt><trkpt lat="43.4901953" lon="10.5533459"><ele>151.0</ele><time>2026-04-04T11:38:36.737Z</time></trkpt><trkpt lat="43.490223" lon="10.5531655"><ele>149.75</ele><time>2026-04-04T11:38:37.732Z</time></trkpt><trkpt lat="43.4902555" lon="10.5529862"><ele>148.5</ele><time>2026-04-04T11:38:38.736Z</time></trkpt><trkpt lat="43.49029" lon="10.5528112"><ele>147.25</ele><time>2026-04-04T11:38:39.728Z</time></trkpt><trkpt lat="43.4903308" lon="10.552635"><ele>146.0</ele><time>2026-04-04T11:38:40.743Z</time></trkpt><trkpt lat="43.4903761" lon="10.5524598"><ele>146.0</ele><time>2026-04-04T11:38:41.735Z</time></trkpt><trkpt lat="43.4904234" lon="10.552282"><ele>146.0</ele><time>2026-04-04T11:38:42.734Z</time></trkpt><trkpt lat="43.4904625" lon="10.5520983"><ele>146.0</ele><time>2026-04-04T11:38:43.738Z</time></trkpt><trkpt lat="43.4904849" lon="10.5519111"><ele>146.0</ele><time>2026-04-04T11:38:44.74Z</time></trkpt><trkpt lat="43.4904883" lon="10.5517223"><ele>146.0</ele><time>2026-04-04T11:38:45.738Z</time></trkpt><trkpt lat="43.4904827" lon="10.5515355"><ele>146.0</ele><time>2026-04-04T11:38:46.75Z</time></trkpt><trkpt lat="43.490479" lon="10.5513513"><ele>146.0</ele><time>2026-04-04T11:38:47.737Z</time></trkpt><trkpt lat="43.4904768" lon="10.5511638"><ele>146.0</ele><time>2026-04-04T11:38:48.73Z</time></trkpt><trkpt lat="43.4905029" lon="10.5509857"><ele>146.75</ele><time>2026-04-04T11:38:49.741Z</time></trkpt><trkpt lat="43.4905413" lon="10.5508128"><ele>147.5</ele><time>2026-04-04T11:38:50.737Z</time></trkpt><trkpt lat="43.4905839" lon="10.5506386"><ele>148.25</ele><time>2026-04-04T11:38:51.734Z</time></trkpt><trkpt lat="43.4906225" lon="10.550461"><ele>149.0</ele><time>2026-04-04T11:38:52.745Z</time></trkpt><trkpt lat="43.4906571" lon="10.5502824"><ele>150.0</ele><time>2026-04-04T11:38:53.737Z</time></trkpt><trkpt lat="43.4906853" lon="10.5500996"><ele>151.0</ele><time>2026-04-04T11:38:54.736Z</time></trkpt><trkpt lat="43.4907007" lon="10.5499129"><ele>152.0</ele><time>2026-04-04T11:38:55.728Z</time></trkpt><trkpt lat="43.4907055" lon="10.549721"><ele>153.0</ele><time>2026-04-04T11:38:56.735Z</time></trkpt><trkpt lat="43.4907048" lon="10.5495241"><ele>153.25</ele><time>2026-04-04T11:38:57.737Z</time></trkpt><trkpt lat="43.4906985" lon="10.54932"><ele>153.5</ele><time>2026-04-04T11:38:58.73Z</time></trkpt><trkpt lat="43.4906894" lon="10.5491142"><ele>153.75</ele><time>2026-04-04T11:38:59.733Z</time></trkpt><trkpt lat="43.4906804" lon="10.5489165"><ele>154.0</ele><time>2026-04-04T11:39:00.723Z</time></trkpt><trkpt lat="43.4906664" lon="10.5487266"><ele>153.5</ele><time>2026-04-04T11:39:01.724Z</time></trkpt><trkpt lat="43.490644" lon="10.5485343"><ele>153.0</ele><time>2026-04-04T11:39:02.746Z</time></trkpt><trkpt lat="43.4906177" lon="10.5483428"><ele>152.5</ele><time>2026-04-04T11:39:03.719Z</time></trkpt><trkpt lat="43.4905931" lon="10.5481539"><ele>152.0</ele><time>2026-04-04T11:39:04.736Z</time></trkpt><trkpt lat="43.4905717" lon="10.5479628"><ele>151.25</ele><time>2026-04-04T11:39:05.74Z</time></trkpt><trkpt lat="43.4905587" lon="10.547769"><ele>150.5</ele><time>2026-04-04T11:39:06.733Z</time></trkpt><trkpt lat="43.4905592" lon="10.5475773"><ele>149.75</ele><time>2026-04-04T11:39:07.731Z</time></trkpt><trkpt lat="43.4905701" lon="10.5473922"><ele>149.0</ele><time>2026-04-04T11:39:08.736Z</time></trkpt><trkpt lat="43.4905858" lon="10.5472078"><ele>148.5</ele><time>2026-04-04T11:39:09.739Z</time></trkpt><trkpt lat="43.4906034" lon="10.5470209"><ele>148.0</ele><time>2026-04-04T11:39:10.729Z</time></trkpt><trkpt lat="43.4906225" lon="10.546834"><ele>147.5</ele><time>2026-04-04T11:39:11.737Z</time></trkpt><trkpt lat="43.4906418" lon="10.5466476"><ele>147.0</ele><time>2026-04-04T11:39:12.741Z</time></trkpt><trkpt lat="43.4906611" lon="10.5464633"><ele>147.0</ele><time>2026-04-04T11:39:13.741Z</time></trkpt><trkpt lat="43.4906809" lon="10.5462866"><ele>147.0</ele><time>2026-04-04T11:39:14.741Z</time></trkpt><trkpt lat="43.4907001" lon="10.5461196"><ele>147.0</ele><time>2026-04-04T11:39:15.741Z</time></trkpt><trkpt lat="43.4907182" lon="10.5459572"><ele>147.0</ele><time>2026-04-04T11:39:16.722Z</time></trkpt><trkpt lat="43.4907339" lon="10.5457933"><ele>147.0</ele><time>2026-04-04T11:39:17.73Z</time></trkpt><trkpt lat="43.4907471" lon="10.5456244"><ele>147.0</ele><time>2026-04-04T11:39:18.737Z</time></trkpt><trkpt lat="43.4907617" lon="10.5454571"><ele>147.0</ele><time>2026-04-04T11:39:19.734Z</time></trkpt><trkpt lat="43.4907856" lon="10.5452968"><ele>147.0</ele><time>2026-04-04T11:39:20.736Z</time></trkpt><trkpt lat="43.4908191" lon="10.5451437"><ele>147.0</ele><time>2026-04-04T11:39:21.738Z</time></trkpt><trkpt lat="43.490863" lon="10.5449945"><ele>147.0</ele><time>2026-04-04T11:39:22.736Z</time></trkpt><trkpt lat="43.4909176" lon="10.5448479"><ele>147.0</ele><time>2026-04-04T11:39:23.736Z</time></trkpt><trkpt lat="43.4909815" lon="10.5447037"><ele>147.0</ele><time>2026-04-04T11:39:24.747Z</time></trkpt><trkpt lat="43.4910546" lon="10.5445635"><ele>147.5</ele><time>2026-04-04T11:39:25.735Z</time></trkpt><trkpt lat="43.4911324" lon="10.5444323"><ele>148.0</ele><time>2026-04-04T11:39:26.739Z</time></trkpt><trkpt lat="43.4912173" lon="10.5443051"><ele>148.5</ele><time>2026-04-04T11:39:27.736Z</time></trkpt><trkpt lat="43.4913054" lon="10.5441816"><ele>149.0</ele><time>2026-04-04T11:39:28.732Z</time></trkpt><trkpt lat="43.4913968" lon="10.5440625"><ele>148.0</ele><time>2026-04-04T11:39:29.748Z</time></trkpt><trkpt lat="43.491489" lon="10.5439407"><ele>147.0</ele><time>2026-04-04T11:39:30.729Z</time></trkpt><trkpt lat="43.4915801" lon="10.5438183"><ele>146.0</ele><time>2026-04-04T11:39:31.751Z</time></trkpt><trkpt lat="43.4916704" lon="10.5437001"><ele>145.0</ele><time>2026-04-04T11:39:32.736Z</time></trkpt><trkpt lat="43.491765" lon="10.5435917"><ele>145.0</ele><time>2026-04-04T11:39:33.726Z</time></trkpt><trkpt lat="43.4918651" lon="10.5435001"><ele>145.0</ele><time>2026-04-04T11:39:34.742Z</time></trkpt><trkpt lat="43.4919726" lon="10.5434197"><ele>145.0</ele><time>2026-04-04T11:39:35.722Z</time></trkpt><trkpt lat="43.4920825" lon="10.5433483"><ele>145.0</ele><time>2026-04-04T11:39:36.733Z</time></trkpt><trkpt lat="43.4921915" lon="10.5432892"><ele>143.5</ele><time>2026-04-04T11:39:37.726Z</time></trkpt><trkpt lat="43.492302" lon="10.5432427"><ele>142.0</ele><time>2026-04-04T11:39:38.733Z</time></trkpt><trkpt lat="43.4924146" lon="10.5432095"><ele>140.5</ele><time>2026-04-04T11:39:39.74Z</time></trkpt><trkpt lat="43.4925285" lon="10.5431924"><ele>139.0</ele><time>2026-04-04T11:39:40.746Z</time></trkpt><trkpt lat="43.4926422" lon="10.5431884"><ele>139.0</ele><time>2026-04-04T11:39:41.748Z</time></trkpt><trkpt lat="43.4927542" lon="10.5431903"><ele>139.0</ele><time>2026-04-04T11:39:42.74Z</time></trkpt><trkpt lat="43.4928637" lon="10.5431909"><ele>139.0</ele><time>2026-04-04T11:39:43.741Z</time></trkpt><trkpt lat="43.492974" lon="10.5431858"><ele>139.0</ele><time>2026-04-04T11:39:44.726Z</time></trkpt><trkpt lat="43.4930779" lon="10.5431582"><ele>139.0</ele><time>2026-04-04T11:39:45.731Z</time></trkpt><trkpt lat="43.4931739" lon="10.5430992"><ele>139.5</ele><time>2026-04-04T11:39:46.742Z</time></trkpt><trkpt lat="43.4932619" lon="10.5430073"><ele>140.0</ele><time>2026-04-04T11:39:47.739Z</time></trkpt><trkpt lat="43.4933405" lon="10.5428896"><ele>140.5</ele><time>2026-04-04T11:39:48.727Z</time></trkpt><trkpt lat="43.493414" lon="10.5427536"><ele>141.0</ele><time>2026-04-04T11:39:49.733Z</time></trkpt><trkpt lat="43.4934808" lon="10.5426047"><ele>141.0</ele><time>2026-04-04T11:39:50.743Z</time></trkpt><trkpt lat="43.4935338" lon="10.5424427"><ele>141.0</ele><time>2026-04-04T11:39:51.735Z</time></trkpt><trkpt lat="43.4935707" lon="10.5422751"><ele>141.0</ele><time>2026-04-04T11:39:52.748Z</time></trkpt><trkpt lat="43.4936013" lon="10.5421088"><ele>141.0</ele><time>2026-04-04T11:39:53.747Z</time></trkpt><trkpt lat="43.4936345" lon="10.5419472"><ele>141.25</ele><time>2026-04-04T11:39:54.74Z</time></trkpt><trkpt lat="43.4936787" lon="10.5417947"><ele>141.5</ele><time>2026-04-04T11:39:55.732Z</time></trkpt><trkpt lat="43.4937389" lon="10.5416563"><ele>141.75</ele><time>2026-04-04T11:39:56.736Z</time></trkpt><trkpt lat="43.4938144" lon="10.5415336"><ele>142.0</ele><time>2026-04-04T11:39:57.741Z</time></trkpt><trkpt lat="43.4939059" lon="10.5414382"><ele>143.79999999999998</ele><time>2026-04-04T11:39:58.732Z</time></trkpt><trkpt lat="43.4940091" lon="10.5413702"><ele>145.6</ele><time>2026-04-04T11:39:59.742Z</time></trkpt><trkpt lat="43.494107" lon="10.541309"><ele>147.39999999999998</ele><time>2026-04-04T11:40:00.725Z</time></trkpt><trkpt lat="43.4942109" lon="10.5413105"><ele>149.2</ele><time>2026-04-04T11:40:01.73Z</time></trkpt><trkpt lat="43.4943132" lon="10.5413355"><ele>151.0</ele><time>2026-04-04T11:40:02.733Z</time></trkpt><trkpt lat="43.494418" lon="10.5413768"><ele>151.0</ele><time>2026-04-04T11:40:03.735Z</time></trkpt><trkpt lat="43.4945271" lon="10.5413989"><ele>151.0</ele><time>2026-04-04T11:40:04.735Z</time></trkpt><trkpt lat="43.4946358" lon="10.5413789"><ele>151.0</ele><time>2026-04-04T11:40:05.74Z</time></trkpt><trkpt lat="43.4947397" lon="10.5413239"><ele>151.0</ele><time>2026-04-04T11:40:06.734Z</time></trkpt><trkpt lat="43.4948408" lon="10.5412518"><ele>151.0</ele><time>2026-04-04T11:40:07.736Z</time></trkpt><trkpt lat="43.4949473" lon="10.5411801"><ele>150.75</ele><time>2026-04-04T11:40:08.738Z</time></trkpt><trkpt lat="43.4950577" lon="10.5411134"><ele>150.5</ele><time>2026-04-04T11:40:09.719Z</time></trkpt><trkpt lat="43.4951728" lon="10.5410508"><ele>150.25</ele><time>2026-04-04T11:40:10.739Z</time></trkpt><trkpt lat="43.4952914" lon="10.5409947"><ele>150.0</ele><time>2026-04-04T11:40:11.741Z</time></trkpt><trkpt lat="43.4954137" lon="10.5409463"><ele>149.75</ele><time>2026-04-04T11:40:12.737Z</time></trkpt><trkpt lat="43.4955313" lon="10.5409043"><ele>149.5</ele><time>2026-04-04T11:40:13.738Z</time></trkpt><trkpt lat="43.4956367" lon="10.5408646"><ele>149.25</ele><time>2026-04-04T11:40:14.742Z</time></trkpt><trkpt lat="43.4957409" lon="10.5408258"><ele>149.0</ele><time>2026-04-04T11:40:15.737Z</time></trkpt><trkpt lat="43.4958497" lon="10.5407867"><ele>149.0</ele><time>2026-04-04T11:40:16.746Z</time></trkpt><trkpt lat="43.4959638" lon="10.5407413"><ele>149.0</ele><time>2026-04-04T11:40:17.736Z</time></trkpt><trkpt lat="43.4960818" lon="10.5406875"><ele>149.0</ele><time>2026-04-04T11:40:18.737Z</time></trkpt><trkpt lat="43.496205" lon="10.5406289"><ele>149.0</ele><time>2026-04-04T11:40:19.731Z</time></trkpt><trkpt lat="43.4963287" lon="10.5405707"><ele>148.0</ele><time>2026-04-04T11:40:20.725Z</time></trkpt><trkpt lat="43.4964549" lon="10.5405073"><ele>147.0</ele><time>2026-04-04T11:40:21.728Z</time></trkpt><trkpt lat="43.4965809" lon="10.5404382"><ele>146.0</ele><time>2026-04-04T11:40:22.726Z</time></trkpt><trkpt lat="43.496705" lon="10.5403691"><ele>145.0</ele><time>2026-04-04T11:40:23.728Z</time></trkpt><trkpt lat="43.4968281" lon="10.5403104"><ele>145.0</ele><time>2026-04-04T11:40:24.744Z</time></trkpt><trkpt lat="43.4969459" lon="10.540278"><ele>145.0</ele><time>2026-04-04T11:40:25.726Z</time></trkpt><trkpt lat="43.4970625" lon="10.5402708"><ele>145.0</ele><time>2026-04-04T11:40:26.735Z</time></trkpt><trkpt lat="43.497184" lon="10.5402801"><ele>145.0</ele><time>2026-04-04T11:40:27.744Z</time></trkpt><trkpt lat="43.4973116" lon="10.5402943"><ele>144.75</ele><time>2026-04-04T11:40:28.734Z</time></trkpt><trkpt lat="43.4974464" lon="10.5402921"><ele>144.5</ele><time>2026-04-04T11:40:29.748Z</time></trkpt><trkpt lat="43.4975839" lon="10.5402686"><ele>144.25</ele><time>2026-04-04T11:40:30.737Z</time></trkpt><trkpt lat="43.4977216" lon="10.5402345"><ele>144.0</ele><time>2026-04-04T11:40:31.731Z</time></trkpt><trkpt lat="43.4978605" lon="10.5401972"><ele>143.25</ele><time>2026-04-04T11:40:32.734Z</time></trkpt><trkpt lat="43.4979984" lon="10.540164"><ele>142.5</ele><time>2026-04-04T11:40:33.734Z</time></trkpt><trkpt lat="43.4981301" lon="10.540135"><ele>141.75</ele><time>2026-04-04T11:40:34.736Z</time></trkpt><trkpt lat="43.4982596" lon="10.5401014"><ele>141.0</ele><time>2026-04-04T11:40:35.737Z</time></trkpt><trkpt lat="43.4983823" lon="10.54005"><ele>141.0</ele><time>2026-04-04T11:40:36.729Z</time></trkpt><trkpt lat="43.4985002" lon="10.5399703"><ele>141.0</ele><time>2026-04-04T11:40:37.739Z</time></trkpt><trkpt lat="43.4986126" lon="10.5398664"><ele>141.0</ele><time>2026-04-04T11:40:38.737Z</time></trkpt><trkpt lat="43.4987242" lon="10.5397496"><ele>141.0</ele><time>2026-04-04T11:40:39.727Z</time></trkpt><trkpt lat="43.4988394" lon="10.539625"><ele>140.5</ele><time>2026-04-04T11:40:40.742Z</time></trkpt><trkpt lat="43.4989539" lon="10.5394963"><ele>140.0</ele><time>2026-04-04T11:40:41.745Z</time></trkpt><trkpt lat="43.4990676" lon="10.5393657"><ele>139.5</ele><time>2026-04-04T11:40:42.734Z</time></trkpt><trkpt lat="43.4991795" lon="10.5392349"><ele>139.0</ele><time>2026-04-04T11:40:43.725Z</time></trkpt><trkpt lat="43.4992878" lon="10.5390985"><ele>139.0</ele><time>2026-04-04T11:40:44.725Z</time></trkpt><trkpt lat="43.4993968" lon="10.5389626"><ele>139.0</ele><time>2026-04-04T11:40:45.733Z</time></trkpt><trkpt lat="43.4995058" lon="10.5388381"><ele>139.0</ele><time>2026-04-04T11:40:46.729Z</time></trkpt><trkpt lat="43.4996146" lon="10.5387399"><ele>139.0</ele><time>2026-04-04T11:40:47.738Z</time></trkpt><trkpt lat="43.4997322" lon="10.5386709"><ele>139.5</ele><time>2026-04-04T11:40:48.721Z</time></trkpt><trkpt lat="43.4998585" lon="10.5386386"><ele>140.0</ele><time>2026-04-04T11:40:49.728Z</time></trkpt><trkpt lat="43.4999946" lon="10.5386415"><ele>140.5</ele><time>2026-04-04T11:40:50.721Z</time></trkpt><trkpt lat="43.5001371" lon="10.5386711"><ele>141.0</ele><time>2026-04-04T11:40:51.725Z</time></trkpt><trkpt lat="43.5002853" lon="10.5387087"><ele>141.25</ele><time>2026-04-04T11:40:52.728Z</time></trkpt><trkpt lat="43.5004335" lon="10.5387474"><ele>141.5</ele><time>2026-04-04T11:40:53.723Z</time></trkpt><trkpt lat="43.5005797" lon="10.5387858"><ele>141.75</ele><time>2026-04-04T11:40:54.727Z</time></trkpt><trkpt lat="43.5007244" lon="10.5388244"><ele>142.0</ele><time>2026-04-04T11:40:55.745Z</time></trkpt><trkpt lat="43.5008678" lon="10.538863"><ele>142.0</ele><time>2026-04-04T11:40:56.731Z</time></trkpt><trkpt lat="43.5010069" lon="10.5388978"><ele>142.0</ele><time>2026-04-04T11:40:57.73Z</time></trkpt><trkpt lat="43.5011367" lon="10.5389216"><ele>142.0</ele><time>2026-04-04T11:40:58.726Z</time></trkpt><trkpt lat="43.5012519" lon="10.5389431"><ele>142.0</ele><time>2026-04-04T11:40:59.722Z</time></trkpt><trkpt lat="43.5013621" lon="10.5389649"><ele>141.6</ele><time>2026-04-04T11:41:00.722Z</time></trkpt><trkpt lat="43.5014662" lon="10.5390075"><ele>141.2</ele><time>2026-04-04T11:41:01.725Z</time></trkpt><trkpt lat="43.5015687" lon="10.5390594"><ele>140.8</ele><time>2026-04-04T11:41:02.725Z</time></trkpt><trkpt lat="43.5016751" lon="10.5391212"><ele>140.4</ele><time>2026-04-04T11:41:03.719Z</time></trkpt><trkpt lat="43.5017798" lon="10.5391875"><ele>140.0</ele><time>2026-04-04T11:41:04.725Z</time></trkpt><trkpt lat="43.5018777" lon="10.5392643"><ele>140.0</ele><time>2026-04-04T11:41:05.742Z</time></trkpt><trkpt lat="43.5019619" lon="10.5393584"><ele>140.0</ele><time>2026-04-04T11:41:06.73Z</time></trkpt><trkpt lat="43.5020291" lon="10.5394706"><ele>140.0</ele><time>2026-04-04T11:41:07.728Z</time></trkpt><trkpt lat="43.5020854" lon="10.539602"><ele>140.0</ele><time>2026-04-04T11:41:08.741Z</time></trkpt><trkpt lat="43.5021401" lon="10.5397531"><ele>140.0</ele><time>2026-04-04T11:41:09.734Z</time></trkpt><trkpt lat="43.502202" lon="10.5399145"><ele>137.25</ele><time>2026-04-04T11:41:10.737Z</time></trkpt><trkpt lat="43.5022739" lon="10.5400734"><ele>134.5</ele><time>2026-04-04T11:41:11.735Z</time></trkpt><trkpt lat="43.5023575" lon="10.5402195"><ele>131.75</ele><time>2026-04-04T11:41:12.739Z</time></trkpt><trkpt lat="43.5024576" lon="10.5403518"><ele>129.0</ele><time>2026-04-04T11:41:13.738Z</time></trkpt><trkpt lat="43.502568" lon="10.5404784"><ele>129.0</ele><time>2026-04-04T11:41:14.743Z</time></trkpt><trkpt lat="43.5026801" lon="10.5406053"><ele>129.0</ele><time>2026-04-04T11:41:15.732Z</time></trkpt><trkpt lat="43.5027853" lon="10.5407336"><ele>129.0</ele><time>2026-04-04T11:41:16.73Z</time></trkpt><trkpt lat="43.5028834" lon="10.5408683"><ele>129.0</ele><time>2026-04-04T11:41:17.73Z</time></trkpt><trkpt lat="43.5029728" lon="10.5410141"><ele>128.25</ele><time>2026-04-04T11:41:18.736Z</time></trkpt><trkpt lat="43.5030557" lon="10.5411746"><ele>127.5</ele><time>2026-04-04T11:41:19.749Z</time></trkpt><trkpt lat="43.5031388" lon="10.5413452"><ele>126.75</ele><time>2026-04-04T11:41:20.728Z</time></trkpt><trkpt lat="43.5032198" lon="10.5415219"><ele>126.0</ele><time>2026-04-04T11:41:21.733Z</time></trkpt><trkpt lat="43.503299" lon="10.5417004"><ele>126.0</ele><time>2026-04-04T11:41:22.731Z</time></trkpt><trkpt lat="43.5033757" lon="10.5418773"><ele>126.0</ele><time>2026-04-04T11:41:23.73Z</time></trkpt><trkpt lat="43.5034521" lon="10.542052"><ele>126.0</ele><time>2026-04-04T11:41:24.733Z</time></trkpt><trkpt lat="43.5035269" lon="10.5422182"><ele>126.0</ele><time>2026-04-04T11:41:25.751Z</time></trkpt><trkpt lat="43.5035963" lon="10.5423642"><ele>126.0</ele><time>2026-04-04T11:41:26.731Z</time></trkpt><trkpt lat="43.5036622" lon="10.542496"><ele>126.0</ele><time>2026-04-04T11:41:27.741Z</time></trkpt><trkpt lat="43.5037269" lon="10.5426194"><ele>126.0</ele><time>2026-04-04T11:41:28.742Z</time></trkpt><trkpt lat="43.5037894" lon="10.5427382"><ele>126.0</ele><time>2026-04-04T11:41:29.731Z</time></trkpt><trkpt lat="43.5038599" lon="10.5428451"><ele>126.0</ele><time>2026-04-04T11:41:30.738Z</time></trkpt><trkpt lat="43.5039211" lon="10.542937"><ele>127.6</ele><time>2026-04-04T11:41:31.732Z</time></trkpt><trkpt lat="43.5039753" lon="10.5430185"><ele>129.2</ele><time>2026-04-04T11:41:32.738Z</time></trkpt><trkpt lat="43.5040691" lon="10.5431179"><ele>130.8</ele><time>2026-04-04T11:41:34.732Z</time></trkpt><trkpt lat="43.5042019" lon="10.5431597"><ele>132.4</ele><time>2026-04-04T11:41:36.728Z</time></trkpt><trkpt lat="43.5042906" lon="10.5431764"><ele>134.0</ele><time>2026-04-04T11:41:37.729Z</time></trkpt><trkpt lat="43.5043898" lon="10.5432006"><ele>134.0</ele><time>2026-04-04T11:41:38.74Z</time></trkpt><trkpt lat="43.5044916" lon="10.5432164"><ele>134.0</ele><time>2026-04-04T11:41:39.745Z</time></trkpt><trkpt lat="43.5045904" lon="10.5432297"><ele>134.0</ele><time>2026-04-04T11:41:40.741Z</time></trkpt><trkpt lat="43.5046935" lon="10.543247"><ele>134.0</ele><time>2026-04-04T11:41:41.747Z</time></trkpt><trkpt lat="43.504797" lon="10.5432624"><ele>134.0</ele><time>2026-04-04T11:41:42.744Z</time></trkpt><trkpt lat="43.5049061" lon="10.5432784"><ele>133.5</ele><time>2026-04-04T11:41:43.736Z</time></trkpt><trkpt lat="43.5050207" lon="10.5432808"><ele>133.0</ele><time>2026-04-04T11:41:44.727Z</time></trkpt><trkpt lat="43.5051393" lon="10.5432751"><ele>132.5</ele><time>2026-04-04T11:41:45.733Z</time></trkpt><trkpt lat="43.5052567" lon="10.5432626"><ele>132.0</ele><time>2026-04-04T11:41:46.721Z</time></trkpt><trkpt lat="43.5053718" lon="10.5432452"><ele>131.5</ele><time>2026-04-04T11:41:47.726Z</time></trkpt><trkpt lat="43.5054867" lon="10.5432275"><ele>131.0</ele><time>2026-04-04T11:41:48.733Z</time></trkpt><trkpt lat="43.505601" lon="10.5432088"><ele>130.5</ele><time>2026-04-04T11:41:49.73Z</time></trkpt><trkpt lat="43.5057198" lon="10.543193"><ele>130.0</ele><time>2026-04-04T11:41:50.734Z</time></trkpt><trkpt lat="43.5058431" lon="10.5431824"><ele>130.0</ele><time>2026-04-04T11:41:51.727Z</time></trkpt><trkpt lat="43.505972" lon="10.5431701"><ele>130.0</ele><time>2026-04-04T11:41:52.738Z</time></trkpt><trkpt lat="43.5061013" lon="10.5431567"><ele>130.0</ele><time>2026-04-04T11:41:53.735Z</time></trkpt><trkpt lat="43.506225" lon="10.5431374"><ele>130.0</ele><time>2026-04-04T11:41:54.738Z</time></trkpt><trkpt lat="43.5063437" lon="10.5431375"><ele>129.4</ele><time>2026-04-04T11:41:55.749Z</time></trkpt><trkpt lat="43.5064608" lon="10.5431387"><ele>128.8</ele><time>2026-04-04T11:41:56.728Z</time></trkpt><trkpt lat="43.5065676" lon="10.5431609"><ele>128.2</ele><time>2026-04-04T11:41:57.735Z</time></trkpt><trkpt lat="43.5066684" lon="10.5431826"><ele>127.6</ele><time>2026-04-04T11:41:58.721Z</time></trkpt><trkpt lat="43.5067672" lon="10.5432065"><ele>127.0</ele><time>2026-04-04T11:41:59.746Z</time></trkpt><trkpt lat="43.5068638" lon="10.5432288"><ele>127.0</ele><time>2026-04-04T11:42:00.736Z</time></trkpt><trkpt lat="43.5069644" lon="10.543249"><ele>126.99999999999999</ele><time>2026-04-04T11:42:01.735Z</time></trkpt><trkpt lat="43.5070807" lon="10.5432565"><ele>126.99999999999999</ele><time>2026-04-04T11:42:02.739Z</time></trkpt><trkpt lat="43.5071981" lon="10.5432654"><ele>127.0</ele><time>2026-04-04T11:42:03.74Z</time></trkpt><trkpt lat="43.5073077" lon="10.5432784"><ele>127.0</ele><time>2026-04-04T11:42:04.735Z</time></trkpt><trkpt lat="43.5074044" lon="10.5432926"><ele>126.33333333333334</ele><time>2026-04-04T11:42:05.751Z</time></trkpt><trkpt lat="43.5074869" lon="10.543315"><ele>125.66666666666667</ele><time>2026-04-04T11:42:06.741Z</time></trkpt><trkpt lat="43.5075544" lon="10.5433513"><ele>125.0</ele><time>2026-04-04T11:42:07.738Z</time></trkpt><trkpt lat="43.5076177" lon="10.543391"><ele>124.33333333333334</ele><time>2026-04-04T11:42:08.729Z</time></trkpt><trkpt lat="43.5076548" lon="10.5434843"><ele>123.66666666666667</ele><time>2026-04-04T11:42:09.732Z</time></trkpt><trkpt lat="43.507699" lon="10.543604"><ele>123.0</ele><time>2026-04-04T11:42:10.741Z</time></trkpt><trkpt lat="43.5077626" lon="10.5437416"><ele>122.5</ele><time>2026-04-04T11:42:11.729Z</time></trkpt><trkpt lat="43.5078334" lon="10.5438893"><ele>122.0</ele><time>2026-04-04T11:42:12.741Z</time></trkpt><trkpt lat="43.5079284" lon="10.5440381"><ele>121.5</ele><time>2026-04-04T11:42:13.738Z</time></trkpt><trkpt lat="43.5080228" lon="10.5441959"><ele>121.0</ele><time>2026-04-04T11:42:14.74Z</time></trkpt><trkpt lat="43.5081066" lon="10.5443422"><ele>121.0</ele><time>2026-04-04T11:42:15.739Z</time></trkpt><trkpt lat="43.5081826" lon="10.5444802"><ele>121.0</ele><time>2026-04-04T11:42:16.739Z</time></trkpt><trkpt lat="43.5082551" lon="10.5446069"><ele>121.0</ele><time>2026-04-04T11:42:17.729Z</time></trkpt><trkpt lat="43.5083234" lon="10.5447332"><ele>121.0</ele><time>2026-04-04T11:42:18.747Z</time></trkpt><trkpt lat="43.5084184" lon="10.544846"><ele>119.25</ele><time>2026-04-04T11:42:19.745Z</time></trkpt><trkpt lat="43.5085139" lon="10.5449563"><ele>117.5</ele><time>2026-04-04T11:42:20.737Z</time></trkpt><trkpt lat="43.5086078" lon="10.545054"><ele>115.75</ele><time>2026-04-04T11:42:21.742Z</time></trkpt><trkpt lat="43.5087016" lon="10.5451508"><ele>114.0</ele><time>2026-04-04T11:42:22.73Z</time></trkpt><trkpt lat="43.5088148" lon="10.5452307"><ele>114.0</ele><time>2026-04-04T11:42:23.733Z</time></trkpt><trkpt lat="43.5089328" lon="10.545309"><ele>114.0</ele><time>2026-04-04T11:42:24.738Z</time></trkpt><trkpt lat="43.5090515" lon="10.5453952"><ele>114.0</ele><time>2026-04-04T11:42:25.74Z</time></trkpt><trkpt lat="43.5091772" lon="10.545498"><ele>114.0</ele><time>2026-04-04T11:42:26.734Z</time></trkpt><trkpt lat="43.5093031" lon="10.5455984"><ele>112.5</ele><time>2026-04-04T11:42:27.739Z</time></trkpt><trkpt lat="43.509422" lon="10.5456888"><ele>111.0</ele><time>2026-04-04T11:42:28.733Z</time></trkpt><trkpt lat="43.5095427" lon="10.5457788"><ele>109.5</ele><time>2026-04-04T11:42:29.74Z</time></trkpt><trkpt lat="43.5096616" lon="10.5458625"><ele>108.0</ele><time>2026-04-04T11:42:30.723Z</time></trkpt><trkpt lat="43.5097809" lon="10.5459384"><ele>107.0</ele><time>2026-04-04T11:42:31.734Z</time></trkpt><trkpt lat="43.5098956" lon="10.5460152"><ele>106.0</ele><time>2026-04-04T11:42:32.736Z</time></trkpt><trkpt lat="43.5100127" lon="10.5460804"><ele>105.0</ele><time>2026-04-04T11:42:33.722Z</time></trkpt><trkpt lat="43.5101361" lon="10.5461365"><ele>104.0</ele><time>2026-04-04T11:42:34.736Z</time></trkpt><trkpt lat="43.5102788" lon="10.54615"><ele>101.33333333333333</ele><time>2026-04-04T11:42:35.747Z</time></trkpt><trkpt lat="43.510433" lon="10.5461546"><ele>98.66666666666666</ele><time>2026-04-04T11:42:36.743Z</time></trkpt><trkpt lat="43.5105888" lon="10.5461638"><ele>96.0</ele><time>2026-04-04T11:42:37.741Z</time></trkpt><trkpt lat="43.510742" lon="10.5461761"><ele>96.0</ele><time>2026-04-04T11:42:38.742Z</time></trkpt><trkpt lat="43.5109046" lon="10.5461897"><ele>96.0</ele><time>2026-04-04T11:42:39.74Z</time></trkpt><trkpt lat="43.5110815" lon="10.5461901"><ele>96.0</ele><time>2026-04-04T11:42:40.739Z</time></trkpt><trkpt lat="43.5112594" lon="10.5461894"><ele>95.0</ele><time>2026-04-04T11:42:41.738Z</time></trkpt><trkpt lat="43.5114198" lon="10.5461683"><ele>94.0</ele><time>2026-04-04T11:42:42.747Z</time></trkpt><trkpt lat="43.5115594" lon="10.5461295"><ele>93.0</ele><time>2026-04-04T11:42:43.74Z</time></trkpt><trkpt lat="43.5116972" lon="10.5460635"><ele>92.0</ele><time>2026-04-04T11:42:44.732Z</time></trkpt><trkpt lat="43.5118467" lon="10.545958"><ele>92.0</ele><time>2026-04-04T11:42:45.741Z</time></trkpt><trkpt lat="43.5120033" lon="10.5458322"><ele>92.0</ele><time>2026-04-04T11:42:46.734Z</time></trkpt><trkpt lat="43.512171" lon="10.5457078"><ele>92.0</ele><time>2026-04-04T11:42:47.731Z</time></trkpt><trkpt lat="43.5123349" lon="10.5455879"><ele>91.33333333333334</ele><time>2026-04-04T11:42:48.735Z</time></trkpt><trkpt lat="43.5125077" lon="10.5454984"><ele>90.66666666666667</ele><time>2026-04-04T11:42:49.766Z</time></trkpt><trkpt lat="43.5126808" lon="10.5454185"><ele>90.0</ele><time>2026-04-04T11:42:50.735Z</time></trkpt><trkpt lat="43.5128493" lon="10.5453533"><ele>89.33333333333333</ele><time>2026-04-04T11:42:51.724Z</time></trkpt><trkpt lat="43.5129963" lon="10.5453076"><ele>88.66666666666666</ele><time>2026-04-04T11:42:52.735Z</time></trkpt><trkpt lat="43.5131356" lon="10.545253"><ele>88.0</ele><time>2026-04-04T11:42:53.742Z</time></trkpt><trkpt lat="43.5132843" lon="10.54517"><ele>88.0</ele><time>2026-04-04T11:42:54.728Z</time></trkpt><trkpt lat="43.5134457" lon="10.5450662"><ele>88.0</ele><time>2026-04-04T11:42:55.736Z</time></trkpt><trkpt lat="43.5136061" lon="10.544959"><ele>88.0</ele><time>2026-04-04T11:42:56.714Z</time></trkpt><trkpt lat="43.5137454" lon="10.5448579"><ele>88.25</ele><time>2026-04-04T11:42:57.744Z</time></trkpt><trkpt lat="43.5138673" lon="10.5447398"><ele>88.5</ele><time>2026-04-04T11:42:58.729Z</time></trkpt><trkpt lat="43.5139892" lon="10.5446149"><ele>88.75</ele><time>2026-04-04T11:42:59.746Z</time></trkpt><trkpt lat="43.5140948" lon="10.5444931"><ele>89.0</ele><time>2026-04-04T11:43:00.736Z</time></trkpt><trkpt lat="43.5141887" lon="10.5443718"><ele>89.0</ele><time>2026-04-04T11:43:01.736Z</time></trkpt><trkpt lat="43.5142683" lon="10.5442494"><ele>89.0</ele><time>2026-04-04T11:43:02.742Z</time></trkpt><trkpt lat="43.5143209" lon="10.5441346"><ele>89.0</ele><time>2026-04-04T11:43:03.746Z</time></trkpt><trkpt lat="43.514362" lon="10.5440399"><ele>89.0</ele><time>2026-04-04T11:43:04.741Z</time></trkpt><trkpt lat="43.5144209" lon="10.5439658"><ele>89.0</ele><time>2026-04-04T11:43:05.735Z</time></trkpt><trkpt lat="43.514522" lon="10.5439205"><ele>88.0</ele><time>2026-04-04T11:43:06.739Z</time></trkpt><trkpt lat="43.5146741" lon="10.543897"><ele>87.0</ele><time>2026-04-04T11:43:07.735Z</time></trkpt><trkpt lat="43.5148398" lon="10.5438863"><ele>86.0</ele><time>2026-04-04T11:43:08.742Z</time></trkpt><trkpt lat="43.5150019" lon="10.5438737"><ele>86.0</ele><time>2026-04-04T11:43:09.726Z</time></trkpt><trkpt lat="43.515141" lon="10.5438488"><ele>86.0</ele><time>2026-04-04T11:43:10.735Z</time></trkpt><trkpt lat="43.5152782" lon="10.543818"><ele>86.0</ele><time>2026-04-04T11:43:11.737Z</time></trkpt><trkpt lat="43.5154297" lon="10.5437383"><ele>86.0</ele><time>2026-04-04T11:43:12.74Z</time></trkpt><trkpt lat="43.5155984" lon="10.5436594"><ele>83.33333333333334</ele><time>2026-04-04T11:43:13.728Z</time></trkpt><trkpt lat="43.5157558" lon="10.5435795"><ele>80.66666666666667</ele><time>2026-04-04T11:43:14.717Z</time></trkpt><trkpt lat="43.5158956" lon="10.5434885"><ele>78.0</ele><time>2026-04-04T11:43:15.729Z</time></trkpt><trkpt lat="43.5160314" lon="10.5433975"><ele>78.0</ele><time>2026-04-04T11:43:16.736Z</time></trkpt><trkpt lat="43.5161687" lon="10.5433183"><ele>78.0</ele><time>2026-04-04T11:43:17.736Z</time></trkpt><trkpt lat="43.5163003" lon="10.5432574"><ele>78.0</ele><time>2026-04-04T11:43:18.739Z</time></trkpt><trkpt lat="43.5164136" lon="10.5431926"><ele>78.0</ele><time>2026-04-04T11:43:19.725Z</time></trkpt><trkpt lat="43.5165083" lon="10.5430991"><ele>76.0</ele><time>2026-04-04T11:43:20.742Z</time></trkpt><trkpt lat="43.5166063" lon="10.5429846"><ele>74.0</ele><time>2026-04-04T11:43:21.751Z</time></trkpt><trkpt lat="43.5166877" lon="10.542793"><ele>72.0</ele><time>2026-04-04T11:43:22.726Z</time></trkpt><trkpt lat="43.5167762" lon="10.5425774"><ele>71.66666666666667</ele><time>2026-04-04T11:43:23.729Z</time></trkpt><trkpt lat="43.5168647" lon="10.5423759"><ele>71.33333333333334</ele><time>2026-04-04T11:43:24.736Z</time></trkpt><trkpt lat="43.5169441" lon="10.5421925"><ele>71.0</ele><time>2026-04-04T11:43:25.735Z</time></trkpt><trkpt lat="43.5170275" lon="10.5420443"><ele>69.75</ele><time>2026-04-04T11:43:26.721Z</time></trkpt><trkpt lat="43.5171057" lon="10.5419027"><ele>68.5</ele><time>2026-04-04T11:43:27.734Z</time></trkpt><trkpt lat="43.5172027" lon="10.541746"><ele>67.25</ele><time>2026-04-04T11:43:28.737Z</time></trkpt><trkpt lat="43.5172941" lon="10.5416039"><ele>66.0</ele><time>2026-04-04T11:43:29.737Z</time></trkpt><trkpt lat="43.5173672" lon="10.5414458"><ele>66.0</ele><time>2026-04-04T11:43:30.734Z</time></trkpt><trkpt lat="43.5174377" lon="10.541273"><ele>66.0</ele><time>2026-04-04T11:43:31.752Z</time></trkpt><trkpt lat="43.5175132" lon="10.5410898"><ele>66.0</ele><time>2026-04-04T11:43:32.739Z</time></trkpt><trkpt lat="43.5175964" lon="10.5409244"><ele>66.0</ele><time>2026-04-04T11:43:33.725Z</time></trkpt><trkpt lat="43.5176886" lon="10.5407655"><ele>65.66666666666667</ele><time>2026-04-04T11:43:34.73Z</time></trkpt><trkpt lat="43.5177898" lon="10.5406041"><ele>65.33333333333334</ele><time>2026-04-04T11:43:35.728Z</time></trkpt><trkpt lat="43.5179229" lon="10.5404523"><ele>65.0</ele><time>2026-04-04T11:43:36.747Z</time></trkpt><trkpt lat="43.5180715" lon="10.5403192"><ele>64.8</ele><time>2026-04-04T11:43:37.732Z</time></trkpt><trkpt lat="43.5181878" lon="10.5402172"><ele>64.6</ele><time>2026-04-04T11:43:38.728Z</time></trkpt><trkpt lat="43.5182834" lon="10.5401308"><ele>64.4</ele><time>2026-04-04T11:43:39.736Z</time></trkpt><trkpt lat="43.5183564" lon="10.5400708"><ele>64.2</ele><time>2026-04-04T11:43:40.738Z</time></trkpt><trkpt lat="43.5184337" lon="10.5400126"><ele>64.0</ele><time>2026-04-04T11:43:41.736Z</time></trkpt><trkpt lat="43.518495" lon="10.5399665"><ele>64.0</ele><time>2026-04-04T11:43:42.745Z</time></trkpt><trkpt lat="43.5185967" lon="10.539874"><ele>64.0</ele><time>2026-04-04T11:43:44.728Z</time></trkpt><trkpt lat="43.5186996" lon="10.5398018"><ele>64.0</ele><time>2026-04-04T11:43:46.737Z</time></trkpt><trkpt lat="43.5188181" lon="10.5397905"><ele>64.0</ele><time>2026-04-04T11:43:48.735Z</time></trkpt><trkpt lat="43.5188823" lon="10.5398111"><ele>64.0</ele><time>2026-04-04T11:43:49.736Z</time></trkpt><trkpt lat="43.519002" lon="10.5398289"><ele>64.25</ele><time>2026-04-04T11:43:51.738Z</time></trkpt><trkpt lat="43.5191121" lon="10.5397714"><ele>64.5</ele><time>2026-04-04T11:43:53.732Z</time></trkpt><trkpt lat="43.5192219" lon="10.5396949"><ele>64.75</ele><time>2026-04-04T11:43:55.727Z</time></trkpt><trkpt lat="43.5193354" lon="10.5396544"><ele>65.0</ele><time>2026-04-04T11:43:57.729Z</time></trkpt><trkpt lat="43.5194444" lon="10.5395981"><ele>65.5</ele><time>2026-04-04T11:43:59.737Z</time></trkpt><trkpt lat="43.519507" lon="10.5395449"><ele>66.0</ele><time>2026-04-04T11:44:00.723Z</time></trkpt><trkpt lat="43.5195809" lon="10.5394684"><ele>66.5</ele><time>2026-04-04T11:44:01.744Z</time></trkpt><trkpt lat="43.5196402" lon="10.5393923"><ele>67.0</ele><time>2026-04-04T11:44:02.73Z</time></trkpt><trkpt lat="43.5196863" lon="10.5393124"><ele>67.5</ele><time>2026-04-04T11:44:03.731Z</time></trkpt><trkpt lat="43.5197354" lon="10.5392456"><ele>68.0</ele><time>2026-04-04T11:44:04.74Z</time></trkpt><trkpt lat="43.5197882" lon="10.5391798"><ele>66.33333333333334</ele><time>2026-04-04T11:44:05.743Z</time></trkpt><trkpt lat="43.5198488" lon="10.5391322"><ele>64.66666666666667</ele><time>2026-04-04T11:44:06.737Z</time></trkpt><trkpt lat="43.5199144" lon="10.5390965"><ele>63.0</ele><time>2026-04-04T11:44:07.738Z</time></trkpt><trkpt lat="43.5199753" lon="10.5390744"><ele>61.33333333333333</ele><time>2026-04-04T11:44:08.738Z</time></trkpt><trkpt lat="43.5200919" lon="10.5390437"><ele>59.666666666666664</ele><time>2026-04-04T11:44:10.736Z</time></trkpt><trkpt lat="43.5201634" lon="10.5390645"><ele>58.0</ele><time>2026-04-04T11:44:11.732Z</time></trkpt><trkpt lat="43.520255" lon="10.5390973"><ele>57.99999999999999</ele><time>2026-04-04T11:44:12.736Z</time></trkpt><trkpt lat="43.5203384" lon="10.5391192"><ele>58.0</ele><time>2026-04-04T11:44:13.728Z</time></trkpt><trkpt lat="43.520408" lon="10.5391358"><ele>58.0</ele><time>2026-04-04T11:44:14.729Z</time></trkpt><trkpt lat="43.5205034" lon="10.5391515"><ele>58.0</ele><time>2026-04-04T11:44:16.744Z</time></trkpt><trkpt lat="43.5206035" lon="10.5391565"><ele>57.99999999999999</ele><time>2026-04-04T11:44:18.721Z</time></trkpt><trkpt lat="43.5206664" lon="10.5391506"><ele>58.0</ele><time>2026-04-04T11:44:20.744Z</time></trkpt><trkpt lat="43.5207239" lon="10.5390997"><ele>57.4</ele><time>2026-04-04T11:44:25.75Z</time></trkpt><trkpt lat="43.5207326" lon="10.5390028"><ele>56.8</ele><time>2026-04-04T11:44:27.723Z</time></trkpt><trkpt lat="43.520736" lon="10.5389027"><ele>56.2</ele><time>2026-04-04T11:44:28.734Z</time></trkpt><trkpt lat="43.5207449" lon="10.5387705"><ele>55.6</ele><time>2026-04-04T11:44:29.732Z</time></trkpt><trkpt lat="43.5207576" lon="10.5386176"><ele>55.0</ele><time>2026-04-04T11:44:30.745Z</time></trkpt><trkpt lat="43.5207778" lon="10.5384546"><ele>55.0</ele><time>2026-04-04T11:44:31.745Z</time></trkpt><trkpt lat="43.5208004" lon="10.5382942"><ele>55.0</ele><time>2026-04-04T11:44:32.719Z</time></trkpt><trkpt lat="43.5208765" lon="10.538151"><ele>55.0</ele><time>2026-04-04T11:44:33.74Z</time></trkpt><trkpt lat="43.5209745" lon="10.5380337"><ele>55.0</ele><time>2026-04-04T11:44:34.734Z</time></trkpt><trkpt lat="43.5210879" lon="10.5379262"><ele>55.25</ele><time>2026-04-04T11:44:35.732Z</time></trkpt><trkpt lat="43.521202" lon="10.5378097"><ele>55.5</ele><time>2026-04-04T11:44:36.739Z</time></trkpt><trkpt lat="43.5213169" lon="10.5376857"><ele>55.75</ele><time>2026-04-04T11:44:37.742Z</time></trkpt><trkpt lat="43.521427" lon="10.5375505"><ele>56.0</ele><time>2026-04-04T11:44:38.741Z</time></trkpt><trkpt lat="43.5215285" lon="10.5374048"><ele>56.0</ele><time>2026-04-04T11:44:39.743Z</time></trkpt><trkpt lat="43.5216185" lon="10.5372404"><ele>56.0</ele><time>2026-04-04T11:44:40.728Z</time></trkpt><trkpt lat="43.5216921" lon="10.537064"><ele>56.0</ele><time>2026-04-04T11:44:41.734Z</time></trkpt><trkpt lat="43.5217461" lon="10.5368752"><ele>56.0</ele><time>2026-04-04T11:44:42.737Z</time></trkpt><trkpt lat="43.521789" lon="10.5366956"><ele>55.75</ele><time>2026-04-04T11:44:43.747Z</time></trkpt><trkpt lat="43.5218355" lon="10.5365383"><ele>55.5</ele><time>2026-04-04T11:44:44.732Z</time></trkpt><trkpt lat="43.521898" lon="10.5364085"><ele>55.25</ele><time>2026-04-04T11:44:45.728Z</time></trkpt><trkpt lat="43.5219782" lon="10.5362968"><ele>55.0</ele><time>2026-04-04T11:44:46.734Z</time></trkpt><trkpt lat="43.522075" lon="10.5362056"><ele>55.0</ele><time>2026-04-04T11:44:47.737Z</time></trkpt><trkpt lat="43.5221874" lon="10.536131"><ele>55.0</ele><time>2026-04-04T11:44:48.738Z</time></trkpt><trkpt lat="43.5223072" lon="10.5360557"><ele>55.0</ele><time>2026-04-04T11:44:49.734Z</time></trkpt><trkpt lat="43.5224319" lon="10.53597"><ele>55.0</ele><time>2026-04-04T11:44:50.746Z</time></trkpt><trkpt lat="43.5225594" lon="10.5358836"><ele>55.0</ele><time>2026-04-04T11:44:51.73Z</time></trkpt><trkpt lat="43.5226927" lon="10.5358085"><ele>55.0</ele><time>2026-04-04T11:44:52.742Z</time></trkpt><trkpt lat="43.5228326" lon="10.5357493"><ele>55.0</ele><time>2026-04-04T11:44:53.737Z</time></trkpt><trkpt lat="43.5229808" lon="10.5357082"><ele>55.0</ele><time>2026-04-04T11:44:54.733Z</time></trkpt><trkpt lat="43.5231315" lon="10.535688"><ele>55.25</ele><time>2026-04-04T11:44:55.74Z</time></trkpt><trkpt lat="43.5232715" lon="10.5356902"><ele>55.5</ele><time>2026-04-04T11:44:56.75Z</time></trkpt><trkpt lat="43.5233896" lon="10.5356993"><ele>55.75</ele><time>2026-04-04T11:44:57.753Z</time></trkpt><trkpt lat="43.523495" lon="10.5356869"><ele>56.0</ele><time>2026-04-04T11:44:58.738Z</time></trkpt><trkpt lat="43.5235894" lon="10.5356388"><ele>56.0</ele><time>2026-04-04T11:44:59.736Z</time></trkpt><trkpt lat="43.5236704" lon="10.5355498"><ele>55.99999999999999</ele><time>2026-04-04T11:45:00.739Z</time></trkpt><trkpt lat="43.523742" lon="10.5354236"><ele>55.99999999999999</ele><time>2026-04-04T11:45:01.744Z</time></trkpt><trkpt lat="43.523802" lon="10.5353035"><ele>56.0</ele><time>2026-04-04T11:45:02.731Z</time></trkpt><trkpt lat="43.5238529" lon="10.5352139"><ele>56.0</ele><time>2026-04-04T11:45:03.729Z</time></trkpt><trkpt lat="43.5239436" lon="10.5351386"><ele>56.0</ele><time>2026-04-04T11:45:05.743Z</time></trkpt><trkpt lat="43.5240634" lon="10.5351899"><ele>55.99999999999999</ele><time>2026-04-04T11:45:07.75Z</time></trkpt><trkpt lat="43.5241442" lon="10.5352509"><ele>55.99999999999999</ele><time>2026-04-04T11:45:08.741Z</time></trkpt><trkpt lat="43.5242374" lon="10.5353204"><ele>56.0</ele><time>2026-04-04T11:45:09.734Z</time></trkpt><trkpt lat="43.5243224" lon="10.535385"><ele>56.0</ele><time>2026-04-04T11:45:10.744Z</time></trkpt><trkpt lat="43.5243892" lon="10.5354358"><ele>56.00000000000001</ele><time>2026-04-04T11:45:11.725Z</time></trkpt><trkpt lat="43.5244872" lon="10.5354668"><ele>56.0</ele><time>2026-04-04T11:45:13.746Z</time></trkpt><trkpt lat="43.524566" lon="10.5353815"><ele>56.0</ele><time>2026-04-04T11:45:15.731Z</time></trkpt><trkpt lat="43.5245931" lon="10.5352874"><ele>56.0</ele><time>2026-04-04T11:45:16.732Z</time></trkpt><trkpt lat="43.5246136" lon="10.5351757"><ele>56.00000000000001</ele><time>2026-04-04T11:45:17.737Z</time></trkpt><trkpt lat="43.5246302" lon="10.53506"><ele>56.0</ele><time>2026-04-04T11:45:18.747Z</time></trkpt><trkpt lat="43.524642" lon="10.5349572"><ele>56.16666666666667</ele><time>2026-04-04T11:45:19.742Z</time></trkpt><trkpt lat="43.5246502" lon="10.5348698"><ele>56.333333333333336</ele><time>2026-04-04T11:45:20.736Z</time></trkpt><trkpt lat="43.5246798" lon="10.5347033"><ele>56.5</ele><time>2026-04-04T11:45:22.741Z</time></trkpt><trkpt lat="43.5247007" lon="10.5346121"><ele>56.66666666666667</ele><time>2026-04-04T11:45:23.735Z</time></trkpt><trkpt lat="43.5247201" lon="10.5345171"><ele>56.833333333333336</ele><time>2026-04-04T11:45:24.732Z</time></trkpt><trkpt lat="43.52473" lon="10.5344253"><ele>57.0</ele><time>2026-04-04T11:45:25.729Z</time></trkpt><trkpt lat="43.5247479" lon="10.5342823"><ele>57.0</ele><time>2026-04-04T11:45:27.728Z</time></trkpt><trkpt lat="43.5247729" lon="10.5341683"><ele>57.0</ele><time>2026-04-04T11:45:29.743Z</time></trkpt><trkpt lat="43.5247852" lon="10.5340684"><ele>57.0</ele><time>2026-04-04T11:45:30.743Z</time></trkpt><trkpt lat="43.5247825" lon="10.5339398"><ele>57.0</ele><time>2026-04-04T11:45:31.734Z</time></trkpt><trkpt lat="43.5247654" lon="10.5337898"><ele>57.0</ele><time>2026-04-04T11:45:32.734Z</time></trkpt><trkpt lat="43.5247452" lon="10.5336192"><ele>56.75</ele><time>2026-04-04T11:45:33.731Z</time></trkpt><trkpt lat="43.5247255" lon="10.5334333"><ele>56.5</ele><time>2026-04-04T11:45:34.735Z</time></trkpt><trkpt lat="43.5247078" lon="10.5332358"><ele>56.25</ele><time>2026-04-04T11:45:35.737Z</time></trkpt><trkpt lat="43.5246926" lon="10.5330266"><ele>56.0</ele><time>2026-04-04T11:45:36.737Z</time></trkpt><trkpt lat="43.5246874" lon="10.5328066"><ele>55.66666666666667</ele><time>2026-04-04T11:45:37.734Z</time></trkpt><trkpt lat="43.5247021" lon="10.532581"><ele>55.33333333333333</ele><time>2026-04-04T11:45:38.732Z</time></trkpt><trkpt lat="43.5247375" lon="10.532354"><ele>55.0</ele><time>2026-04-04T11:45:39.737Z</time></trkpt><trkpt lat="43.5247938" lon="10.5321313"><ele>54.666666666666664</ele><time>2026-04-04T11:45:40.745Z</time></trkpt><trkpt lat="43.5248699" lon="10.5319148"><ele>54.33333333333333</ele><time>2026-04-04T11:45:41.734Z</time></trkpt><trkpt lat="43.5249577" lon="10.5317023"><ele>54.0</ele><time>2026-04-04T11:45:42.733Z</time></trkpt><trkpt lat="43.5250551" lon="10.5314978"><ele>54.0</ele><time>2026-04-04T11:45:43.746Z</time></trkpt><trkpt lat="43.5251593" lon="10.5312995"><ele>54.0</ele><time>2026-04-04T11:45:44.744Z</time></trkpt><trkpt lat="43.5252651" lon="10.5311039"><ele>54.0</ele><time>2026-04-04T11:45:45.728Z</time></trkpt><trkpt lat="43.5253719" lon="10.530911"><ele>53.33333333333333</ele><time>2026-04-04T11:45:46.753Z</time></trkpt><trkpt lat="43.5254772" lon="10.5307202"><ele>52.666666666666664</ele><time>2026-04-04T11:45:47.724Z</time></trkpt><trkpt lat="43.5255793" lon="10.5305318"><ele>52.0</ele><time>2026-04-04T11:45:48.735Z</time></trkpt><trkpt lat="43.5256775" lon="10.5303495"><ele>51.666666666666664</ele><time>2026-04-04T11:45:49.756Z</time></trkpt><trkpt lat="43.5257731" lon="10.530171"><ele>51.33333333333333</ele><time>2026-04-04T11:45:50.737Z</time></trkpt><trkpt lat="43.5258667" lon="10.5299966"><ele>51.0</ele><time>2026-04-04T11:45:51.727Z</time></trkpt><trkpt lat="43.5259553" lon="10.529832"><ele>51.0</ele><time>2026-04-04T11:45:52.734Z</time></trkpt><trkpt lat="43.5260425" lon="10.5296699"><ele>51.0</ele><time>2026-04-04T11:45:53.737Z</time></trkpt><trkpt lat="43.5261282" lon="10.5295067"><ele>51.0</ele><time>2026-04-04T11:45:54.727Z</time></trkpt><trkpt lat="43.5262119" lon="10.529342"><ele>51.0</ele><time>2026-04-04T11:45:55.733Z</time></trkpt><trkpt lat="43.5262957" lon="10.5291784"><ele>50.5</ele><time>2026-04-04T11:45:56.738Z</time></trkpt><trkpt lat="43.52638" lon="10.5290229"><ele>50.0</ele><time>2026-04-04T11:45:57.738Z</time></trkpt><trkpt lat="43.5264652" lon="10.5288664"><ele>49.5</ele><time>2026-04-04T11:45:58.734Z</time></trkpt><trkpt lat="43.5265502" lon="10.5287113"><ele>49.0</ele><time>2026-04-04T11:45:59.744Z</time></trkpt><trkpt lat="43.5266338" lon="10.5285647"><ele>48.75</ele><time>2026-04-04T11:46:00.729Z</time></trkpt><trkpt lat="43.5267143" lon="10.5284015"><ele>48.5</ele><time>2026-04-04T11:46:01.734Z</time></trkpt><trkpt lat="43.5267942" lon="10.5282454"><ele>48.25</ele><time>2026-04-04T11:46:02.748Z</time></trkpt><trkpt lat="43.5268805" lon="10.5280925"><ele>48.0</ele><time>2026-04-04T11:46:03.734Z</time></trkpt><trkpt lat="43.5269627" lon="10.5279443"><ele>48.0</ele><time>2026-04-04T11:46:04.728Z</time></trkpt><trkpt lat="43.5270319" lon="10.5278059"><ele>48.0</ele><time>2026-04-04T11:46:05.741Z</time></trkpt><trkpt lat="43.5270927" lon="10.5276818"><ele>48.0</ele><time>2026-04-04T11:46:06.739Z</time></trkpt><trkpt lat="43.5271442" lon="10.5275697"><ele>48.0</ele><time>2026-04-04T11:46:07.73Z</time></trkpt><trkpt lat="43.5271955" lon="10.527477"><ele>48.0</ele><time>2026-04-04T11:46:08.738Z</time></trkpt><trkpt lat="43.5272478" lon="10.5274061"><ele>47.5</ele><time>2026-04-04T11:46:09.728Z</time></trkpt><trkpt lat="43.5273005" lon="10.5273569"><ele>47.0</ele><time>2026-04-04T11:46:10.73Z</time></trkpt><trkpt lat="43.5274068" lon="10.5273087"><ele>46.5</ele><time>2026-04-04T11:46:12.729Z</time></trkpt><trkpt lat="43.527472" lon="10.5273171"><ele>46.0</ele><time>2026-04-04T11:46:13.731Z</time></trkpt><trkpt lat="43.52755" lon="10.5273311"><ele>45.5</ele><time>2026-04-04T11:46:14.737Z</time></trkpt><trkpt lat="43.527645" lon="10.527348"><ele>45.0</ele><time>2026-04-04T11:46:15.739Z</time></trkpt><trkpt lat="43.5277522" lon="10.5273594"><ele>45.0</ele><time>2026-04-04T11:46:16.736Z</time></trkpt><trkpt lat="43.5278689" lon="10.5273696"><ele>45.0</ele><time>2026-04-04T11:46:17.744Z</time></trkpt><trkpt lat="43.5279864" lon="10.5273764"><ele>45.0</ele><time>2026-04-04T11:46:18.732Z</time></trkpt><trkpt lat="43.5281088" lon="10.5273902"><ele>45.0</ele><time>2026-04-04T11:46:19.741Z</time></trkpt><trkpt lat="43.5282376" lon="10.5274023"><ele>45.25</ele><time>2026-04-04T11:46:20.738Z</time></trkpt><trkpt lat="43.5283692" lon="10.527413"><ele>45.5</ele><time>2026-04-04T11:46:21.74Z</time></trkpt><trkpt lat="43.5284989" lon="10.5274177"><ele>45.75</ele><time>2026-04-04T11:46:22.734Z</time></trkpt><trkpt lat="43.5286267" lon="10.5274259"><ele>46.0</ele><time>2026-04-04T11:46:23.738Z</time></trkpt><trkpt lat="43.528745" lon="10.5274316"><ele>46.0</ele><time>2026-04-04T11:46:24.736Z</time></trkpt><trkpt lat="43.5288546" lon="10.527439"><ele>46.0</ele><time>2026-04-04T11:46:25.732Z</time></trkpt><trkpt lat="43.5289757" lon="10.5274497"><ele>46.0</ele><time>2026-04-04T11:46:26.729Z</time></trkpt><trkpt lat="43.5290986" lon="10.52746"><ele>46.0</ele><time>2026-04-04T11:46:27.727Z</time></trkpt><trkpt lat="43.529226" lon="10.5274769"><ele>46.0</ele><time>2026-04-04T11:46:28.743Z</time></trkpt><trkpt lat="43.5293547" lon="10.527498"><ele>46.0</ele><time>2026-04-04T11:46:29.736Z</time></trkpt><trkpt lat="43.5294841" lon="10.5275273"><ele>46.0</ele><time>2026-04-04T11:46:30.743Z</time></trkpt><trkpt lat="43.5296159" lon="10.5275657"><ele>46.0</ele><time>2026-04-04T11:46:31.73Z</time></trkpt><trkpt lat="43.5297504" lon="10.5276067"><ele>46.0</ele><time>2026-04-04T11:46:32.729Z</time></trkpt><trkpt lat="43.5298845" lon="10.5276501"><ele>46.0</ele><time>2026-04-04T11:46:33.735Z</time></trkpt><trkpt lat="43.5300189" lon="10.5276955"><ele>46.0</ele><time>2026-04-04T11:46:34.734Z</time></trkpt><trkpt lat="43.5301532" lon="10.527741"><ele>46.0</ele><time>2026-04-04T11:46:35.741Z</time></trkpt><trkpt lat="43.5302889" lon="10.527786"><ele>45.5</ele><time>2026-04-04T11:46:36.738Z</time></trkpt><trkpt lat="43.5304238" lon="10.5278243"><ele>45.0</ele><time>2026-04-04T11:46:37.739Z</time></trkpt><trkpt lat="43.5305582" lon="10.5278539"><ele>44.5</ele><time>2026-04-04T11:46:38.738Z</time></trkpt><trkpt lat="43.5306936" lon="10.527868"><ele>44.0</ele><time>2026-04-04T11:46:39.726Z</time></trkpt><trkpt lat="43.53083" lon="10.5278709"><ele>44.0</ele><time>2026-04-04T11:46:40.733Z</time></trkpt><trkpt lat="43.530967" lon="10.5278664"><ele>44.0</ele><time>2026-04-04T11:46:41.737Z</time></trkpt><trkpt lat="43.5311033" lon="10.5278603"><ele>44.0</ele><time>2026-04-04T11:46:42.749Z</time></trkpt><trkpt lat="43.5312418" lon="10.5278482"><ele>44.0</ele><time>2026-04-04T11:46:43.74Z</time></trkpt><trkpt lat="43.5313779" lon="10.5278298"><ele>44.0</ele><time>2026-04-04T11:46:44.734Z</time></trkpt><trkpt lat="43.5315143" lon="10.5278099"><ele>44.0</ele><time>2026-04-04T11:46:45.738Z</time></trkpt><trkpt lat="43.5316511" lon="10.5277927"><ele>44.0</ele><time>2026-04-04T11:46:46.739Z</time></trkpt><trkpt lat="43.5317877" lon="10.5277748"><ele>44.0</ele><time>2026-04-04T11:46:47.735Z</time></trkpt><trkpt lat="43.5319246" lon="10.5277576"><ele>43.75</ele><time>2026-04-04T11:46:48.744Z</time></trkpt><trkpt lat="43.532059" lon="10.5277398"><ele>43.5</ele><time>2026-04-04T11:46:49.74Z</time></trkpt><trkpt lat="43.5321938" lon="10.5277214"><ele>43.25</ele><time>2026-04-04T11:46:50.737Z</time></trkpt><trkpt lat="43.5323284" lon="10.5277049"><ele>43.0</ele><time>2026-04-04T11:46:51.731Z</time></trkpt><trkpt lat="43.5324628" lon="10.52769"><ele>43.0</ele><time>2026-04-04T11:46:52.726Z</time></trkpt><trkpt lat="43.5325985" lon="10.5276803"><ele>43.0</ele><time>2026-04-04T11:46:53.725Z</time></trkpt><trkpt lat="43.5327358" lon="10.527675"><ele>43.0</ele><time>2026-04-04T11:46:54.739Z</time></trkpt><trkpt lat="43.5328742" lon="10.5276719"><ele>43.0</ele><time>2026-04-04T11:46:55.753Z</time></trkpt><trkpt lat="43.5330136" lon="10.5276703"><ele>43.0</ele><time>2026-04-04T11:46:56.735Z</time></trkpt><trkpt lat="43.5331546" lon="10.5276662"><ele>43.0</ele><time>2026-04-04T11:46:57.727Z</time></trkpt><trkpt lat="43.533298" lon="10.5276577"><ele>43.0</ele><time>2026-04-04T11:46:58.727Z</time></trkpt><trkpt lat="43.5334407" lon="10.5276459"><ele>43.0</ele><time>2026-04-04T11:46:59.737Z</time></trkpt><trkpt lat="43.5335794" lon="10.5276214"><ele>43.0</ele><time>2026-04-04T11:47:00.735Z</time></trkpt><trkpt lat="43.5337119" lon="10.5275883"><ele>43.0</ele><time>2026-04-04T11:47:01.723Z</time></trkpt><trkpt lat="43.5338449" lon="10.5275434"><ele>43.0</ele><time>2026-04-04T11:47:02.73Z</time></trkpt><trkpt lat="43.5339738" lon="10.5274915"><ele>43.0</ele><time>2026-04-04T11:47:03.733Z</time></trkpt><trkpt lat="43.5341093" lon="10.5274405"><ele>43.25</ele><time>2026-04-04T11:47:04.735Z</time></trkpt><trkpt lat="43.5342425" lon="10.527394"><ele>43.5</ele><time>2026-04-04T11:47:05.757Z</time></trkpt><trkpt lat="43.534381" lon="10.5273475"><ele>43.75</ele><time>2026-04-04T11:47:06.742Z</time></trkpt><trkpt lat="43.5345166" lon="10.5273091"><ele>44.0</ele><time>2026-04-04T11:47:07.734Z</time></trkpt><trkpt lat="43.5346569" lon="10.5272775"><ele>43.5</ele><time>2026-04-04T11:47:08.733Z</time></trkpt><trkpt lat="43.5347984" lon="10.5272524"><ele>43.0</ele><time>2026-04-04T11:47:09.725Z</time></trkpt><trkpt lat="43.5349302" lon="10.5272367"><ele>42.5</ele><time>2026-04-04T11:47:10.733Z</time></trkpt><trkpt lat="43.5350558" lon="10.5272252"><ele>42.0</ele><time>2026-04-04T11:47:11.738Z</time></trkpt><trkpt lat="43.5351865" lon="10.5272142"><ele>42.0</ele><time>2026-04-04T11:47:12.732Z</time></trkpt><trkpt lat="43.5353226" lon="10.5272061"><ele>42.0</ele><time>2026-04-04T11:47:13.737Z</time></trkpt><trkpt lat="43.535464" lon="10.5271984"><ele>42.0</ele><time>2026-04-04T11:47:14.728Z</time></trkpt><trkpt lat="43.5356098" lon="10.5271911"><ele>42.0</ele><time>2026-04-04T11:47:15.73Z</time></trkpt><trkpt lat="43.5357574" lon="10.5271827"><ele>42.0</ele><time>2026-04-04T11:47:16.729Z</time></trkpt><trkpt lat="43.5358989" lon="10.527174"><ele>42.0</ele><time>2026-04-04T11:47:17.738Z</time></trkpt><trkpt lat="43.5360331" lon="10.5271618"><ele>42.0</ele><time>2026-04-04T11:47:18.736Z</time></trkpt><trkpt lat="43.536164" lon="10.5271334"><ele>42.0</ele><time>2026-04-04T11:47:19.732Z</time></trkpt><trkpt lat="43.5362903" lon="10.5270978"><ele>41.75</ele><time>2026-04-04T11:47:20.723Z</time></trkpt><trkpt lat="43.536418" lon="10.5270155"><ele>41.5</ele><time>2026-04-04T11:47:21.733Z</time></trkpt><trkpt lat="43.5365432" lon="10.5269255"><ele>41.25</ele><time>2026-04-04T11:47:22.737Z</time></trkpt><trkpt lat="43.5366683" lon="10.5268258"><ele>41.0</ele><time>2026-04-04T11:47:23.736Z</time></trkpt><trkpt lat="43.5367946" lon="10.5267284"><ele>41.0</ele><time>2026-04-04T11:47:24.719Z</time></trkpt><trkpt lat="43.5369229" lon="10.5266464"><ele>41.0</ele><time>2026-04-04T11:47:25.737Z</time></trkpt><trkpt lat="43.5370555" lon="10.5265853"><ele>41.0</ele><time>2026-04-04T11:47:26.738Z</time></trkpt><trkpt lat="43.5371936" lon="10.5265476"><ele>41.0</ele><time>2026-04-04T11:47:27.731Z</time></trkpt><trkpt lat="43.5373373" lon="10.5265312"><ele>40.75</ele><time>2026-04-04T11:47:28.744Z</time></trkpt><trkpt lat="43.5374853" lon="10.5265318"><ele>40.5</ele><time>2026-04-04T11:47:29.741Z</time></trkpt><trkpt lat="43.5376375" lon="10.5265382"><ele>40.25</ele><time>2026-04-04T11:47:30.738Z</time></trkpt><trkpt lat="43.5377858" lon="10.5265428"><ele>40.0</ele><time>2026-04-04T11:47:31.731Z</time></trkpt><trkpt lat="43.5379312" lon="10.5265423"><ele>40.75</ele><time>2026-04-04T11:47:32.727Z</time></trkpt><trkpt lat="43.5380715" lon="10.5265357"><ele>41.5</ele><time>2026-04-04T11:47:33.743Z</time></trkpt><trkpt lat="43.5382107" lon="10.5265193"><ele>42.25</ele><time>2026-04-04T11:47:34.738Z</time></trkpt><trkpt lat="43.5383456" lon="10.5264948"><ele>43.0</ele><time>2026-04-04T11:47:35.726Z</time></trkpt><trkpt lat="43.538477" lon="10.5264659"><ele>43.0</ele><time>2026-04-04T11:47:36.727Z</time></trkpt><trkpt lat="43.5386083" lon="10.5264367"><ele>43.0</ele><time>2026-04-04T11:47:37.732Z</time></trkpt><trkpt lat="43.5387416" lon="10.5264097"><ele>43.0</ele><time>2026-04-04T11:47:38.734Z</time></trkpt><trkpt lat="43.5388771" lon="10.5263878"><ele>43.0</ele><time>2026-04-04T11:47:39.742Z</time></trkpt><trkpt lat="43.5390148" lon="10.5263704"><ele>42.75</ele><time>2026-04-04T11:47:40.737Z</time></trkpt><trkpt lat="43.5391542" lon="10.5263592"><ele>42.5</ele><time>2026-04-04T11:47:41.737Z</time></trkpt><trkpt lat="43.5392897" lon="10.526362"><ele>42.25</ele><time>2026-04-04T11:47:42.73Z</time></trkpt><trkpt lat="43.5394157" lon="10.5263762"><ele>42.0</ele><time>2026-04-04T11:47:43.728Z</time></trkpt><trkpt lat="43.5395375" lon="10.5263953"><ele>42.25</ele><time>2026-04-04T11:47:44.735Z</time></trkpt><trkpt lat="43.5396573" lon="10.5264174"><ele>42.5</ele><time>2026-04-04T11:47:45.729Z</time></trkpt><trkpt lat="43.539775" lon="10.5264548"><ele>42.75</ele><time>2026-04-04T11:47:46.733Z</time></trkpt><trkpt lat="43.5398949" lon="10.5264946"><ele>43.0</ele><time>2026-04-04T11:47:47.734Z</time></trkpt><trkpt lat="43.5400116" lon="10.5265537"><ele>43.0</ele><time>2026-04-04T11:47:48.725Z</time></trkpt><trkpt lat="43.5401308" lon="10.5266159"><ele>43.0</ele><time>2026-04-04T11:47:49.734Z</time></trkpt><trkpt lat="43.5402526" lon="10.5266735"><ele>43.0</ele><time>2026-04-04T11:47:50.734Z</time></trkpt><trkpt lat="43.5403771" lon="10.5267235"><ele>43.0</ele><time>2026-04-04T11:47:51.731Z</time></trkpt><trkpt lat="43.5405034" lon="10.5267711"><ele>42.25</ele><time>2026-04-04T11:47:52.732Z</time></trkpt><trkpt lat="43.5406315" lon="10.5268174"><ele>41.5</ele><time>2026-04-04T11:47:53.717Z</time></trkpt><trkpt lat="43.5407615" lon="10.5268622"><ele>40.75</ele><time>2026-04-04T11:47:54.733Z</time></trkpt><trkpt lat="43.5408908" lon="10.5269049"><ele>40.0</ele><time>2026-04-04T11:47:55.731Z</time></trkpt><trkpt lat="43.5410187" lon="10.5269466"><ele>40.0</ele><time>2026-04-04T11:47:56.734Z</time></trkpt><trkpt lat="43.5411508" lon="10.5269792"><ele>40.0</ele><time>2026-04-04T11:47:57.724Z</time></trkpt><trkpt lat="43.5412845" lon="10.5270081"><ele>40.0</ele><time>2026-04-04T11:47:58.723Z</time></trkpt><trkpt lat="43.5414205" lon="10.5270392"><ele>40.0</ele><time>2026-04-04T11:47:59.734Z</time></trkpt><trkpt lat="43.5415592" lon="10.5270716"><ele>40.5</ele><time>2026-04-04T11:48:00.741Z</time></trkpt><trkpt lat="43.5416955" lon="10.5270946"><ele>41.0</ele><time>2026-04-04T11:48:01.734Z</time></trkpt><trkpt lat="43.5418314" lon="10.5271098"><ele>41.5</ele><time>2026-04-04T11:48:02.738Z</time></trkpt><trkpt lat="43.5419691" lon="10.5271178"><ele>42.0</ele><time>2026-04-04T11:48:03.743Z</time></trkpt><trkpt lat="43.5421063" lon="10.5271237"><ele>42.0</ele><time>2026-04-04T11:48:04.734Z</time></trkpt><trkpt lat="43.5422435" lon="10.527123"><ele>42.0</ele><time>2026-04-04T11:48:05.743Z</time></trkpt><trkpt lat="43.5423763" lon="10.5271161"><ele>42.0</ele><time>2026-04-04T11:48:06.739Z</time></trkpt><trkpt lat="43.5425089" lon="10.5270969"><ele>42.0</ele><time>2026-04-04T11:48:07.735Z</time></trkpt><trkpt lat="43.5426415" lon="10.5270587"><ele>42.0</ele><time>2026-04-04T11:48:08.734Z</time></trkpt><trkpt lat="43.5427732" lon="10.5270022"><ele>42.0</ele><time>2026-04-04T11:48:09.73Z</time></trkpt><trkpt lat="43.5429041" lon="10.5269425"><ele>42.0</ele><time>2026-04-04T11:48:10.744Z</time></trkpt><trkpt lat="43.5430335" lon="10.5268829"><ele>42.0</ele><time>2026-04-04T11:48:11.732Z</time></trkpt><trkpt lat="43.5431624" lon="10.5268243"><ele>41.75</ele><time>2026-04-04T11:48:12.735Z</time></trkpt><trkpt lat="43.5432931" lon="10.5267636"><ele>41.5</ele><time>2026-04-04T11:48:13.733Z</time></trkpt><trkpt lat="43.5434125" lon="10.5267102"><ele>41.25</ele><time>2026-04-04T11:48:14.726Z</time></trkpt><trkpt lat="43.5435187" lon="10.5266641"><ele>41.0</ele><time>2026-04-04T11:48:15.734Z</time></trkpt><trkpt lat="43.543613" lon="10.5266222"><ele>41.0</ele><time>2026-04-04T11:48:16.728Z</time></trkpt><trkpt lat="43.5437003" lon="10.5265877"><ele>41.0</ele><time>2026-04-04T11:48:17.74Z</time></trkpt><trkpt lat="43.5437762" lon="10.526561"><ele>41.0</ele><time>2026-04-04T11:48:18.729Z</time></trkpt><trkpt lat="43.5438405" lon="10.5265485"><ele>41.0</ele><time>2026-04-04T11:48:19.738Z</time></trkpt><trkpt lat="43.5439403" lon="10.5265845"><ele>41.0</ele><time>2026-04-04T11:48:21.733Z</time></trkpt><trkpt lat="43.5439936" lon="10.526672"><ele>41.0</ele><time>2026-04-04T11:48:23.723Z</time></trkpt><trkpt lat="43.5440196" lon="10.5267638"><ele>42.0</ele><time>2026-04-04T11:48:25.734Z</time></trkpt><trkpt lat="43.5440159" lon="10.5268731"><ele>42.0</ele><time>2026-04-04T11:48:28.736Z</time></trkpt></trkseg></trk></gpx>